GFSSE_250_rhum_000.txt.gz
RH
51 56 54 56 57 73 88 81 68 80 81 67 47 44 48 55 56 43 27 29 30 31 28 26 23 20 17 16 14 13 12 13 13 14 17 17 18 20 21 21 21 18 18
46 58 58 61 59 58 61 65 57 71 92 74 62 52 46 58 70 54 50 37 32 28 28 27 24 19 18 15 15 16 15 15 14 14 18 21 23 23 24 21 22 22 20
66 54 62 58 59 56 53 50 52 49 88 99 73 57 50 78 89 55 46 41 36 37 33 27 24 22 22 19 19 18 17 16 15 16 18 22 21 21 20 20 22 22 23
87 70 56 65 68 60 57 54 52 58 70 100 89 64 95 82 72 59 62 51 47 49 41 39 32 30 26 23 20 18 17 16 15 16 16 15 16 18 17 21 20 22 24
95 86 70 54 50 59 65 55 52 51 61 93 98 91 99 69 80 92 64 52 55 57 48 40 34 26 23 19 18 20 21 21 17 16 18 16 14 15 17 23 28 27 29
100 98 88 68 64 58 55 54 52 48 56 74 73 79 100 100 100 100 100 88 67 52 43 38 36 26 24 24 20 22 22 20 16 15 16 14 13 15 21 25 29 36 34
100 100 95 91 91 80 77 70 73 59 55 65 45 44 94 100 100 100 92 75 42 43 58 49 32 29 26 22 20 22 21 15 14 14 16 17 24 28 29 35 41 40 39
100 100 100 100 91 89 91 76 71 78 71 90 73 63 67 73 94 100 73 50 40 50 42 37 38 32 25 22 22 23 15 13 14 18 24 28 31 44 44 43 49 46 37
100 100 100 100 100 96 91 91 87 80 83 91 98 99 100 100 100 100 75 62 58 54 45 41 31 30 32 32 31 21 11 14 19 36 45 52 54 54 54 54 50 37 24
100 100 100 100 100 100 100 99 98 94 80 84 87 98 100 100 98 91 84 71 57 47 41 36 31 31 34 27 25 13 17 19 34 53 55 53 45 41 38 32 28 25 21
100 100 100 99 100 100 100 100 100 100 91 81 100 87 100 78 73 73 80 50 47 40 44 35 32 34 40 29 15 19 24 39 52 47 36 30 27 29 28 24 21 19 17
100 100 100 98 97 100 100 100 100 93 92 96 99 100 97 80 63 65 55 44 50 49 46 36 31 32 36 18 22 40 45 45 38 27 24 27 28 26 23 19 17 16 17
100 100 100 99 99 98 100 100 100 99 82 95 96 88 81 76 67 53 59 62 61 56 50 42 35 33 22 27 51 52 34 30 27 23 24 28 28 28 27 24 18 16 18
92 100 100 98 98 96 92 100 92 90 97 93 80 70 71 71 61 73 78 71 62 62 60 40 42 27 28 48 69 51 42 34 30 28 26 27 29 30 30 31 29 20 18
34 64 100 100 98 95 99 100 98 85 90 95 91 86 87 80 82 76 82 68 55 63 52 49 31 27 52 69 71 64 56 57 54 45 37 34 34 31 29 28 30 33 29
25 29 58 91 99 95 91 93 96 88 79 86 86 88 84 84 84 88 75 57 50 65 64 39 23 43 68 70 62 62 58 54 53 54 50 46 42 39 40 40 39 38 34
22 24 24 38 65 100 94 78 82 89 84 95 97 100 87 83 91 100 71 64 55 69 48 20 46 72 72 70 66 59 51 47 41 35 32 30 26 22 20 21 24 32 37
19 20 22 24 38 70 87 88 78 61 69 77 95 95 85 100 100 84 73 72 65 60 24 23 53 57 67 66 45 28 20 18 16 16 16 16 16 16 15 14 14 13 12
24 24 27 35 31 65 92 84 96 77 83 89 99 100 100 100 100 85 87 76 66 28 17 43 37 38 37 28 24 22 21 20 20 19 19 18 18 18 17 16 17 17 17
25 26 29 35 30 25 40 76 88 94 94 97 100 100 100 100 100 89 84 76 25 17 36 35 19 22 24 25 23 24 23 22 21 21 23 24 23 22 20 20 18 16 16
26 26 28 35 32 33 31 28 23 28 38 47 79 86 100 100 95 78 70 26 16 30 28 21 23 25 27 26 27 25 25 25 25 26 26 27 25 25 22 20 18 17 15
28 28 31 32 33 45 35 30 28 43 96 100 100 100 100 92 82 54 20 19 30 32 26 27 28 26 27 27 28 26 25 23 24 25 24 25 24 24 22 20 18 16 15
30 32 32 33 30 40 31 28 40 63 92 100 100 97 80 55 32 20 28 38 30 28 31 30 30 28 28 26 25 25 24 29 33 33 29 27 24 20 17 16 15 13 12
28 34 35 34 29 33 27 25 32 35 78 82 80 45 32 23 36 43 43 32 29 30 32 31 29 30 30 28 26 25 28 29 28 28 31 30 29 24 19 18 17 16 16
29 32 36 39 30 32 28 27 25 45 56 70 36 25 27 44 47 38 31 29 28 29 31 32 33 35 33 31 30 29 26 24 22 17 21 24 22 19 18 18 22 25 28
35 38 38 34 30 30 28 27 30 48 71 43 28 33 42 37 34 32 30 30 32 33 31 33 37 37 34 33 32 28 28 26 25 23 21 18 16 19 18 25 32 36 38

GFSSE_250_rhum_003.txt.gz
RH
67 64 54 49 52 46 52 51 53 63 63 69 82 84 78 65 50 50 51 54 64 55 46 32 30 30 30 28 25 25 24 22 21 20 17 17 17 16 14 15 14 15 17
61 74 66 57 57 59 53 54 60 70 75 80 61 74 71 68 66 56 64 77 76 53 47 48 40 34 31 29 27 26 24 21 19 17 17 15 17 15 14 15 17 16 18
61 73 78 68 62 57 52 56 64 59 57 55 54 57 95 90 81 56 91 78 76 61 53 45 42 35 31 30 28 24 24 23 21 18 18 19 20 17 17 15 15 16 16
95 74 79 79 74 69 60 56 62 60 60 55 56 56 58 75 79 64 100 77 75 70 73 64 49 59 38 28 27 26 28 22 18 18 18 18 19 17 14 14 16 16 16
100 100 90 82 93 85 70 62 61 54 48 46 47 52 65 69 71 60 98 100 96 98 98 90 69 44 31 26 25 26 24 20 21 23 23 22 17 10 11 13 13 14 14
100 100 100 98 98 97 93 78 66 57 45 43 50 50 45 63 75 61 69 95 100 100 95 88 61 41 40 34 28 30 25 22 23 23 23 17 10 11 14 16 17 18 23
100 100 100 100 100 100 100 96 91 73 58 50 42 44 49 39 56 45 54 66 53 91 96 75 56 61 52 37 32 34 23 24 24 28 16 12 13 15 19 29 26 32 33
100 100 100 100 100 100 100 100 100 91 76 60 59 49 48 44 46 54 61 56 58 87 100 88 79 57 38 36 34 35 24 21 26 18 13 16 18 28 43 53 61 57 56
100 100 100 100 100 100 100 100 100 100 93 84 83 78 74 68 56 64 76 95 100 100 95 81 76 55 41 41 46 40 29 24 22 14 19 26 34 51 51 42 36 39 43
87 100 100 100 100 100 100 100 100 100 100 95 88 87 86 80 69 55 88 99 98 81 67 77 62 48 44 48 53 41 30 27 18 20 39 50 51 41 29 28 28 29 31
95 100 100 100 100 99 100 100 100 100 100 100 100 100 100 98 95 95 100 94 93 86 78 65 54 52 56 53 49 39 36 27 24 38 46 32 24 24 24 26 28 26 25
48 76 72 84 100 100 98 100 100 100 100 100 100 100 100 100 97 95 96 97 97 92 84 69 58 59 61 50 45 42 34 23 36 55 37 36 31 28 28 30 30 30 30
26 73 87 85 99 100 100 100 100 100 100 100 100 100 100 100 88 85 81 80 79 74 81 80 61 63 54 45 45 37 25 30 56 59 54 55 54 52 43 37 36 33 30
19 19 31 54 79 84 84 86 88 100 100 95 81 91 97 100 98 99 99 86 88 90 89 71 69 56 57 46 50 28 26 55 62 58 53 49 48 48 49 48 46 43 43
23 20 19 20 62 96 92 79 85 87 86 81 83 82 82 90 94 88 90 100 96 88 82 71 65 64 63 54 43 18 37 55 54 50 45 41 36 31 28 27 25 22 18
18 21 19 20 21 33 61 78 90 83 85 80 76 74 76 88 100 87 81 81 89 97 85 73 67 72 65 54 25 26 46 52 42 32 22 16 14 14 14 15 15 16 16
17 17 19 19 20 24 26 29 38 51 73 71 63 61 77 83 100 94 94 93 96 98 95 73 81 80 71 48 19 30 34 37 23 21 20 21 20 19 19 18 18 18 18
18 16 17 19 20 19 18 25 26 44 56 70 64 64 64 68 61 73 91 87 86 100 100 92 97 84 56 23 23 18 16 19 21 21 21 23 24 23 23 23 23 23 23
20 19 18 19 21 23 22 18 49 38 42 43 56 67 54 47 53 61 90 95 100 100 100 100 91 66 26 26 21 18 17 24 23 25 25 26 25 25 24 24 24 23 23
25 20 19 23 25 26 23 20 18 22 31 29 71 86 87 89 99 96 100 100 100 100 100 99 82 31 28 24 22 21 21 27 25 28 28 26 24 24 24 24 24 24 24
27 26 22 21 25 28 26 23 23 39 54 44 26 28 24 34 56 78 100 100 100 100 100 81 35 28 32 25 24 22 24 26 26 28 28 26 26 25 26 28 28 26 23
31 28 28 25 23 27 31 31 28 37 53 47 28 23 31 70 96 100 100 100 100 97 65 25 26 33 27 27 25 27 27 29 30 32 32 28 26 27 28 30 29 27 22
31 31 28 29 26 25 45 56 53 39 48 49 28 30 55 84 100 100 100 86 60 36 29 34 32 30 27 27 29 31 35 40 40 40 36 33 32 31 29 25 25 24 21
29 33 30 30 32 27 32 69 43 30 44 33 27 35 33 69 94 91 59 33 32 38 40 39 32 29 26 26 28 35 36 39 44 42 42 40 36 36 36 32 29 28 25
28 32 35 31 35 37 33 48 56 47 43 28 26 25 33 67 78 46 30 41 44 44 36 31 29 28 28 31 33 32 31 36 39 38 36 36 36 36 30 28 29 27 25
34 34 35 34 33 38 43 41 38 42 34 31 28 27 45 67 59 31 36 43 37 34 33 32 30 32 35 36 35 33 33 38 37 34 31 33 32 29 29 29 30 27 26

GFSSE_250_rhum_009.txt.gz
RH
29 47 51 50 33 25 22 22 28 38 41 46 37 30 31 31 35 37 38 46 52 54 54 52 54 62 90 84 71 56 41 39 39 43 43 44 37 28 25 21 20 20 20
44 47 40 41 51 46 32 29 21 25 40 47 51 46 39 35 38 48 48 52 52 47 40 45 55 65 84 87 61 56 52 54 62 61 57 49 33 34 27 24 23 19 20
56 47 39 55 52 49 45 36 32 28 23 41 53 59 55 50 47 44 45 60 54 42 35 37 38 47 71 77 89 86 67 47 51 72 49 36 44 34 30 24 25 21 20
58 56 44 42 49 51 47 39 50 41 37 36 58 61 62 58 57 63 56 52 51 50 51 56 59 50 55 80 97 100 96 75 52 30 38 63 46 37 30 30 26 20 20
37 46 42 36 40 52 56 52 52 56 52 48 53 70 74 66 68 70 59 54 58 62 67 63 57 52 54 53 63 61 62 41 30 47 57 56 47 41 34 28 22 23 24
29 30 35 37 33 45 60 57 65 76 62 66 77 75 82 82 78 75 75 66 60 58 60 63 56 53 55 55 49 37 38 47 66 86 64 49 46 42 33 26 24 26 21
31 33 31 29 31 36 58 85 71 79 87 80 76 87 85 88 84 84 85 79 70 65 56 53 44 45 47 45 52 50 66 82 77 84 66 64 68 49 36 30 28 26 22
38 37 47 36 34 39 74 77 75 94 94 91 86 95 96 92 91 94 92 85 78 70 57 56 62 54 48 49 47 65 86 83 74 70 79 81 65 48 41 33 28 25 23
37 42 47 55 51 51 59 100 92 100 100 98 97 95 97 100 99 93 99 98 93 84 71 66 63 72 72 74 73 80 100 100 100 100 90 73 61 49 43 36 28 26 32
29 38 39 46 52 51 54 76 100 100 100 100 100 100 100 100 100 100 100 100 98 99 98 93 75 55 83 100 100 100 84 85 77 70 72 66 62 51 44 37 29 27 47
25 28 29 29 33 32 38 43 69 100 100 100 100 100 100 100 100 100 100 100 100 100 100 98 84 100 100 98 85 80 70 76 75 80 75 70 62 54 44 38 30 41 63
15 17 18 15 14 13 15 18 26 59 93 100 100 100 97 92 100 100 98 100 100 100 100 100 100 100 100 100 100 100 95 84 78 66 70 67 62 61 48 43 28 50 62
10 12 12 12 12 12 13 14 16 18 44 90 100 100 100 100 100 100 98 100 100 100 100 100 98 100 100 100 97 88 82 79 72 72 63 68 70 55 53 50 34 56 49
12 12 10 8 8 11 12 16 17 21 22 26 45 75 100 100 100 100 100 100 100 100 100 100 100 100 96 82 87 84 63 72 75 75 68 76 71 58 60 47 34 50 26
16 17 16 12 10 10 13 20 18 19 20 20 23 30 54 77 83 100 100 100 100 100 100 87 85 79 75 73 71 70 67 63 78 81 76 73 80 71 64 38 33 29 17
15 17 17 17 14 12 12 14 27 17 21 23 27 31 45 60 68 71 86 78 83 80 75 74 67 67 71 68 66 62 59 77 79 78 75 95 100 96 72 32 28 22 22
20 20 19 18 16 14 13 13 14 21 20 20 24 25 25 37 56 71 72 65 64 62 62 55 58 58 56 58 63 65 68 68 69 96 100 100 100 91 65 28 20 22 23
21 22 21 20 20 17 15 14 14 20 18 17 20 20 21 20 22 23 28 33 42 47 55 47 44 44 46 53 56 69 67 76 97 100 100 100 100 78 49 27 21 23 25
26 24 23 22 20 18 17 19 22 21 31 30 28 18 20 22 21 20 22 26 27 28 22 19 30 56 79 88 97 100 100 100 100 100 100 100 89 67 31 24 24 28 27
32 29 29 25 21 19 17 18 19 17 24 23 19 18 19 21 20 21 25 33 31 17 23 28 28 44 47 72 76 100 100 100 100 99 90 80 74 36 34 26 28 28 29
32 32 32 33 28 22 19 16 17 20 24 42 45 34 20 20 24 27 31 31 19 21 33 30 22 22 34 74 89 93 92 92 93 87 79 47 34 32 32 31 30 30 27
38 31 32 32 33 30 26 19 17 33 43 43 46 33 25 29 39 32 35 27 22 25 36 38 27 28 48 69 76 76 86 78 71 48 37 38 40 37 34 30 28 27 25
56 44 32 36 31 30 30 25 22 21 25 32 40 40 32 40 42 36 47 39 27 26 26 36 27 28 35 55 68 74 54 34 34 48 49 46 41 35 32 28 27 28 31
81 62 46 40 38 29 31 28 25 24 24 29 32 46 50 49 59 58 56 52 39 32 36 30 26 24 24 49 64 48 35 41 47 39 35 34 33 32 30 32 33 31 28
83 64 51 49 50 36 33 32 30 27 23 26 32 34 48 56 67 72 60 58 52 51 45 38 26 22 24 50 62 44 33 31 35 38 41 44 43 42 43 42 41 37 34
74 78 71 61 59 49 41 35 33 29 26 24 31 36 39 63 82 83 77 72 70 64 51 42 27 24 26 42 54 48 39 36 33 32 36 42 46 49 42 37 39 40 43

GFSSE_250_rhum_012.txt.gz
RH
17 17 22 29 30 31 26 19 17 21 21 23 25 28 37 33 29 28 30 32 40 43 43 44 46 45 41 37 40 40 50 54 48 45 42 34 33 35 51 47 35 37 38
33 23 23 21 29 30 28 27 24 19 20 20 18 20 31 39 45 40 38 33 28 29 32 42 51 50 46 44 41 45 48 59 55 52 51 44 36 39 40 29 30 42 40
37 34 28 30 35 30 23 24 25 32 36 23 21 20 18 23 37 44 47 46 45 45 42 38 50 51 41 38 37 36 40 50 59 76 88 66 68 44 27 45 48 46 34
38 35 30 39 42 30 36 31 32 38 39 35 33 23 24 21 23 36 50 48 49 50 53 47 40 41 41 42 46 49 50 44 51 57 60 48 41 34 44 70 62 50 46
36 36 34 31 27 31 34 35 33 41 44 45 52 47 39 45 36 35 51 66 66 69 66 58 49 44 52 55 57 56 47 48 48 49 42 49 44 53 73 80 54 53 54
33 44 40 38 39 28 24 26 35 34 36 44 56 69 62 54 62 56 57 71 74 76 76 74 69 61 53 52 53 49 40 38 41 47 53 56 58 70 71 63 81 69 49
30 31 29 30 37 35 36 31 33 35 43 45 53 72 92 82 72 70 79 80 87 85 77 83 83 80 74 61 49 48 44 46 50 47 52 67 99 100 92 71 65 57 49
34 34 30 33 28 31 32 39 40 31 41 51 72 73 80 100 97 91 79 92 94 95 98 94 91 87 82 78 64 56 58 69 61 63 87 97 86 82 67 64 65 54 49
32 34 31 31 26 25 30 33 42 42 41 55 83 99 100 96 98 97 98 91 94 94 97 96 99 91 86 77 76 75 75 66 74 99 82 74 81 71 76 74 67 55 50
22 23 22 20 16 19 24 36 44 47 52 50 60 83 100 100 100 100 100 100 100 95 100 100 100 100 100 92 98 92 84 92 97 98 87 93 99 90 78 78 59 56 54
20 19 19 17 19 23 30 33 38 48 49 56 62 63 63 92 100 100 100 100 100 100 100 100 100 100 100 100 100 100 100 100 100 100 100 100 97 80 70 72 67 63 54
25 20 20 21 22 22 24 27 31 34 40 46 53 59 63 55 78 100 100 100 100 97 100 100 100 100 100 100 100 100 100 100 100 100 96 76 72 66 62 70 75 61 57
19 15 16 15 15 12 12 14 17 23 23 24 30 35 35 41 48 82 100 100 100 100 100 96 89 100 96 100 99 100 100 100 100 98 69 58 63 62 56 70 79 72 63
13 12 11 10 13 15 12 10 12 16 14 14 15 13 14 16 20 38 69 93 85 100 98 100 100 100 100 100 100 100 100 91 81 72 68 64 58 59 69 95 86 77 77
13 12 12 10 11 10 12 19 21 14 14 15 17 15 13 17 23 23 25 36 70 78 92 84 97 99 100 100 94 93 78 65 57 61 63 62 57 67 76 98 93 100 100
14 17 14 14 13 15 13 14 18 23 19 17 16 19 22 21 20 19 20 22 25 30 33 60 56 73 80 81 77 72 63 52 47 50 68 68 78 77 61 97 97 100 100
16 18 17 18 15 13 15 18 20 18 18 18 17 21 20 29 24 21 24 29 30 35 49 49 62 68 58 53 54 57 55 40 46 51 52 70 93 97 99 100 100 100 100
23 20 20 20 20 17 15 14 20 22 22 19 18 18 16 20 19 19 21 25 25 24 22 23 24 24 25 25 28 30 30 34 66 67 68 93 100 100 100 100 100 100 93
34 27 25 24 23 23 25 22 19 21 23 24 22 19 19 17 16 20 19 19 21 21 22 22 21 27 31 28 19 20 21 28 44 66 83 100 100 100 98 96 91 79 76
54 49 32 31 29 27 29 30 30 23 24 23 22 26 37 36 26 24 22 23 20 19 20 22 21 28 30 19 15 24 20 21 22 40 60 67 64 66 81 83 80 67 44
87 64 38 33 37 30 31 28 24 23 24 25 26 22 24 34 33 35 31 24 23 19 19 19 22 30 21 18 25 32 28 25 32 44 57 69 77 70 64 52 38 36 43
96 92 67 54 48 37 42 36 32 31 30 29 24 22 21 31 31 43 45 34 24 21 23 28 32 35 27 21 20 26 25 23 20 24 40 51 47 36 32 39 43 45 46
95 100 96 77 49 46 40 52 33 32 30 29 32 32 32 35 48 36 35 40 45 36 34 48 45 40 38 28 22 19 22 22 22 22 31 37 39 32 38 41 40 38 37
74 97 100 94 80 55 67 59 45 48 38 33 32 31 32 28 25 32 42 45 46 38 38 55 52 50 52 48 35 31 25 20 19 21 24 38 40 34 32 32 33 33 33
50 62 89 100 100 100 96 88 65 50 47 43 34 29 32 30 27 26 28 32 42 53 56 73 75 76 68 62 54 49 40 28 22 24 29 29 40 41 38 35 33 33 31
58 50 65 85 74 85 96 99 88 50 61 56 44 35 37 34 30 28 28 33 37 44 60 65 75 82 72 68 68 64 54 46 31 29 30 38 44 48 42 43 44 46 46

GFSSE_250_rhum_015.txt.gz
RH
30 24 30 28 27 24 18 19 16 15 17 22 25 24 22 23 26 31 26 24 25 26 25 34 42 40 39 40 38 35 35 38 34 33 33 36 36 32 34 36 34 39 44
28 27 25 23 27 26 20 22 23 21 19 15 19 21 21 22 20 24 36 38 34 34 32 32 29 26 25 23 27 39 42 41 35 30 29 32 40 46 43 55 48 47 40
29 28 29 29 23 21 20 24 24 29 28 23 22 26 25 24 24 22 22 24 33 48 44 40 39 39 36 33 33 32 32 34 35 38 34 31 35 36 46 41 37 37 37
34 33 31 28 28 25 25 24 23 24 27 24 23 28 29 33 46 35 27 21 29 34 39 50 52 50 54 53 50 45 41 37 40 42 46 44 39 37 37 38 42 45 68
34 33 33 31 28 26 25 24 25 24 22 22 23 24 26 32 39 40 50 55 35 30 53 44 54 58 65 68 75 65 62 55 48 46 51 46 39 39 42 42 51 59 100
37 36 35 36 34 29 26 24 25 24 23 21 22 22 27 42 42 43 51 63 70 73 48 60 64 73 82 88 77 64 60 70 68 61 50 54 54 61 67 68 89 100 74
42 41 41 38 35 32 31 29 25 23 21 21 24 31 32 31 38 52 50 68 77 81 78 82 73 84 88 86 87 89 89 74 67 69 59 47 51 65 64 98 83 58 59
41 38 42 45 43 36 33 34 30 28 25 26 26 26 27 35 40 44 64 74 97 98 97 91 85 86 85 91 100 98 98 95 85 69 57 64 52 78 99 71 70 76 86
39 35 32 32 32 35 32 33 33 34 30 31 29 27 28 34 37 60 67 83 87 97 100 100 92 82 79 81 71 89 97 100 99 92 90 83 94 100 80 94 91 100 97
34 34 31 32 37 38 32 29 28 27 27 23 21 22 34 42 49 52 78 100 100 100 100 100 100 99 96 100 100 100 100 100 100 100 90 100 100 95 79 100 100 98 77
37 32 30 32 31 30 27 26 23 22 22 20 19 22 36 48 58 54 54 63 76 98 100 100 100 100 100 100 100 96 97 100 100 100 99 100 96 100 100 100 100 84 70
31 38 36 32 39 33 27 23 21 22 20 20 19 22 26 32 38 46 54 58 58 71 77 88 100 100 100 100 100 97 100 100 100 99 90 81 100 100 100 97 68 57 61
48 45 36 35 35 33 33 30 23 20 17 15 15 18 16 18 20 26 34 47 48 53 55 60 60 69 98 100 91 100 100 98 100 99 100 100 100 100 91 72 57 53 50
43 42 44 40 36 32 28 25 18 14 12 10 11 11 13 14 16 17 18 19 20 22 28 35 43 72 70 90 91 100 99 94 84 91 100 99 93 81 77 54 50 47 61
44 40 35 35 31 22 19 16 14 12 12 11 11 17 15 13 14 14 13 14 14 12 13 17 21 23 50 40 62 86 77 79 82 75 77 74 76 62 51 42 46 58 62
38 33 31 27 25 25 19 15 15 16 12 10 11 13 16 18 16 14 14 14 16 19 19 17 17 19 21 23 25 28 33 41 51 58 56 51 43 41 42 39 35 45 60
34 34 35 32 23 20 16 20 18 23 17 14 19 22 24 24 23 21 20 16 14 19 24 24 20 19 22 27 28 28 31 35 33 28 26 31 30 31 38 52 77 87 93
39 41 38 32 28 23 21 23 32 21 36 28 24 23 25 29 28 25 22 20 19 19 20 23 22 19 21 23 24 22 21 21 22 28 29 25 24 23 30 41 62 91 100
45 47 44 45 43 31 32 26 34 42 45 31 32 34 28 23 25 26 24 21 20 19 17 20 21 21 22 20 24 23 22 21 30 30 19 23 24 21 21 28 50 70 81
62 57 53 54 48 41 42 46 48 33 37 42 41 40 40 31 26 27 28 31 25 22 19 19 18 20 20 21 23 22 22 20 31 32 18 30 34 26 24 28 40 62 74
66 54 63 56 80 100 88 52 41 40 38 37 42 40 40 42 36 30 28 30 31 32 37 41 30 28 31 36 30 22 20 21 32 24 21 29 33 24 18 20 26 37 43
96 79 71 66 55 72 69 64 66 66 62 50 71 69 57 38 36 34 31 26 21 22 32 35 40 43 41 36 31 26 20 27 36 37 29 22 26 26 25 21 21 26 36
89 91 86 69 67 57 61 72 75 71 72 72 65 61 59 47 36 35 37 31 29 27 25 32 38 47 61 61 50 40 36 47 53 43 40 35 28 35 27 24 23 26 27
90 98 88 79 64 62 54 62 94 79 64 61 74 88 72 64 58 54 46 35 34 35 30 28 35 45 48 59 65 51 38 56 70 60 57 51 46 42 38 33 28 30 36
85 80 78 65 63 55 58 57 77 81 100 84 72 85 60 56 63 56 48 37 35 31 30 31 27 27 31 33 40 48 44 46 73 68 83 69 67 68 59 52 38 33 32
83 80 81 83 70 67 59 62 65 66 94 92 70 67 65 64 61 61 53 40 35 34 32 29 27 27 29 34 38 49 72 82 82 76 84 83 84 80 70 60 55 44 34

GFSSE_250_rhum_018.txt.gz
RH
30 26 24 26 24 22 19 15 13 16 20 18 18 18 23 26 24 23 24 26 29 29 31 30 29 27 26 27 30 32 30 28 25 26 28 29 29 26 25 23 27 29 29
28 29 32 34 31 28 21 18 17 16 15 16 15 16 17 20 23 23 22 23 23 26 32 35 37 39 40 38 34 34 32 32 33 32 32 34 31 29 33 32 29 34 35
23 26 29 29 26 25 27 30 30 26 23 21 17 16 16 15 16 16 15 18 20 21 21 24 35 41 46 50 51 52 55 56 54 50 49 44 41 40 40 38 41 39 35
28 26 30 31 28 25 25 26 26 26 26 26 25 22 20 24 23 20 24 24 26 32 36 27 24 26 29 36 45 42 56 59 58 64 65 61 62 58 50 45 45 44 46
44 38 32 32 30 30 30 30 28 26 24 22 22 21 23 24 24 26 30 30 34 39 38 41 46 42 32 37 43 52 48 61 76 70 72 64 53 52 49 52 51 48 50
35 36 40 35 31 32 32 30 27 26 24 23 22 22 23 21 19 20 24 31 39 38 44 58 52 56 61 52 47 45 55 71 72 71 67 61 72 55 58 57 47 50 54
43 40 40 42 38 35 34 33 30 29 29 27 24 26 25 24 24 25 25 26 33 45 58 62 63 64 80 72 71 63 57 54 50 76 85 91 86 72 73 64 49 61 71
47 46 44 42 42 40 40 37 36 36 37 33 31 30 31 30 30 29 28 32 30 36 44 51 73 75 74 81 92 98 93 72 70 64 68 81 88 96 99 89 76 93 98
32 32 38 41 38 40 39 39 38 38 37 32 32 33 32 31 31 32 31 27 29 32 37 57 59 67 96 96 88 92 100 100 99 100 97 93 94 100 95 97 92 99 100
35 43 43 52 43 43 48 46 43 40 35 32 33 34 30 26 25 24 22 23 25 24 32 37 46 61 81 81 100 100 100 100 100 99 91 97 92 81 63 78 78 90 87
46 48 53 59 55 60 53 46 37 33 33 35 31 28 26 23 20 19 20 20 19 20 26 40 51 56 56 75 78 97 100 100 100 100 100 100 100 99 87 70 97 81 78
41 41 49 55 59 62 49 39 38 36 32 32 34 31 26 20 20 20 20 18 17 17 18 26 35 41 56 55 60 69 69 84 93 94 86 89 100 99 100 100 95 100 100
35 44 46 51 57 59 58 52 42 38 43 30 25 27 26 25 23 22 17 15 13 13 15 20 22 27 32 36 46 51 53 60 61 97 98 88 100 96 100 100 84 75 60
47 53 38 37 55 54 52 51 44 39 35 30 27 30 27 27 23 17 14 12 11 11 13 15 18 19 18 17 18 18 20 28 29 43 60 59 74 81 52 76 64 66 53
58 49 45 42 41 38 38 37 36 34 33 32 29 26 24 18 15 13 12 11 12 12 12 13 15 15 16 17 16 15 17 18 18 18 20 24 24 27 32 36 52 51 52
53 48 45 46 44 39 39 34 34 34 31 30 27 25 22 18 15 13 11 10 13 13 14 15 13 12 13 16 18 20 21 20 18 19 23 26 27 27 32 32 27 25 27
53 43 43 39 54 62 46 34 31 30 34 36 33 30 26 21 22 19 14 16 18 16 13 16 20 20 17 16 15 17 21 23 21 19 20 23 22 21 21 25 32 27 28
53 48 36 36 43 48 62 52 40 41 42 39 44 31 35 31 27 32 30 24 22 19 19 24 23 22 21 21 22 21 21 20 23 20 22 22 21 20 21 30 30 21 27
58 51 41 37 44 45 54 52 48 74 56 46 39 47 51 57 47 42 41 33 30 29 24 22 22 22 23 24 26 25 22 21 24 23 22 22 22 22 20 27 36 23 33
67 60 55 51 53 49 56 74 66 70 69 92 96 83 50 37 39 46 42 43 43 41 35 27 24 26 26 25 28 28 28 27 25 26 26 26 27 24 22 24 32 23 32
73 70 74 72 62 59 59 60 70 64 68 73 77 74 54 44 43 51 58 51 40 37 37 35 31 28 26 23 26 31 39 45 47 41 41 45 42 31 26 31 39 34 26
84 80 73 78 75 66 66 62 56 70 81 74 57 66 69 90 93 93 80 60 52 46 37 35 34 32 30 26 21 20 25 35 44 50 52 49 42 35 34 38 44 44 39
100 100 96 81 76 74 81 71 72 66 85 100 93 89 93 82 92 72 55 65 66 54 45 39 36 40 42 35 32 31 33 40 45 48 54 64 63 59 54 54 61 59 54
100 100 100 98 100 86 82 94 99 80 61 70 68 61 70 78 97 100 83 68 76 63 52 39 35 34 30 30 31 32 30 28 29 44 59 75 85 77 61 49 74 82 74
98 99 98 96 97 91 80 78 85 99 83 70 82 86 80 97 100 100 80 70 73 71 55 51 46 36 33 35 33 33 33 31 33 32 36 40 47 58 69 70 67 84 90
76 80 80 80 84 85 82 78 77 86 100 85 86 79 78 70 71 89 93 80 76 77 70 63 57 40 42 43 36 34 33 32 32 33 33 35 42 42 44 58 77 90 98

GFSSE_250_rhum_021.txt.gz
RH
16 14 18 19 17 15 20 22 20 20 18 18 19 19 24 20 19 22 25 25 24 24 25 28 30 32 33 34 36 33 33 33 33 31 32 34 32 34 35 32 30 28 29
20 17 20 24 24 22 25 27 22 21 20 17 16 15 16 17 18 17 17 20 22 24 23 23 23 26 25 28 28 32 36 43 46 43 45 47 50 50 51 50 52 50 48
24 24 25 22 23 26 31 29 27 24 20 16 16 18 18 19 18 14 15 15 14 14 14 16 17 18 19 20 20 21 20 22 24 36 43 37 38 41 43 61 51 46 54
25 23 26 29 24 24 26 28 30 29 27 24 23 23 23 22 20 19 18 17 19 20 18 20 20 21 23 28 29 27 26 27 25 30 38 33 36 40 44 49 40 42 54
35 33 28 27 25 25 25 25 25 26 26 27 27 26 24 24 21 21 21 21 20 19 19 22 24 26 29 33 33 36 43 34 36 34 33 38 44 43 56 58 52 52 62
49 41 38 41 36 31 30 29 32 31 30 30 30 29 27 25 25 25 26 27 28 28 27 27 31 35 39 43 42 44 47 45 40 50 56 55 56 51 47 47 55 74 76
56 50 46 45 44 40 38 34 33 34 35 35 35 34 32 30 30 30 28 28 29 29 29 30 29 32 37 39 40 47 54 51 71 78 74 69 66 80 79 70 80 89 88
74 64 56 53 49 43 42 43 42 40 38 40 37 36 33 34 36 35 30 28 30 32 33 31 29 26 26 28 31 42 40 46 71 75 87 83 88 92 98 94 92 92 100
92 86 74 64 52 44 44 41 38 40 38 35 33 33 37 39 39 36 28 28 34 32 26 25 23 21 21 22 24 35 34 45 50 56 86 83 85 100 92 99 93 80 84
79 65 60 52 39 34 33 30 30 32 41 38 38 40 40 42 30 26 27 28 27 26 25 23 20 20 20 20 19 20 25 36 46 55 66 81 96 100 99 99 100 99 99
63 56 54 48 35 34 40 48 42 46 44 42 44 39 33 30 28 29 26 25 26 28 24 19 21 22 21 18 18 18 18 24 39 44 47 63 68 74 65 63 81 85 87
72 52 45 40 36 28 36 45 38 38 45 42 35 30 39 35 34 32 26 28 26 25 24 23 21 22 21 16 15 14 15 19 23 26 35 37 42 50 60 62 56 59 75
67 69 55 41 36 28 30 38 48 41 43 41 43 35 32 38 36 32 30 31 30 28 26 23 21 19 17 15 13 12 12 13 16 20 25 23 21 23 20 19 19 20 25
59 61 58 51 45 37 34 34 38 49 48 37 41 43 37 40 34 31 28 27 25 24 24 23 18 16 14 13 11 11 11 12 14 15 16 16 15 16 18 16 16 17 20
61 57 53 51 55 66 62 59 57 52 49 46 42 39 36 33 31 30 27 25 25 25 24 23 19 15 12 10 14 15 15 13 13 12 15 18 19 20 21 18 18 23 25
64 72 72 78 75 67 67 64 58 53 47 45 44 43 39 34 30 27 26 26 25 24 23 20 18 15 12 12 12 12 14 18 18 17 16 15 16 20 24 25 21 21 22
92 86 84 77 77 79 73 70 63 54 53 52 46 42 41 40 35 33 32 32 31 30 30 23 21 18 14 17 20 18 17 17 17 17 18 18 20 21 22 24 25 23 23
84 92 87 79 74 72 66 62 65 66 62 57 52 55 55 51 45 42 35 36 40 35 33 30 25 21 23 22 22 22 23 23 21 19 20 19 20 22 23 23 27 27 24
72 71 85 86 76 72 65 57 58 64 61 66 75 78 66 67 61 58 57 49 45 43 41 38 32 31 29 25 25 26 26 23 23 23 24 22 21 22 22 26 29 30 28
92 76 68 78 87 77 64 56 54 60 72 59 63 88 96 99 87 80 83 80 56 44 44 40 48 43 36 32 33 34 33 31 25 25 26 25 26 28 34 42 51 49 50
100 94 79 66 88 89 82 72 64 72 59 63 59 49 76 83 79 76 67 55 69 73 70 76 67 56 49 50 44 38 34 32 32 30 28 27 25 26 31 35 41 48 53
100 100 93 89 85 96 92 82 80 82 87 83 67 72 80 93 90 91 96 90 87 89 93 86 66 53 52 52 50 45 38 36 36 34 32 33 36 35 32 33 41 48 54
100 100 98 92 87 95 99 88 76 79 97 100 86 78 62 68 82 87 99 88 91 90 75 65 63 64 65 55 48 39 33 32 33 32 30 31 32 35 33 30 28 32 42
97 94 87 90 90 92 92 100 100 100 86 84 78 72 72 59 85 99 99 100 86 80 86 84 74 76 63 57 51 51 42 38 34 39 36 34 33 34 34 36 42 44 39
100 100 100 100 95 92 93 91 92 94 90 85 89 80 82 82 83 80 100 100 100 98 89 81 80 69 71 73 68 58 48 52 44 46 48 50 50 46 43 41 40 39 40
96 94 93 95 98 100 100 100 100 98 97 86 90 85 98 95 95 92 100 100 100 99 87 81 75 74 72 76 83 71 55 62 51 57 58 59 54 46 45 42 38 40 47

GFSSE_250_rhum_024.txt.gz
RH
42 43 42 32 28 26 26 22 20 21 24 19 19 21 21 23 23 26 22 19 19 23 25 25 25 25 25 24 24 26 29 29 26 25 29 30 31 28 27 28 32 34 36
30 28 24 21 23 21 22 19 17 22 29 28 23 22 21 18 17 16 17 18 17 19 21 17 18 22 21 17 17 17 18 20 19 19 19 18 20 22 24 24 26 24 26
24 24 23 20 17 16 21 24 25 25 26 25 24 23 21 19 18 20 21 22 22 20 17 17 17 17 17 17 18 21 23 23 22 23 25 25 25 22 23 25 28 30 40
30 26 24 22 18 17 18 21 20 20 22 26 24 21 19 18 20 22 24 24 21 21 20 20 20 20 21 21 22 26 27 28 30 30 29 25 24 27 30 36 38 41 48
42 44 46 38 27 23 27 33 31 29 27 25 24 23 24 26 27 28 27 27 24 22 22 21 21 23 24 25 26 24 24 24 24 23 22 25 28 34 34 38 45 52 51
53 52 53 54 50 41 31 29 35 39 37 34 32 30 31 30 31 31 30 29 28 29 29 29 29 28 28 27 26 26 24 22 21 19 18 21 25 34 34 45 60 53 54
59 57 57 59 57 53 49 43 44 45 40 38 39 38 35 37 38 35 35 32 28 27 28 29 26 23 23 26 28 23 22 20 20 20 20 18 19 22 28 44 59 63 70
62 65 63 64 65 63 59 53 51 49 47 43 40 40 42 41 40 39 37 32 31 31 32 29 26 22 21 25 25 23 23 22 21 23 20 19 19 18 19 24 49 42 72
76 72 72 74 72 72 75 70 66 60 53 46 40 38 35 32 36 38 37 37 39 36 32 25 22 21 21 21 25 27 25 23 20 21 21 19 18 16 16 21 35 57 76
93 96 99 100 96 97 91 80 64 56 51 40 33 28 26 29 32 35 34 34 27 24 20 20 22 24 24 27 28 27 25 24 20 18 18 17 17 15 16 20 30 46 54
93 87 82 85 84 86 74 66 56 52 44 33 33 34 33 31 32 31 28 24 22 24 26 26 30 29 27 25 25 23 22 23 20 19 18 16 14 14 12 14 19 24 36
73 82 91 94 88 85 74 63 54 48 44 38 29 27 31 31 34 31 29 24 26 27 26 26 25 26 26 24 22 22 20 21 21 20 17 15 12 10 11 14 17 19 19
53 51 59 59 56 65 73 73 68 54 46 40 38 33 33 34 32 33 31 30 30 32 29 26 27 26 22 23 22 21 21 20 22 19 16 13 12 12 12 14 14 16 16
42 41 39 36 35 36 36 39 59 62 56 51 46 46 50 51 49 44 43 40 35 31 28 27 26 25 24 22 21 23 21 21 20 16 14 11 12 13 13 12 12 16 18
43 39 46 40 38 38 35 31 33 40 45 48 57 57 52 50 49 46 44 42 41 38 34 30 27 24 24 27 26 25 25 21 20 17 14 12 12 12 14 16 17 16 17
67 65 45 42 46 44 41 40 42 55 63 65 65 63 61 56 60 55 51 47 42 33 32 32 29 30 30 31 32 31 30 25 23 20 15 16 19 18 18 20 22 20 20
64 59 57 41 54 79 70 67 73 75 86 76 78 74 68 67 64 61 54 48 46 44 40 42 38 41 37 36 36 34 32 30 30 25 23 21 19 22 22 19 19 22 22
71 73 67 68 59 76 78 80 83 82 85 80 80 82 79 74 71 66 60 66 69 72 64 62 62 62 58 48 42 37 34 31 29 29 29 29 28 28 28 26 22 23 24
95 91 89 81 70 74 85 77 76 74 73 81 79 84 88 70 71 70 67 58 43 53 70 74 67 64 54 49 52 52 50 46 41 39 38 36 33 30 28 27 27 26 25
100 100 100 100 97 90 95 92 88 82 81 82 74 80 87 78 75 72 59 53 44 42 65 72 72 76 72 70 76 66 55 52 50 47 43 40 35 30 29 29 29 29 27
100 100 100 100 100 99 100 97 94 99 93 86 79 71 74 77 75 78 64 49 47 57 61 69 82 88 79 69 60 61 52 58 58 55 50 48 47 40 30 28 28 28 29
100 100 100 100 98 95 100 100 100 93 100 100 100 97 83 79 75 70 83 77 62 56 61 62 74 79 78 64 59 52 56 64 66 57 47 48 46 45 38 37 36 36 34
100 100 100 100 100 100 100 100 100 100 100 100 92 100 94 79 78 79 96 94 82 81 76 76 82 78 68 67 74 75 64 66 65 62 64 55 59 51 47 41 43 48 45
96 100 100 100 100 88 87 88 94 89 86 84 81 73 72 71 80 81 76 83 92 99 94 96 80 90 77 66 71 77 79 80 74 76 77 72 70 60 58 54 45 46 54
91 95 100 100 100 98 90 87 85 98 100 100 95 93 95 96 100 97 77 99 99 100 86 98 100 97 100 93 88 81 79 85 86 83 74 69 77 66 66 59 53 57 63
92 98 100 100 100 100 100 100 100 98 100 100 100 100 100 98 99 100 100 96 96 100 100 100 100 100 100 100 96 96 88 83 81 83 77 82 74 84 81 63 62 67 75

GFSSE_250_rhum_027.txt.gz
RH
46 48 50 48 56 44 36 32 30 30 27 24 24 26 22 23 24 24 22 22 20 21 19 18 17 16 20 22 22 22 22 19 19 18 19 21 22 23 22 22 22 22 22
49 50 48 45 51 52 38 29 27 27 24 22 21 25 28 24 23 22 21 20 21 22 23 21 21 21 18 17 18 18 19 19 18 20 23 24 24 25 25 23 20 21 22
32 30 33 35 36 31 28 26 25 21 21 20 19 25 28 29 32 31 27 24 23 23 26 25 24 22 20 20 19 18 18 19 21 22 22 25 25 24 20 18 18 19 23
22 22 23 24 26 28 26 23 20 19 19 21 22 23 24 25 26 28 26 25 24 25 27 28 28 25 22 21 20 19 20 20 19 20 21 22 22 19 18 18 18 19 20
25 24 26 25 23 21 22 23 21 20 20 20 20 22 22 22 24 25 26 25 26 29 30 28 28 29 28 27 27 29 25 24 24 26 26 22 20 19 17 19 19 18 18
44 38 36 38 38 37 34 41 47 42 38 34 34 34 33 33 31 30 28 29 29 30 31 33 32 30 28 27 27 27 25 22 21 22 23 22 21 23 20 19 19 20 20
48 49 49 48 50 53 52 48 50 52 49 48 46 42 39 36 39 39 37 35 36 39 38 35 34 30 29 29 30 25 20 20 18 19 18 22 22 22 21 20 20 19 19
50 50 52 55 54 57 58 53 53 58 55 51 50 49 50 49 46 44 43 38 35 35 33 33 32 30 32 30 27 21 18 19 21 20 21 22 22 19 20 21 20 19 17
52 52 54 57 59 59 60 63 64 62 68 65 63 65 59 52 51 46 41 37 29 24 22 22 28 30 26 22 23 21 22 23 22 24 22 22 19 19 18 18 19 19 17
58 55 57 61 65 70 70 80 81 82 81 83 86 78 64 57 50 43 35 30 27 25 26 28 30 28 25 22 24 25 21 22 23 24 21 21 20 18 18 18 18 17 17
75 70 68 72 79 86 93 93 86 79 83 76 78 71 63 53 49 43 38 32 27 27 27 27 27 25 24 26 26 25 25 24 23 22 21 20 19 18 18 19 19 18 15
87 95 93 94 94 92 95 96 98 82 78 78 77 71 64 57 46 41 39 38 36 35 35 34 29 30 28 30 27 29 30 28 26 25 21 21 22 22 22 21 19 16 12
95 94 95 96 89 84 80 72 70 69 62 54 48 52 57 56 55 55 49 46 41 37 30 27 31 31 33 33 27 28 26 24 23 22 22 26 28 26 24 20 19 15 14
81 77 76 70 64 57 46 41 42 39 34 32 32 31 31 30 32 35 32 33 33 32 32 34 34 33 33 33 31 29 27 27 26 29 32 33 32 30 27 23 20 17 17
65 64 59 53 50 46 39 36 35 32 32 31 32 31 30 31 32 38 40 42 44 44 44 44 43 44 40 39 34 30 29 32 36 39 39 35 34 34 30 27 24 22 23
67 61 52 47 43 42 44 41 39 36 34 32 33 35 37 36 42 48 50 57 64 70 66 53 51 45 43 36 32 32 37 39 44 44 42 39 36 34 30 29 28 28 28
60 56 54 51 50 48 45 44 42 42 49 43 43 48 44 43 51 60 70 76 82 79 74 64 54 49 46 39 34 40 51 49 46 43 43 44 44 42 40 37 37 37 35
66 63 69 69 74 68 67 66 62 54 59 72 69 65 67 77 87 96 94 97 93 82 75 59 51 51 46 37 38 54 66 66 58 59 61 56 50 43 43 40 39 37 34
84 78 83 86 79 77 69 70 69 67 66 78 92 97 98 96 97 93 100 100 94 80 68 66 64 52 47 46 53 56 63 62 54 53 50 47 48 51 50 43 38 38 35
99 100 98 88 90 81 80 70 75 81 87 92 82 98 96 96 94 91 91 92 91 90 76 71 71 65 54 50 53 56 56 55 67 60 51 53 50 51 48 47 44 43 39
100 100 100 100 100 93 89 94 100 100 96 97 88 86 90 98 98 93 83 83 81 76 79 75 78 69 61 70 57 59 62 58 76 73 58 53 51 57 60 58 55 51 46
100 100 100 100 100 100 100 100 100 100 100 100 100 96 93 92 85 85 91 99 91 90 92 89 79 78 68 82 84 68 61 68 56 69 62 69 66 68 66 70 68 56 54
100 100 100 100 100 100 100 100 100 100 100 100 100 100 100 96 86 86 86 87 88 86 90 78 77 78 80 75 84 79 83 75 71 75 82 75 85 84 70 75 72 68 73
96 98 98 98 100 100 100 100 100 100 100 100 100 99 94 91 90 90 95 98 95 96 100 88 98 100 88 89 84 81 100 97 93 87 85 100 98 93 90 81 74 71 75
81 89 95 98 100 100 100 93 80 77 88 94 99 100 92 100 100 100 100 98 100 100 100 100 100 100 92 97 100 100 100 100 93 99 100 80 90 97 96 87 76 70 78
84 78 90 95 97 93 91 88 81 76 80 95 100 100 100 100 100 100 100 100 100 100 100 100 100 100 100 100 100 100 100 100 100 100 100 100 100 100 96 74 77 72 78

GFSSE_250_rhum_030.txt.gz
RH
33 34 41 46 58 61 45 28 26 26 29 31 30 29 27 25 26 22 22 24 24 23 20 19 18 19 20 19 20 20 20 20 19 20 20 21 20 19 20 22 23 24 24
38 43 44 49 57 57 58 58 43 37 33 30 30 26 24 21 25 27 28 27 25 22 20 21 20 20 21 24 25 25 22 19 19 18 17 18 20 21 23 24 24 24 21
40 38 37 37 48 50 51 58 55 45 33 28 26 26 24 25 25 28 27 25 24 25 25 23 22 23 25 27 26 25 26 24 22 22 20 19 19 21 22 25 24 20 20
36 36 38 39 42 47 45 42 38 33 29 25 24 22 22 22 23 22 23 22 22 23 23 24 26 26 28 29 29 29 28 28 27 25 24 23 23 21 20 21 20 18 16
26 25 26 28 26 28 30 32 32 31 27 24 23 21 21 20 20 23 24 24 25 26 27 30 30 30 32 33 33 31 31 29 28 27 27 26 22 20 18 17 15 18 20
23 23 22 22 22 21 20 21 22 23 23 23 26 28 29 34 38 37 35 38 37 38 40 39 38 36 33 33 33 33 32 29 29 30 29 24 19 19 18 18 21 23 23
28 31 35 39 40 36 32 28 30 35 44 49 50 51 51 50 48 47 46 46 46 46 44 40 39 37 34 32 26 22 26 31 28 23 22 22 21 21 22 22 23 21 21
42 43 43 46 48 48 48 48 48 49 51 54 55 54 54 58 61 59 53 51 52 48 44 43 40 37 31 26 22 23 28 29 26 24 22 22 21 21 23 24 24 21 19
40 43 43 46 49 49 50 50 52 54 56 57 58 59 59 67 70 70 66 61 61 58 51 46 38 32 29 27 26 27 27 25 25 24 23 22 22 25 26 24 24 23 19
43 43 45 47 50 51 51 50 50 52 55 56 62 64 70 63 67 71 71 70 68 60 50 45 41 38 30 30 30 31 32 30 27 25 24 23 27 26 24 22 22 21 21
44 46 49 53 55 58 59 54 51 53 54 58 60 58 60 62 63 61 56 63 65 57 52 45 41 40 42 43 40 36 25 22 22 22 23 28 28 25 24 22 22 25 26
68 72 76 78 82 78 78 71 67 67 65 67 66 62 72 74 80 78 64 55 50 47 45 48 52 50 40 34 28 25 25 24 25 28 34 31 28 24 23 24 29 31 31
100 100 98 88 90 90 91 93 88 93 97 92 90 84 68 60 52 42 35 32 32 30 28 27 28 27 29 30 30 26 30 30 36 37 33 28 24 26 32 34 37 34 33
96 96 97 100 100 100 100 100 99 95 87 75 57 40 34 33 30 29 27 27 25 23 23 24 28 31 31 35 35 37 40 43 38 38 32 27 30 36 40 40 39 39 36
80 79 79 76 72 71 74 80 75 66 56 49 43 39 38 34 34 31 27 26 27 28 32 35 38 38 39 44 49 50 47 45 40 37 33 29 34 45 44 41 43 44 42
58 57 50 52 58 58 54 56 55 51 48 45 43 39 36 37 37 34 36 42 41 40 42 43 47 53 56 62 62 55 51 47 44 36 35 34 39 50 52 45 41 41 42
69 70 65 48 46 53 54 52 51 50 48 49 47 45 50 51 51 50 47 50 52 58 69 69 66 62 65 64 67 66 57 53 45 42 44 43 42 40 50 51 46 43 42
69 76 80 86 84 75 64 54 52 50 51 56 56 58 57 54 60 65 61 71 72 86 81 77 73 74 79 84 81 80 69 58 54 51 50 45 47 45 46 57 52 47 45
80 78 75 70 69 73 73 69 65 67 72 75 71 63 59 62 61 64 77 81 100 95 88 91 87 83 86 89 88 80 73 67 60 57 53 50 47 47 52 51 55 53 50
90 76 70 76 65 64 67 67 70 66 75 81 85 88 76 74 80 85 98 100 89 95 90 95 98 95 93 95 87 83 72 79 78 65 70 61 64 58 59 65 64 62 62
99 86 80 73 66 67 66 66 72 79 76 76 93 99 100 100 96 100 98 90 100 99 91 96 97 100 96 97 98 84 92 77 75 74 75 65 60 64 72 83 73 66 71
100 100 97 92 100 100 100 98 99 100 97 100 90 90 100 99 95 92 90 99 100 100 90 86 78 72 77 80 82 90 93 99 90 88 91 73 76 84 93 90 97 75 75
80 88 92 100 100 100 100 100 100 100 94 77 81 82 83 89 91 98 100 100 99 97 92 89 85 83 86 88 100 97 100 100 100 99 100 100 96 98 96 100 89 95 79
86 98 100 100 100 100 100 92 83 88 94 95 86 78 81 84 91 96 97 99 99 99 99 98 94 92 88 87 92 100 100 100 98 100 100 100 100 100 100 100 100 100 100
85 85 65 75 95 90 88 83 86 90 82 81 89 93 94 95 91 99 100 100 100 100 100 100 100 100 100 100 100 100 100 100 100 100 100 100 100 100 100 100 100 100 100
67 58 61 67 73 86 83 93 82 75 78 79 94 100 100 100 100 100 100 100 100 100 100 100 100 100 100 100 100 100 100 100 100 100 100 100 100 100 100 100 100 100 100

GFSSE_250_rhum_033.txt.gz
RH
20 23 34 32 29 29 28 30 32 29 26 25 23 24 29 30 30 28 24 22 22 22 22 22 22 22 22 22 21 20 21 24 26 25 24 23 21 19 18 18 19 20 21
22 26 29 29 28 31 34 36 42 31 25 24 27 28 30 30 28 26 22 19 17 19 22 22 21 21 20 20 20 20 21 23 25 26 26 26 25 25 24 23 23 22 22
30 29 33 34 36 38 39 42 49 52 50 37 34 35 31 28 26 25 23 21 18 18 18 20 20 20 22 21 22 24 25 27 28 30 30 30 29 28 27 26 26 25 22
33 29 30 37 44 48 48 49 49 48 53 54 49 45 35 28 25 23 19 17 17 20 20 23 23 24 27 30 32 37 37 34 32 31 31 31 30 29 29 30 29 24 19
32 27 25 31 39 44 45 40 38 38 38 40 37 33 30 27 25 25 25 27 30 37 40 39 40 36 36 36 38 37 39 37 33 32 26 21 26 30 28 24 22 21 20
27 24 23 26 30 34 36 38 33 26 25 26 26 25 25 26 28 31 36 39 46 49 48 46 44 45 46 45 45 42 38 36 32 27 22 22 27 30 27 24 24 23 22
29 24 24 25 24 24 24 22 23 23 23 22 21 23 26 36 43 48 50 51 54 57 58 59 58 53 46 47 47 43 36 33 30 28 27 28 28 29 28 28 27 24 24
31 25 25 25 24 24 26 30 38 41 41 45 46 46 48 50 53 54 58 58 56 55 59 62 62 54 48 54 51 42 39 37 33 30 29 30 33 32 27 22 21 20 23
39 30 27 28 29 32 35 41 44 48 49 50 50 50 50 53 53 54 52 54 57 58 55 58 60 52 54 57 53 49 44 39 38 40 41 39 31 23 21 23 24 25 25
48 43 37 38 39 42 43 43 44 45 47 47 48 48 45 45 47 49 50 53 52 57 58 54 56 59 60 58 55 49 46 47 49 42 32 27 23 22 26 26 30 30 27
48 61 55 49 47 44 44 42 43 44 47 50 53 56 59 52 52 52 55 55 54 59 66 64 57 46 40 36 31 28 27 27 25 28 27 24 26 29 32 32 29 27 22
47 54 59 59 55 52 46 40 42 44 47 54 64 65 64 62 62 64 74 73 78 64 55 43 34 30 27 26 24 24 23 23 25 25 26 29 33 33 36 33 27 24 24
39 46 48 49 49 45 42 40 52 64 70 63 66 69 81 91 98 97 87 76 55 40 34 30 30 28 27 27 26 27 27 26 28 35 35 36 34 41 43 35 31 27 30
42 38 40 46 43 43 56 81 71 83 87 100 100 100 100 95 87 69 61 54 40 37 34 34 33 35 33 35 36 39 40 42 44 42 40 44 47 47 40 42 35 37 33
64 54 51 49 48 68 90 92 98 88 90 84 76 72 67 66 62 52 44 40 39 39 36 38 37 34 37 40 41 40 47 52 54 54 50 56 57 53 48 46 39 39 35
100 100 100 98 99 99 98 88 75 64 62 59 58 55 48 45 46 41 40 43 40 44 44 43 39 39 38 39 47 53 56 60 71 68 69 65 61 53 54 53 45 44 37
94 96 100 97 93 83 76 68 62 62 57 51 45 46 47 48 49 50 51 48 49 49 51 52 50 47 46 46 56 66 74 94 89 76 72 70 64 62 62 55 46 48 52
38 38 44 52 49 43 48 51 55 69 68 64 64 68 70 67 63 61 59 64 56 57 56 55 60 68 68 80 83 85 84 90 86 79 78 72 75 72 67 61 55 53 48
44 43 48 53 53 55 72 73 74 73 73 67 66 59 60 65 64 65 64 65 64 61 64 65 66 79 90 96 100 99 100 100 95 96 94 83 80 71 72 76 65 63 63
88 76 63 70 68 75 85 92 76 66 68 70 61 59 62 64 67 66 69 67 69 81 70 62 72 79 98 100 94 97 93 98 98 85 82 79 79 85 83 94 78 80 79
94 89 85 79 76 82 95 100 86 70 64 61 57 62 60 66 66 66 86 96 80 81 93 83 71 79 97 96 100 90 91 96 92 82 90 97 96 95 100 97 94 92 90
91 97 100 100 99 87 81 77 75 67 63 59 57 59 59 78 83 78 81 69 73 76 92 92 85 100 99 98 95 91 92 90 92 82 86 93 100 99 100 100 100 100 100
100 100 100 100 84 77 70 72 64 65 56 63 56 48 56 58 66 71 85 95 94 94 92 97 96 99 95 99 93 96 92 96 97 98 100 100 100 100 100 100 100 100 100
100 100 100 98 76 80 69 65 79 72 63 64 74 60 60 77 69 64 79 99 90 73 79 88 95 100 98 92 99 100 100 100 100 100 100 100 100 100 100 100 100 100 100
100 100 87 88 71 81 87 81 89 72 67 67 52 74 74 66 82 77 71 74 74 88 100 100 100 100 100 100 100 100 100 100 100 100 100 100 100 100 100 100 100 100 100
86 79 71 77 81 98 80 81 70 62 58 50 52 51 53 62 75 89 89 70 77 84 96 100 97 97 100 100 100 100 100 100 100 100 100 100 100 100 100 100 100 100 100

GFSSE_250_rhum_036.txt.gz
RH
28 29 29 29 26 22 22 23 24 29 32 31 28 26 23 22 24 28 28 28 27 22 18 16 16 17 17 17 16 16 17 18 19 20 23 26 29 29 30 31 31 30 29
22 23 21 20 20 20 23 26 28 30 32 31 28 25 24 24 25 28 30 28 26 25 23 21 18 16 17 18 22 22 22 24 27 29 30 35 34 33 32 31 27 26 28
22 25 23 21 20 22 25 25 28 32 39 42 35 29 26 28 30 34 31 28 27 24 20 18 16 20 29 35 38 39 38 38 38 37 38 37 38 37 33 27 23 24 28
22 23 23 22 23 26 28 31 34 36 39 43 48 48 49 46 42 42 34 25 22 22 22 22 26 36 47 49 48 47 43 41 42 40 41 36 34 33 29 26 22 25 29
24 25 28 30 30 29 27 28 31 33 37 37 38 35 32 36 35 33 30 28 26 24 30 42 48 50 55 57 56 52 47 44 40 46 44 41 35 32 30 30 29 29 28
27 25 28 32 36 34 33 31 33 31 32 33 28 26 26 24 23 21 19 20 27 40 46 50 52 54 54 51 45 43 39 42 39 41 48 44 39 37 34 31 32 36 36
26 24 28 32 37 40 39 36 33 33 31 28 27 25 27 29 31 38 43 45 47 51 54 55 55 52 50 48 40 40 43 42 44 51 51 47 42 41 41 43 42 36 27
29 26 31 34 31 31 35 36 31 28 27 26 29 36 43 46 48 49 49 50 49 48 48 50 49 45 45 40 42 43 48 51 48 49 42 33 31 32 34 30 27 27 24
32 34 42 39 38 31 27 27 26 26 26 29 38 44 46 47 49 49 48 45 45 46 45 43 44 46 47 49 52 59 55 44 36 29 26 24 24 23 23 26 25 26 32
36 34 45 53 47 34 30 26 27 29 36 40 43 44 45 45 45 44 44 50 54 49 47 48 51 55 60 70 58 46 35 30 26 23 22 22 23 22 28 26 29 36 32
33 37 41 38 41 48 39 36 38 39 40 42 43 45 44 43 42 44 49 52 52 48 46 58 69 78 72 59 47 40 31 27 26 26 27 29 33 30 31 34 34 36 38
33 37 39 44 45 42 47 55 49 48 52 53 49 46 44 41 45 61 54 54 64 67 86 90 84 73 60 44 37 33 30 30 30 32 32 30 32 35 34 37 42 39 42
40 37 38 37 39 42 46 49 60 61 61 58 52 47 41 51 62 67 72 89 92 86 87 74 64 51 37 35 34 34 33 36 37 36 37 35 38 38 41 47 49 44 43
45 41 37 38 38 39 38 44 49 51 50 50 46 41 43 63 89 83 86 81 68 60 52 45 38 34 36 37 38 40 37 35 37 38 39 41 44 52 70 63 56 55 55
52 47 43 42 46 44 39 38 40 41 42 44 49 50 75 96 93 81 72 62 53 48 40 36 40 46 45 44 43 40 42 39 41 49 52 63 73 72 83 74 65 61 56
72 72 66 69 73 68 60 64 61 57 55 57 74 94 99 89 73 63 50 52 50 45 49 52 51 51 52 52 48 48 51 53 51 72 76 90 84 90 79 79 69 68 58
99 99 100 100 100 100 99 95 92 88 99 100 100 80 73 61 57 62 62 62 65 60 54 50 51 51 52 58 58 53 61 72 72 76 92 77 88 88 93 88 91 78 70
100 100 100 100 100 100 100 100 96 81 71 62 56 51 51 52 61 67 69 63 55 48 48 44 46 48 49 67 81 75 68 82 89 82 91 100 90 83 99 100 98 92 86
88 86 87 88 86 82 72 61 54 50 45 43 46 55 69 79 67 65 60 56 55 49 44 44 50 76 100 100 100 90 81 93 87 88 98 92 100 92 99 84 93 95 95
86 73 65 64 61 68 68 81 86 69 56 57 70 81 82 94 86 59 56 54 54 52 48 44 53 72 72 74 88 88 92 98 96 97 100 100 96 100 95 76 95 98 96
89 83 75 78 75 69 64 71 80 74 78 82 100 90 79 76 69 66 60 54 48 46 45 41 40 59 67 74 87 90 91 90 97 99 96 96 90 80 100 93 98 99 100
93 88 88 71 66 60 64 66 72 90 85 91 81 67 66 65 59 54 65 61 49 49 57 52 64 71 68 61 71 76 73 66 80 81 87 94 94 97 91 100 100 100 100
93 87 90 92 92 100 97 90 89 87 98 97 72 63 57 49 45 41 40 46 55 60 56 56 52 54 54 67 76 78 67 90 100 100 100 100 100 100 100 100 100 100 100
100 100 100 100 100 88 90 100 97 96 90 91 78 64 56 46 40 36 36 39 44 52 51 56 63 82 67 80 81 100 100 100 100 100 100 100 100 100 100 100 100 100 100
100 100 100 100 100 98 99 84 88 82 77 73 65 57 54 50 43 45 44 40 36 42 56 61 67 100 99 100 100 100 100 100 99 99 100 99 100 100 100 100 100 100 100
100 100 100 100 100 93 98 98 89 71 70 69 65 54 46 41 45 50 48 42 46 50 70 89 98 100 100 98 86 68 64 65 66 79 92 100 94 96 100 100 100 100 100

GFSSE_250_rhum_039.txt.gz
RH
47 49 46 42 52 62 55 48 41 25 24 26 32 32 30 29 26 22 23 26 27 30 28 26 25 23 21 20 16 15 21 26 29 31 30 29 30 32 33 32 29 29 30
34 38 38 38 42 41 36 26 24 28 26 27 30 30 28 26 24 24 26 27 30 31 28 26 24 20 18 17 18 20 26 33 34 36 32 35 34 30 32 30 33 31 29
26 28 30 28 26 23 24 26 27 27 29 30 31 36 36 33 30 28 29 31 36 39 33 26 24 22 22 29 34 39 40 40 40 36 32 33 36 36 34 38 38 37 36
22 22 22 21 20 22 24 26 28 28 29 31 33 35 38 40 39 39 39 41 38 31 25 22 21 28 44 46 45 45 46 45 47 42 37 33 37 39 40 44 41 38 36
21 21 21 22 22 23 25 28 29 31 33 34 34 34 33 32 30 26 27 29 26 23 23 33 45 48 48 49 49 48 47 41 42 39 35 35 40 40 40 37 36 32 32
24 24 24 23 24 26 27 29 29 28 30 31 30 30 29 28 28 26 27 31 31 41 48 48 50 48 46 44 43 44 42 36 36 36 40 42 43 40 34 27 25 25 23
27 29 28 27 27 28 29 29 30 28 29 28 28 30 32 31 28 28 39 45 48 47 48 48 46 43 40 36 35 34 36 35 33 43 46 44 39 32 26 24 22 21 23
30 35 31 29 29 29 31 32 30 31 33 30 30 30 30 29 30 34 43 45 45 46 46 44 39 42 40 34 34 35 34 40 54 56 51 40 33 28 26 25 24 26 28
31 38 37 34 35 35 36 35 32 28 28 29 29 29 28 28 31 39 44 45 45 43 41 39 43 42 43 40 47 56 64 64 59 52 40 34 30 28 29 28 28 28 30
30 33 35 34 33 36 42 43 41 39 35 28 27 27 30 32 38 43 44 44 44 43 41 40 42 43 46 69 85 85 79 64 51 34 30 28 29 30 37 35 32 30 33
34 33 35 38 36 38 46 59 58 53 43 33 32 34 37 39 42 43 47 45 46 45 40 41 53 60 79 81 71 57 46 39 32 28 32 36 38 36 37 36 35 38 43
38 38 39 40 42 42 41 41 43 42 44 49 52 49 52 56 60 61 60 55 45 41 39 51 69 76 75 62 54 39 30 28 28 32 38 42 42 39 37 38 40 42 52
48 41 40 42 44 49 46 42 42 47 48 47 48 49 52 56 57 56 51 50 50 43 50 73 84 66 52 40 34 32 38 41 41 40 42 41 42 43 42 44 44 52 68
68 62 53 44 40 46 43 42 42 43 48 45 46 44 43 45 46 46 45 49 52 68 87 83 72 55 44 44 46 46 46 44 44 41 42 50 47 50 61 72 70 62 74
54 53 52 54 50 46 47 45 49 50 48 45 42 41 42 44 52 56 64 74 88 90 85 71 50 48 52 51 50 49 43 39 40 40 47 57 70 63 63 80 76 68 94
55 55 56 56 56 55 55 57 58 56 53 52 61 68 72 75 82 96 98 95 84 76 63 54 47 57 51 53 49 45 41 40 44 64 92 96 93 74 96 97 90 89 100
65 65 64 67 64 66 67 67 72 76 74 74 86 100 100 100 99 90 77 69 64 61 55 50 52 53 51 49 49 45 40 41 46 89 86 78 84 97 99 100 100 100 100
70 69 69 67 73 82 83 81 82 88 100 100 100 100 95 87 81 73 70 63 57 56 61 65 64 58 52 51 46 44 44 49 44 58 80 87 87 82 93 100 98 100 100
95 100 100 100 100 100 100 100 100 100 100 100 97 91 84 75 71 70 70 75 75 68 68 62 62 64 55 45 40 42 48 52 43 57 86 92 90 97 96 82 97 99 100
100 100 100 100 100 100 100 100 96 95 90 87 82 76 74 76 79 76 81 81 81 80 71 61 55 49 50 44 42 42 44 43 46 50 54 69 82 99 89 75 87 89 90
100 100 100 100 100 100 92 90 100 100 100 91 80 76 73 65 68 84 91 94 85 78 62 59 53 49 46 45 46 43 47 43 52 50 64 64 84 83 90 90 100 93 99
100 100 100 100 100 100 100 100 100 90 91 84 75 72 84 96 100 92 93 72 71 66 60 58 53 48 42 41 40 41 42 52 73 81 100 100 100 100 100 100 100 100 100
100 100 100 100 99 99 98 99 100 97 100 99 93 84 73 57 56 68 65 61 56 53 47 45 44 41 37 40 44 48 55 68 80 93 100 100 100 100 100 100 100 100 100
100 100 100 100 100 100 100 100 100 90 80 97 100 100 90 73 61 48 45 46 45 43 41 42 40 40 47 60 74 83 78 93 98 100 100 100 100 100 100 100 100 100 100
100 100 100 100 100 100 100 99 92 90 93 95 85 92 96 96 67 56 44 46 47 44 46 39 39 42 61 89 100 100 99 90 68 67 71 81 71 90 90 89 87 100 100
100 100 100 100 100 100 100 99 95 90 91 96 90 87 89 96 66 52 51 50 49 43 38 37 45 70 98 100 87 68 57 59 48 38 41 50 52 54 66 72 94 92 100

GFSSE_250_rhum_042.txt.gz
RH
40 44 48 48 47 43 73 78 58 51 50 50 32 28 33 33 31 29 28 23 24 25 28 30 30 31 26 22 20 18 21 22 22 28 34 32 29 29 28 25 22 24 28
43 51 51 48 50 61 77 72 60 51 48 29 28 27 30 30 29 27 25 25 25 27 28 29 31 29 22 19 20 26 30 33 33 37 34 34 29 27 26 26 24 31 36
30 46 55 53 52 41 44 54 48 36 27 29 27 29 32 34 37 36 33 30 29 29 32 30 25 22 22 31 40 43 41 38 35 32 30 30 28 23 25 29 35 38 34
28 34 38 41 38 38 40 36 29 26 25 26 27 27 30 32 33 31 28 27 26 27 26 26 27 35 45 46 46 45 41 36 28 26 25 27 28 26 35 41 40 36 31
23 27 30 31 31 27 24 24 24 28 30 29 29 31 31 30 28 28 32 29 26 27 34 39 43 44 41 41 41 38 36 32 29 27 26 30 33 39 41 42 35 33 27
20 21 23 24 25 26 33 31 28 29 32 32 33 33 34 33 34 36 34 32 28 32 39 44 43 43 44 42 39 35 35 33 30 30 36 37 45 47 49 41 31 28 24
27 22 22 24 26 28 29 27 29 31 32 34 36 36 35 36 37 38 35 32 31 33 40 45 44 44 40 37 37 36 37 34 36 46 53 53 46 42 37 28 26 24 24
31 30 26 25 25 26 28 27 29 31 31 31 33 35 35 36 38 35 31 30 29 35 41 43 43 42 42 42 43 38 39 40 50 59 57 47 30 27 23 24 28 30 31
41 37 35 32 32 31 29 27 28 28 33 32 32 32 32 33 31 30 29 30 32 36 42 45 45 46 46 45 40 37 46 55 58 53 41 33 29 31 33 34 36 35 37
43 45 46 44 39 37 34 34 35 36 35 38 40 40 39 36 32 32 32 32 34 40 44 48 55 57 51 42 40 47 62 66 56 41 33 32 37 39 37 34 33 38 41
37 45 45 45 44 44 44 42 40 42 41 45 51 55 57 50 44 44 47 46 48 53 59 60 58 53 45 43 54 63 73 64 43 36 33 36 42 40 36 35 38 41 48
37 42 45 44 42 41 42 46 48 46 46 49 63 60 53 47 45 47 49 47 45 46 47 47 44 44 51 64 72 77 68 48 38 34 39 45 44 40 37 38 42 59 68
40 41 45 47 47 45 47 49 53 55 54 51 47 47 43 42 43 44 44 44 44 44 44 47 58 69 78 85 80 68 53 38 41 41 47 46 44 40 39 46 68 92 99
52 46 49 48 45 46 50 51 51 50 50 52 54 51 48 50 50 49 44 44 49 61 73 86 93 87 82 72 62 52 42 43 44 48 49 49 44 45 45 52 100 100 95
69 56 56 63 72 65 56 55 52 52 48 48 49 52 56 55 54 53 58 70 76 89 94 94 88 76 71 64 55 48 48 51 58 54 52 48 46 49 55 50 62 76 89
86 80 68 74 78 81 78 72 69 61 58 58 56 58 60 62 64 74 92 91 97 100 94 87 80 73 68 65 61 58 62 61 59 56 48 47 48 49 50 48 55 73 100
65 69 80 67 66 62 58 56 56 57 60 61 65 65 70 74 78 92 100 100 100 91 86 77 73 70 70 68 59 56 61 58 60 48 48 48 47 49 49 47 49 59 78
77 78 79 80 80 75 67 61 58 63 70 76 78 79 86 92 100 100 100 97 92 84 77 78 70 68 59 62 65 56 54 51 49 48 49 45 44 48 52 51 51 66 76
81 76 78 80 79 79 80 76 76 80 79 78 89 91 99 100 100 100 100 100 94 88 90 86 78 80 77 76 64 56 53 48 42 46 46 40 41 46 49 60 61 67 74
100 100 100 100 100 100 97 97 98 100 100 100 100 100 100 100 100 100 100 100 97 99 93 72 73 75 68 60 53 47 45 42 44 42 42 43 47 55 63 76 88 89 82
100 100 100 100 100 100 100 100 100 100 100 100 100 100 100 100 100 100 100 100 100 100 98 90 82 82 70 56 43 42 43 44 40 40 41 57 68 78 94 96 100 100 100
100 100 100 100 100 100 100 100 100 100 100 100 100 100 100 100 100 100 100 100 98 80 83 85 76 62 66 49 45 42 43 45 43 40 40 47 80 100 100 100 100 100 100
100 100 100 100 100 100 100 100 99 99 100 100 100 100 100 100 100 98 98 100 88 82 70 65 56 59 49 52 47 42 39 41 42 55 71 82 91 100 100 99 100 100 100
100 97 100 100 100 100 100 100 100 100 100 100 100 100 100 98 90 79 77 76 72 66 65 64 67 57 53 54 47 40 37 42 60 91 90 74 51 52 67 70 72 81 100
100 91 90 95 100 100 100 100 100 100 100 100 100 100 100 100 94 84 73 64 54 52 57 69 58 62 57 50 45 37 47 73 86 82 72 39 39 39 37 34 45 42 72
96 91 93 88 85 90 91 91 93 100 99 99 97 96 96 94 92 94 86 71 59 62 58 64 59 54 45 44 49 67 59 76 70 38 36 29 31 43 40 41 40 45 51

GFSSE_250_rhum_045.txt.gz
RH
42 43 46 49 62 71 64 53 38 38 63 63 58 51 45 31 26 30 31 29 27 24 24 27 30 29 24 21 18 21 27 30 28 29 29 26 24 20 20 22 24 24 25
24 25 29 40 56 78 66 51 44 69 80 69 58 50 36 29 30 30 29 27 26 27 30 28 22 21 22 24 29 30 31 32 31 29 28 29 26 22 21 27 31 38 38
24 26 33 35 44 62 54 50 62 85 72 63 53 40 30 30 30 31 33 34 31 28 22 22 24 28 33 33 32 32 33 33 30 29 30 30 27 24 30 37 39 31 27
24 28 42 51 52 50 48 58 62 66 59 51 36 30 29 27 25 27 30 28 24 23 24 26 29 34 38 38 39 36 34 32 32 34 36 32 28 29 38 42 38 28 24
24 24 29 43 55 54 56 49 43 47 45 33 25 24 26 28 31 30 27 25 27 29 30 29 30 34 41 44 41 39 35 34 36 36 36 35 32 39 40 34 30 28 26
25 23 26 32 42 46 43 39 38 33 25 24 26 29 31 33 31 30 29 30 31 32 31 30 31 34 40 42 41 39 39 39 41 38 38 37 41 46 40 30 28 30 36
30 25 24 28 32 33 34 33 28 25 26 27 28 31 32 33 32 32 32 31 31 32 30 30 30 34 38 41 44 44 44 49 44 41 43 42 53 47 34 30 30 32 37
29 31 27 23 24 26 27 26 26 27 26 28 31 32 31 31 31 30 29 28 29 29 29 30 33 35 38 44 47 49 53 47 45 48 53 60 54 36 32 31 36 43 43
31 33 33 29 25 24 23 23 24 25 28 29 29 31 32 31 28 29 31 33 33 33 32 35 43 46 49 51 48 43 41 42 53 60 68 57 43 36 35 40 45 45 42
40 38 35 38 32 30 27 27 29 31 29 29 30 31 37 40 44 44 44 49 48 46 48 54 54 53 46 42 41 41 47 58 63 70 58 48 41 41 44 45 49 44 42
38 45 43 42 42 40 40 40 38 39 39 36 38 40 41 43 49 60 65 57 55 49 46 45 43 42 40 40 49 66 65 71 74 60 54 47 46 48 49 46 46 45 45
41 42 46 47 51 51 52 51 50 47 46 45 46 46 44 42 47 54 52 47 44 41 41 41 44 48 55 73 68 79 84 73 62 57 48 48 48 50 57 58 53 49 48
46 46 48 51 53 52 52 55 53 48 43 43 47 44 41 40 43 47 48 44 40 39 42 46 46 58 76 76 89 85 80 66 61 57 54 65 70 66 57 57 50 47 49
45 50 55 60 60 59 57 57 54 51 49 48 50 48 52 52 50 49 47 42 44 51 55 58 73 86 83 94 87 81 69 63 64 66 58 61 55 53 50 46 43 48 47
60 57 58 56 54 57 59 59 58 55 52 53 52 51 52 57 60 57 56 56 56 59 67 81 89 91 97 87 80 73 72 73 66 61 58 55 54 43 42 44 46 45 47
78 68 61 56 56 59 59 60 66 66 72 73 69 79 76 69 60 57 59 65 71 75 85 90 100 100 92 86 79 68 68 67 68 62 60 63 48 43 42 47 44 44 43
90 80 68 58 58 64 71 72 74 71 74 89 86 74 63 64 62 63 71 74 76 92 100 100 100 96 91 88 81 73 74 76 70 65 65 56 55 49 43 43 45 44 47
86 89 89 75 71 65 69 86 95 95 96 86 71 71 69 71 72 79 84 90 100 100 100 98 100 92 87 78 65 74 70 65 66 72 67 63 53 50 44 36 39 46 47
72 71 74 68 68 63 60 63 70 73 72 75 78 79 83 87 92 100 100 100 100 100 100 100 99 91 85 75 75 65 60 58 68 70 67 57 53 47 43 38 42 50 54
82 78 79 84 78 70 67 68 70 76 79 84 94 99 100 100 100 100 100 100 100 100 100 96 97 93 83 83 80 73 67 66 69 66 59 54 46 45 44 45 54 69 89
100 100 96 88 86 85 83 90 100 100 100 100 100 100 100 100 100 100 100 100 100 100 100 100 96 89 93 81 76 70 77 74 69 62 56 46 45 49 55 65 70 81 82
100 100 100 100 100 100 100 100 100 100 100 100 100 100 100 100 100 100 100 100 100 100 99 91 89 84 85 77 75 73 82 75 67 58 50 42 42 56 63 67 70 71 61
100 100 100 100 100 100 100 100 100 100 100 100 100 100 100 100 100 100 100 100 96 96 98 95 84 83 82 81 75 84 73 74 66 52 44 41 44 49 50 52 41 42 42
100 100 100 100 100 100 94 100 100 100 100 100 100 100 100 100 100 100 96 100 97 90 92 86 84 84 75 79 83 77 69 63 51 41 42 44 52 53 43 35 38 35 38
100 100 100 100 100 100 100 100 100 100 100 100 100 100 98 96 92 100 95 88 88 81 80 85 93 85 84 84 77 75 66 50 39 32 32 36 45 25 22 24 27 32 37
100 100 100 100 100 100 100 100 100 100 100 100 100 100 100 100 100 96 91 84 80 88 86 85 79 83 78 78 74 62 49 41 30 36 25 24 19 21 26 35 39 38 47

GFSSE_250_rhum_048.txt.gz
RH
51 42 44 66 60 54 45 54 61 59 58 51 38 42 52 53 49 38 29 27 28 26 25 24 26 26 20 21 26 30 30 29 28 27 27 28 28 28 29 25 25 28 32
36 33 35 62 68 67 57 58 60 62 56 47 38 56 62 57 48 35 30 29 29 28 30 30 25 21 24 27 32 30 34 34 32 34 30 31 32 29 28 28 32 38 33
34 37 35 46 48 46 57 63 67 64 57 45 59 77 65 58 43 32 31 31 30 30 28 26 24 26 27 29 33 35 36 36 34 35 33 35 35 38 39 39 44 39 31
33 30 25 25 26 29 40 66 74 71 56 65 79 73 59 47 34 32 31 26 27 27 26 28 29 28 27 28 32 34 37 36 38 37 34 37 36 39 43 49 46 34 33
30 28 25 24 28 38 39 48 70 60 57 68 72 59 47 34 29 28 27 29 29 27 27 30 30 28 29 30 30 34 36 38 40 37 38 35 38 46 54 54 44 34 34
28 28 29 25 29 46 53 55 54 51 59 58 54 47 35 26 26 28 30 30 28 27 30 32 30 29 29 30 33 35 37 43 44 39 37 41 51 60 62 50 39 34 31
30 30 33 26 25 32 47 56 54 56 48 42 40 31 28 28 28 30 30 27 28 29 29 28 28 30 31 34 38 46 48 47 38 36 37 48 52 67 57 42 36 35 35
34 32 33 29 24 28 36 45 48 46 40 37 30 26 25 25 27 28 27 28 28 29 31 33 37 39 40 47 47 43 39 35 35 43 50 51 68 60 49 37 37 38 39
40 36 33 34 26 25 30 35 36 36 34 31 28 25 25 29 30 29 32 31 32 38 41 46 49 52 50 44 40 36 34 38 47 53 58 64 65 54 44 38 42 43 43
41 39 36 32 32 29 24 27 30 31 27 28 26 27 30 32 32 30 31 35 41 47 56 57 52 45 38 35 36 38 48 51 55 66 72 70 59 51 46 48 52 52 49
40 40 40 35 31 36 31 27 28 28 29 30 30 32 33 35 36 40 44 48 48 50 52 43 36 36 37 39 47 52 56 60 78 78 72 64 59 52 54 56 54 55 57
33 49 48 43 38 39 40 37 32 32 32 34 40 44 41 42 45 44 45 47 44 41 39 41 45 48 52 54 55 62 76 84 86 76 70 62 59 59 63 63 56 59 60
56 50 53 50 45 42 44 44 43 44 47 51 54 52 50 46 45 46 46 43 43 47 55 56 54 54 52 55 55 75 86 91 85 76 66 66 62 62 61 59 56 62 57
47 62 56 54 52 50 48 49 50 51 50 53 54 55 52 50 52 51 50 47 57 67 62 56 55 56 62 60 73 96 96 89 86 76 69 67 67 62 56 53 64 64 58
53 68 68 63 60 58 57 55 51 52 54 54 55 55 56 55 56 60 63 80 80 67 60 60 65 70 66 81 93 98 99 86 78 74 70 71 63 58 57 58 68 64 58
74 61 67 72 65 64 64 62 60 62 65 58 57 59 61 69 78 89 95 91 71 67 71 74 75 74 93 97 100 95 84 82 80 74 64 65 60 59 66 71 70 62 54
84 80 86 86 78 71 64 62 59 60 58 59 60 67 80 84 75 92 96 81 73 79 89 87 96 100 93 100 93 90 88 76 76 70 72 66 64 71 76 73 64 56 47
94 80 67 62 73 77 71 68 65 64 62 66 74 84 96 99 100 92 75 78 91 100 98 99 98 100 98 91 82 70 67 81 75 76 77 75 71 73 69 65 58 49 45
92 82 71 67 60 67 74 75 73 77 78 73 78 76 81 82 76 79 91 96 99 94 93 100 100 96 95 82 72 77 80 76 74 78 74 75 76 72 65 56 49 48 45
97 87 84 78 75 75 74 76 78 84 96 93 86 84 82 86 98 100 99 89 94 100 100 100 100 95 89 84 77 84 82 84 86 84 77 82 80 69 64 52 50 47 46
100 100 100 96 96 97 94 91 92 97 92 93 90 94 99 100 100 99 99 100 100 100 100 96 86 89 90 80 87 90 88 82 87 81 84 80 74 65 55 50 49 46 51
100 100 100 100 100 100 100 96 88 92 98 99 100 100 100 100 100 100 100 98 92 90 86 85 93 100 94 96 93 89 78 86 86 90 89 80 70 56 52 48 48 41 47
100 100 100 100 100 100 100 100 100 100 100 99 95 96 100 100 100 100 94 94 98 100 100 100 100 100 100 100 89 82 90 91 97 97 87 70 56 52 51 46 54 55 38
100 100 100 100 100 100 100 100 100 100 100 100 100 100 100 100 100 100 100 100 100 100 100 100 100 100 89 87 93 98 93 87 82 80 73 61 53 50 56 60 60 25 21
100 100 100 100 100 100 100 100 100 100 100 100 100 100 100 100 100 100 100 100 100 100 100 92 85 91 94 97 100 100 100 88 81 74 64 49 44 42 48 67 30 23 30
100 100 100 100 100 100 100 100 100 100 100 100 100 100 100 100 100 100 100 99 99 94 92 96 96 98 100 100 100 98 89 77 75 61 50 36 32 48 57 30 24 32 32

GFSSE_250_rhum_051.txt.gz
RH
79 78 67 61 58 46 44 47 46 37 37 55 60 55 51 38 37 46 49 44 35 29 29 26 26 28 32 22 23 25 30 29 30 34 31 32 31 29 29 33 40 42 50
74 72 66 62 56 54 64 54 48 44 46 59 60 58 54 40 50 58 56 43 34 29 29 32 33 32 24 22 24 27 28 30 33 33 31 34 31 33 34 38 41 49 53
88 82 63 50 42 42 65 75 67 53 47 58 60 58 53 55 71 59 55 40 32 29 31 28 27 27 26 27 28 28 29 30 32 33 35 38 37 32 35 40 42 58 50
76 77 58 38 38 39 51 59 63 64 66 61 63 61 64 69 77 59 48 34 31 30 28 28 27 26 28 29 28 29 29 31 33 37 40 37 32 34 40 40 51 56 44
97 72 43 34 32 33 36 32 32 45 76 79 74 65 81 83 67 51 38 32 29 29 29 31 28 28 28 28 28 29 32 34 37 40 35 31 34 40 36 49 61 54 43
83 65 35 32 30 26 25 26 31 35 68 85 77 68 75 70 59 43 31 29 32 31 33 30 26 26 28 28 30 33 38 41 39 34 33 37 39 36 46 62 58 49 41
76 62 34 30 30 28 25 27 44 42 52 76 66 61 59 58 46 37 32 30 32 33 30 28 26 29 33 33 34 39 44 38 31 34 39 37 35 41 52 58 49 46 42
72 57 39 30 28 31 26 26 37 55 58 61 58 58 47 45 38 32 30 30 32 33 33 33 33 37 39 45 47 42 36 31 34 40 37 34 41 48 59 56 49 49 47
64 53 39 32 26 31 31 25 28 41 58 58 57 48 44 38 33 30 31 33 35 35 37 37 39 44 47 50 36 32 33 39 41 40 35 43 49 65 64 59 55 52 53
56 48 38 30 27 30 34 28 26 33 42 46 45 41 40 36 30 32 33 34 36 36 39 41 42 43 38 35 37 42 46 45 47 40 39 54 62 61 62 62 59 60 62
51 39 38 33 31 30 37 34 30 27 32 35 37 38 36 34 37 34 38 46 49 44 45 43 41 39 39 41 47 49 48 49 50 52 59 61 61 64 63 60 63 68 65
51 43 50 45 33 35 40 37 35 32 28 31 35 32 30 32 34 42 52 50 48 45 44 43 43 44 55 60 54 54 54 53 57 75 62 61 67 63 61 67 66 68 68
89 64 50 52 39 35 40 40 39 36 35 30 29 30 33 37 42 53 55 50 48 49 47 47 50 74 67 62 60 67 61 59 64 63 58 65 69 70 68 69 69 70 66
100 77 62 52 47 37 44 45 46 44 42 43 41 40 39 45 50 52 50 47 49 53 56 62 87 83 73 67 66 66 64 81 69 64 72 72 75 68 74 77 74 69 61
100 100 87 74 64 60 54 52 46 49 49 47 46 46 46 49 51 53 51 51 53 56 68 86 92 83 73 77 68 75 91 78 70 71 79 81 76 79 80 77 68 63 71
100 100 95 74 81 76 73 62 55 48 50 52 51 50 50 54 62 57 55 54 63 72 92 99 86 82 88 76 77 91 86 87 82 85 87 86 78 76 80 70 69 72 76
100 98 100 93 85 94 80 78 64 58 51 51 53 55 56 60 61 54 64 72 91 100 100 89 87 95 85 80 92 90 91 86 86 94 91 76 81 81 76 72 76 79 78
100 97 100 100 89 94 90 82 77 67 56 54 56 58 60 63 63 64 69 83 92 99 97 94 98 95 86 83 93 82 84 84 85 86 78 85 87 80 74 78 76 77 68
100 100 90 99 100 100 92 78 80 84 77 74 69 67 69 72 73 82 86 83 92 95 98 100 99 94 91 90 85 75 82 80 93 84 83 88 81 79 78 79 80 66 60
100 100 82 82 75 85 96 89 88 92 82 80 78 80 84 86 92 97 90 97 92 99 100 99 92 92 93 86 81 85 91 94 84 89 95 88 93 83 78 77 70 63 56
100 100 100 93 88 78 95 100 96 92 92 94 95 98 98 97 92 100 100 100 100 100 100 99 92 87 88 77 94 100 96 85 94 90 95 100 89 86 80 79 65 58 52
100 100 100 100 100 91 78 98 100 95 93 97 100 98 94 100 100 100 100 100 100 100 97 96 90 93 93 100 89 84 97 100 92 97 100 96 81 85 84 66 60 52 46
100 100 100 100 100 100 96 100 100 100 100 100 100 100 100 100 100 100 100 99 99 100 100 100 100 100 100 100 97 95 97 99 100 100 99 92 85 82 68 62 52 44 40
100 100 100 100 100 100 100 99 100 100 100 100 100 100 100 100 98 92 90 99 100 100 100 100 100 100 100 100 100 95 97 99 100 100 100 99 83 76 66 54 43 46 42
100 100 100 100 100 100 100 100 100 100 100 100 100 96 88 86 95 100 100 100 100 100 100 100 100 100 100 96 100 100 100 99 94 85 88 76 77 63 50 39 46 50 45
100 100 100 100 100 100 100 100 100 100 100 100 100 100 100 100 100 100 100 100 100 100 100 100 100 100 100 100 100 100 100 97 95 81 81 64 56 43 42 38 48 49 31

GFSSE_250_rhum_054.txt.gz
RH
59 65 65 66 62 56 48 42 38 34 31 31 29 28 34 55 52 47 39 43 47 46 38 33 30 29 30 28 26 21 23 26 26 28 29 31 33 32 31 29 32 33 30
60 70 76 82 77 71 59 49 39 35 33 33 34 31 43 59 61 52 42 51 52 50 39 32 29 30 33 30 24 24 26 28 28 28 31 33 36 33 29 33 30 31 36
62 70 75 83 79 73 60 53 43 42 44 43 41 40 46 59 59 54 48 58 56 49 37 32 30 30 27 25 25 28 29 28 28 31 38 40 34 31 33 30 27 29 36
57 66 89 95 98 77 63 50 41 45 61 61 57 49 54 61 59 63 62 70 58 46 35 34 32 30 29 27 29 28 28 28 30 37 42 36 30 32 31 27 24 31 40
55 64 100 100 95 71 49 39 37 42 56 59 67 68 73 67 64 78 79 68 54 40 34 33 33 31 30 28 27 28 30 30 34 39 38 32 32 33 30 23 25 32 35
57 64 98 100 90 61 38 34 35 40 39 31 40 72 90 78 71 77 79 64 48 38 35 34 34 33 31 27 28 30 33 40 44 36 32 33 34 30 27 23 28 36 38
62 64 100 100 88 51 33 30 27 26 26 31 33 58 97 83 73 72 64 57 44 39 35 35 34 35 32 30 32 35 44 46 36 36 36 38 38 33 27 27 32 40 43
58 72 83 92 83 45 32 31 29 26 26 41 44 45 87 81 65 58 58 47 44 39 35 35 36 35 36 32 36 39 42 38 40 41 44 40 39 30 26 30 36 42 44
74 64 62 77 64 41 31 31 32 29 26 33 53 55 61 66 60 53 50 45 39 38 36 36 35 36 39 37 38 40 39 42 45 45 44 43 36 28 32 43 50 53 59
79 71 69 66 48 41 30 29 33 34 27 27 43 60 62 61 58 51 47 40 37 38 38 39 37 38 39 41 42 40 44 46 50 49 48 41 33 32 40 56 65 67 68
90 85 83 70 58 50 33 28 33 35 34 26 31 45 53 54 50 49 43 40 37 36 37 41 47 47 47 44 42 48 55 59 56 54 48 41 39 42 51 59 74 75 74
98 98 99 87 75 64 40 32 30 34 35 32 28 31 40 42 43 41 40 36 35 41 48 54 54 52 49 51 52 58 69 63 61 55 46 41 45 51 56 63 80 78 83
100 100 100 100 91 70 43 35 30 32 36 39 37 30 31 36 38 38 35 35 39 47 51 54 49 48 53 51 61 72 70 64 59 55 46 51 54 65 64 78 85 89 91
100 100 96 100 92 82 63 42 36 40 36 41 40 41 37 34 33 34 37 41 45 50 54 52 55 58 57 63 80 80 76 69 64 57 55 61 70 65 71 83 90 98 93
100 92 91 97 97 98 84 68 44 42 45 37 45 46 48 45 44 47 48 50 53 58 58 57 60 62 82 95 86 81 80 70 66 75 76 71 63 68 81 100 96 92 80
100 100 100 76 96 100 100 86 83 54 48 50 43 43 45 50 53 54 50 52 58 61 60 59 66 66 86 78 83 81 81 74 75 80 74 66 71 75 95 95 96 80 66
100 100 100 100 89 95 100 100 86 76 56 51 51 48 47 48 48 49 52 56 62 62 62 62 65 75 81 84 88 88 85 91 84 72 66 73 70 92 96 89 78 68 67
100 100 100 100 91 85 76 100 100 94 73 60 53 57 56 54 52 55 56 57 61 65 68 72 81 83 81 87 88 96 92 90 81 72 72 69 86 95 94 79 66 74 68
100 100 100 100 100 85 88 99 98 94 81 69 70 66 71 69 67 61 61 63 70 74 77 90 90 95 94 98 100 98 93 82 84 83 81 92 99 91 72 66 74 72 70
100 100 100 100 100 100 90 84 91 94 90 85 85 80 77 82 86 82 75 73 77 88 96 100 99 100 100 100 100 98 87 92 95 99 100 97 89 71 76 75 81 73 71
100 98 100 100 100 100 87 74 67 81 73 75 86 89 92 93 95 92 94 91 96 99 99 100 100 100 100 100 99 100 100 100 100 100 100 89 80 85 87 84 78 73 64
100 92 100 100 100 100 100 100 95 95 95 77 84 95 96 94 96 98 99 100 100 100 100 100 100 100 100 99 97 100 100 100 100 98 88 92 93 99 91 83 76 70 58
100 97 100 100 100 100 100 100 100 99 98 88 80 92 100 100 100 100 100 100 100 100 100 100 100 100 93 100 96 99 96 100 100 100 100 100 97 92 81 76 71 61 46
94 99 97 100 100 100 100 100 100 100 100 100 98 100 100 100 100 100 100 100 100 100 100 96 85 89 100 100 100 100 100 100 100 100 100 96 95 83 79 73 64 48 35
100 98 100 100 100 100 100 100 100 100 100 100 100 100 100 100 100 100 100 100 100 100 97 91 100 100 100 100 100 100 100 100 100 100 96 93 94 80 80 63 50 37 29
100 100 100 100 100 100 100 100 100 100 100 100 100 100 100 100 100 100 100 100 100 99 100 100 100 100 100 100 100 100 100 100 100 85 93 86 90 82 62 53 38 26 28

GFSSE_250_rhum_057.txt.gz
RH
38 47 52 62 63 47 47 50 45 39 35 35 32 30 30 29 30 40 54 50 44 43 52 51 43 36 32 30 28 32 29 22 22 26 28 29 34 37 35 30 29 28 22
40 40 45 51 64 59 54 54 50 40 35 35 32 31 33 35 31 48 64 58 52 49 55 52 44 37 32 29 32 32 26 24 26 27 28 30 34 34 33 30 29 28 24
50 50 51 55 63 65 61 62 57 46 42 35 34 32 36 40 37 55 65 64 58 54 61 54 47 37 33 32 30 29 26 24 26 28 28 33 36 33 29 31 31 28 21
54 56 55 59 67 64 66 62 62 54 48 43 40 38 44 47 45 53 63 66 68 65 65 57 47 36 34 34 31 31 26 25 27 30 37 41 35 31 31 32 34 26 22
50 52 55 58 66 62 68 78 78 68 51 45 35 40 56 68 65 61 67 73 76 78 67 58 43 37 35 33 33 31 28 26 30 40 43 39 35 30 32 33 33 25 24
43 49 50 57 60 55 86 93 75 61 42 37 32 41 46 53 77 82 73 78 81 80 69 54 42 36 34 33 33 34 29 32 37 38 39 38 35 31 37 37 32 27 30
41 46 55 61 63 53 55 73 79 54 36 32 33 31 27 29 47 97 88 82 76 75 65 52 43 35 36 33 33 32 35 35 36 40 39 40 40 38 43 39 31 30 35
56 50 55 59 69 63 88 99 84 51 32 28 26 26 31 40 36 88 96 83 71 63 58 48 42 38 38 32 34 36 37 36 38 38 41 41 48 42 44 39 32 37 40
99 71 56 55 62 66 87 95 73 47 32 29 28 26 31 48 43 56 89 80 65 57 55 48 40 40 36 39 40 39 42 41 39 43 44 49 55 43 46 37 36 41 43
100 93 66 64 57 60 75 77 69 48 32 29 31 28 27 45 58 54 63 65 61 54 50 41 41 36 38 44 43 49 48 47 47 48 48 57 50 48 42 36 42 49 46
100 100 90 81 78 71 63 79 67 47 33 28 30 33 27 30 53 62 64 62 60 54 48 40 39 37 39 43 50 52 48 47 50 57 59 59 56 48 40 40 42 43 47
97 100 100 96 90 78 74 75 67 50 35 28 28 34 31 28 33 47 51 54 51 50 47 41 36 36 41 49 53 52 52 48 53 63 57 56 51 44 45 44 44 44 50
100 100 100 100 99 91 85 84 68 54 40 33 28 32 36 33 32 33 38 40 44 43 44 38 36 41 52 56 53 54 51 57 63 62 52 48 50 51 53 49 49 49 59
97 100 99 96 98 91 80 82 82 74 54 40 32 28 35 38 37 40 41 45 47 48 40 40 48 51 55 54 58 54 54 54 55 56 56 55 55 56 54 50 51 60 72
98 100 100 100 100 100 100 97 91 87 72 58 40 35 30 37 39 42 44 44 43 44 46 51 53 57 58 61 60 58 56 58 62 59 63 63 66 61 56 54 63 72 95
95 100 100 97 100 100 100 100 100 98 92 76 60 48 36 34 39 42 42 46 52 54 54 53 55 56 58 60 61 64 68 68 70 76 73 72 68 66 62 64 83 100 94
96 100 96 100 99 100 100 100 100 100 100 94 77 55 49 50 45 43 45 50 50 52 53 54 57 56 57 68 71 71 84 78 89 84 85 82 73 69 77 97 100 90 88
100 100 94 99 94 99 100 100 100 100 100 99 92 85 74 61 61 57 52 55 59 58 57 59 60 65 76 75 78 87 92 94 95 94 90 83 86 98 100 96 83 76 83
100 100 100 100 94 96 100 100 100 100 100 94 93 82 89 83 75 66 60 54 57 62 66 70 74 82 82 83 88 97 97 100 100 98 97 88 96 93 77 83 71 86 90
100 100 100 100 100 95 100 100 99 95 92 92 76 64 73 80 89 82 78 73 68 71 72 79 87 90 89 94 100 100 100 100 97 97 89 86 80 82 84 83 91 95 79
100 100 100 100 100 100 100 100 95 98 91 81 72 64 65 70 75 93 86 88 90 85 83 94 97 94 99 100 100 99 100 98 94 94 80 84 89 92 99 98 94 87 83
100 100 100 100 100 100 100 100 100 91 92 80 67 71 70 76 86 84 78 85 96 100 100 100 100 100 100 91 100 92 100 97 88 92 92 93 100 100 100 91 92 85 65
100 100 100 100 100 100 100 100 100 100 100 98 88 97 90 89 81 82 86 81 90 100 100 98 100 100 97 100 95 92 87 91 98 100 100 100 100 100 92 92 77 69 63
100 100 100 100 100 100 100 100 100 100 100 92 100 100 100 99 87 83 83 96 99 100 100 100 100 100 100 100 100 100 99 100 100 100 100 100 99 98 90 81 74 66 57
100 100 100 100 100 100 100 100 100 100 100 100 100 100 99 96 100 100 100 100 100 100 100 100 100 100 100 100 100 100 100 100 100 100 100 100 99 89 83 79 67 58 55
100 100 100 100 100 100 100 100 100 100 100 100 100 100 100 100 100 100 100 100 100 100 100 100 100 100 100 100 100 100 100 100 100 100 100 100 100 94 76 68 57 53 43

GFSSE_250_rhum_060.txt.gz
RH
63 50 39 45 65 75 75 65 51 45 42 38 38 36 36 33 33 36 32 34 41 52 50 46 43 48 47 42 36 32 31 35 31 25 22 23 26 29 31 31 29 29 32
50 50 43 41 53 67 66 67 51 46 43 44 46 42 41 39 34 35 39 43 52 62 60 56 50 50 50 46 38 34 34 30 29 24 23 25 26 28 30 28 30 31 35
56 50 46 40 41 48 50 61 55 47 44 42 38 37 42 40 38 39 41 45 63 66 65 62 57 60 56 48 38 35 34 30 29 25 24 25 27 25 27 29 31 32 36
58 51 47 43 39 40 47 60 56 49 44 46 43 42 39 42 43 48 47 50 59 68 68 72 68 66 60 49 39 36 32 30 30 29 24 24 28 29 29 32 30 31 37
64 48 42 43 47 43 46 58 60 53 51 52 54 46 42 39 44 58 65 65 67 67 78 80 81 70 60 48 40 35 32 30 30 30 26 27 29 30 30 32 32 35 42
72 54 46 46 48 51 52 51 55 55 72 76 56 46 35 33 37 53 58 75 88 76 79 90 84 73 62 51 42 35 34 33 29 29 28 29 31 31 30 32 40 39 43
96 76 56 50 50 54 50 48 47 49 56 58 56 47 32 31 30 28 29 40 96 90 85 85 78 71 62 51 42 38 37 32 32 29 28 29 32 32 37 37 46 46 42
92 97 72 52 50 53 51 51 48 50 53 90 71 48 30 24 25 27 39 38 56 100 97 85 73 63 58 51 42 41 33 33 32 30 33 32 32 39 41 46 47 46 40
100 100 100 90 49 46 48 51 56 58 68 99 77 46 32 24 25 26 42 44 42 78 96 83 68 59 55 50 40 36 33 33 34 35 36 35 39 44 48 48 44 40 44
100 100 100 100 73 51 52 51 53 59 66 85 73 46 32 28 25 26 30 51 48 53 64 69 63 58 52 46 41 37 38 35 37 36 40 40 42 46 44 45 48 46 47
100 100 100 100 100 88 61 62 58 56 53 67 65 49 33 30 26 26 26 33 55 61 61 63 62 58 54 50 46 38 40 44 44 44 44 44 46 45 42 38 40 43 44
76 100 100 100 100 100 91 74 70 70 55 56 61 50 34 31 28 28 26 27 31 44 53 53 52 50 49 50 47 38 46 50 48 47 46 47 48 49 47 42 45 44 43
84 78 100 100 100 100 100 90 90 84 70 65 64 57 42 32 29 29 31 27 26 29 33 39 39 43 47 46 37 40 51 51 51 48 48 50 52 51 52 54 55 52 51
86 84 74 98 100 100 100 96 96 92 83 76 68 67 51 40 33 30 31 33 31 30 32 35 39 42 42 40 43 48 50 48 45 46 48 53 53 60 64 61 53 55 59
100 100 98 86 89 99 92 100 100 100 98 95 90 84 76 57 46 42 34 34 36 36 39 40 42 44 46 48 50 51 49 46 45 51 58 59 61 71 73 66 66 64 70
100 100 100 92 85 86 100 100 100 100 100 100 100 99 94 82 66 53 45 41 42 44 42 40 42 44 47 47 48 47 48 50 57 58 65 68 70 71 73 73 68 71 72
100 100 100 98 100 95 80 89 100 100 100 100 100 100 100 95 90 90 73 61 50 42 47 46 45 48 50 55 55 62 61 61 70 71 75 82 81 82 79 75 72 74 73
100 100 100 100 98 92 99 99 98 100 100 100 100 100 100 100 100 100 95 92 84 70 59 56 55 57 61 59 68 68 69 77 85 86 87 77 84 85 84 72 70 70 80
100 100 100 100 100 97 95 100 100 100 100 100 100 100 100 100 100 100 77 68 68 71 78 82 83 78 74 72 77 86 97 100 97 99 95 84 84 84 76 76 71 82 91
100 100 100 100 100 100 100 100 100 97 100 100 100 100 100 92 87 73 61 61 54 54 60 73 84 90 89 91 100 100 100 100 91 90 79 82 85 83 78 84 94 97 96
100 100 100 100 100 100 100 100 100 100 100 100 100 100 100 86 80 73 69 68 66 73 72 73 66 74 80 86 100 100 98 95 91 98 93 92 89 95 96 99 100 100 97
100 100 100 100 100 100 100 100 100 100 100 100 100 100 100 96 93 87 71 71 71 72 70 77 75 82 93 95 89 95 100 100 95 93 100 93 98 100 100 98 96 96 93
100 100 100 100 100 100 100 100 100 100 100 100 100 100 100 99 92 95 100 98 90 86 81 94 90 99 98 100 89 84 94 90 99 100 99 100 99 94 100 100 94 94 87
100 100 100 100 100 100 100 100 100 100 100 100 100 100 99 94 83 83 89 89 98 99 96 91 94 99 92 100 100 100 100 100 93 96 94 94 100 94 100 100 95 99 92
66 89 94 100 100 100 100 100 100 100 100 100 100 100 100 100 100 100 100 94 94 94 94 98 95 96 92 100 100 100 100 100 100 98 100 100 100 100 100 100 100 94 90
78 75 98 100 100 100 100 100 100 100 100 100 100 100 100 100 100 100 100 100 100 95 95 100 100 100 100 100 100 100 100 100 100 100 100 100 100 100 100 100 99 96 82

GFSSE_250_rhum_063.txt.gz
RH
60 67 69 62 49 35 48 66 74 68 56 47 43 38 35 34 35 37 36 34 34 33 39 54 56 56 54 49 46 48 46 37 34 32 31 26 23 21 20 21 20 23 27
52 62 77 69 52 38 41 69 78 77 68 57 47 43 39 39 35 37 37 36 34 38 47 64 64 66 63 55 55 56 49 39 36 34 29 27 26 24 20 19 21 23 26
65 71 72 79 56 43 40 50 67 64 67 61 51 47 43 42 41 40 41 40 42 45 54 65 70 69 70 69 63 62 52 41 37 34 29 26 26 25 22 21 23 25 28
73 83 74 77 68 50 42 41 50 48 55 60 50 47 48 47 47 44 40 46 56 56 62 65 71 76 80 81 73 65 55 44 39 33 32 29 25 25 25 26 28 28 25
71 69 73 67 66 57 42 41 40 42 49 53 57 57 69 58 48 42 38 44 65 76 87 84 83 94 96 89 81 71 60 49 44 35 34 30 26 25 25 26 27 28 28
66 63 66 62 61 60 52 41 42 47 47 52 55 58 63 46 43 34 32 36 52 52 81 99 90 98 98 85 79 73 62 54 46 41 34 29 26 27 28 25 29 30 33
74 59 58 62 62 58 53 49 47 52 50 51 50 50 49 66 43 32 31 26 27 30 31 64 100 93 94 85 75 65 59 55 46 41 33 30 25 27 29 30 32 34 36
85 67 62 70 66 62 59 53 49 50 52 54 51 50 48 93 53 34 26 24 25 36 41 38 76 100 94 84 72 62 56 52 43 39 34 33 28 31 32 36 39 39 39
90 84 58 72 94 84 70 57 55 53 49 48 49 53 47 83 66 36 30 25 25 28 40 41 43 82 86 77 68 62 56 53 45 41 36 33 31 34 39 41 43 40 38
88 89 71 74 90 100 100 90 69 50 46 46 50 54 48 55 70 47 32 29 25 25 30 48 49 54 67 66 63 61 57 53 48 43 34 33 33 36 39 45 46 42 39
100 94 77 74 87 100 100 100 100 77 56 51 53 55 49 48 61 58 34 31 27 26 26 30 43 57 62 61 57 51 49 48 48 42 35 38 40 45 41 37 39 38 40
99 100 93 64 70 95 100 100 100 100 80 58 59 62 51 52 50 54 40 32 30 27 27 26 29 33 37 39 40 42 47 48 42 35 39 45 48 44 41 40 40 38 43
97 100 100 92 63 64 100 100 100 100 98 85 72 72 66 68 65 53 48 36 31 30 30 30 29 27 27 30 32 34 36 36 38 40 42 45 43 42 48 52 48 53 53
100 69 100 100 76 65 70 97 100 100 95 97 91 89 87 77 80 80 63 48 37 32 31 32 30 30 30 32 32 34 38 42 43 44 44 46 48 51 54 58 69 67 67
80 86 100 100 100 86 87 76 96 100 100 100 100 100 100 97 98 93 86 76 60 47 36 32 30 30 31 32 36 38 41 41 44 45 49 49 51 58 66 80 78 76 72
100 97 96 100 100 100 91 98 85 86 96 100 90 96 100 100 100 100 100 95 86 78 70 59 51 43 39 40 42 47 55 62 63 65 68 77 82 84 80 69 79 75 74
98 82 100 100 100 100 76 94 100 97 79 99 100 100 100 100 100 100 100 100 97 85 81 80 71 64 62 65 68 80 80 81 82 87 96 97 98 83 70 70 69 71 68
100 100 100 100 100 100 98 85 94 100 100 89 88 99 100 100 100 100 100 100 100 100 85 70 62 69 68 62 74 69 70 72 86 97 94 83 77 82 70 70 66 73 74
100 100 100 100 100 100 100 98 98 94 100 100 96 100 100 100 100 100 100 98 97 87 71 72 76 74 74 72 71 70 64 74 80 86 78 78 84 81 77 71 75 71 75
100 100 100 100 100 100 100 97 98 95 89 98 100 100 100 100 100 100 96 82 83 81 84 87 78 80 72 76 72 70 70 73 83 80 86 84 80 75 74 76 81 90 94
100 100 100 100 100 100 100 100 100 100 100 100 96 100 100 100 100 100 100 100 100 100 100 100 100 96 84 83 81 74 83 99 87 91 84 88 93 88 80 88 83 88 88
100 100 100 100 100 100 100 100 100 100 100 100 100 100 100 100 100 100 100 100 100 100 100 96 95 94 93 95 85 88 91 100 93 92 89 85 88 100 100 89 88 90 100
100 100 100 100 100 100 100 100 100 100 100 97 94 100 100 100 100 100 100 100 100 100 97 90 95 87 82 86 82 62 71 84 100 100 100 100 100 100 100 99 100 97 97
100 100 100 100 100 98 100 100 100 100 100 100 100 100 100 100 100 99 100 100 98 100 97 96 82 82 77 74 77 86 86 87 91 100 100 100 100 100 100 100 100 100 100
42 69 100 100 100 100 99 92 99 100 100 100 100 100 100 100 100 100 100 100 100 100 94 88 92 90 86 84 87 82 84 91 100 100 100 100 100 100 100 100 100 100 100
35 37 57 86 100 100 100 100 100 100 100 100 100 100 100 100 100 100 100 100 100 100 100 100 100 100 100 100 100 100 100 100 92 86 100 100 100 100 100 100 100 99 100

GFSSE_250_rhum_066.txt.gz
RH
70 59 50 51 54 64 56 48 30 38 46 51 60 53 49 44 38 38 37 35 37 36 34 35 39 49 61 67 66 64 56 53 59 51 41 36 33 29 27 23 22 20 20
62 54 54 60 59 66 66 52 38 41 58 71 72 58 56 49 41 39 39 38 35 37 36 40 45 59 71 70 70 68 68 65 64 56 45 40 34 32 29 24 21 22 22
69 63 57 55 59 64 74 59 40 36 58 66 65 61 60 51 48 49 49 45 46 39 39 42 49 59 71 75 76 74 79 80 73 64 53 49 41 36 31 25 24 23 22
62 62 58 58 59 71 72 68 52 40 44 60 57 53 53 51 53 54 48 46 43 40 44 47 54 60 76 80 86 86 85 80 77 71 62 55 45 41 32 25 24 26 24
68 61 59 64 66 76 71 61 57 46 43 44 43 51 52 51 50 51 48 45 34 33 40 49 64 71 82 84 88 91 85 76 74 65 60 56 46 41 35 31 27 26 27
72 72 74 61 63 74 79 67 59 50 45 43 43 48 54 51 44 49 61 46 30 31 33 33 30 35 67 95 93 91 87 80 72 63 58 53 45 41 37 33 29 27 29
83 69 70 71 58 68 72 73 61 55 50 49 50 51 52 55 50 45 73 67 31 26 25 25 31 38 37 60 95 96 83 77 68 60 58 56 50 44 37 32 28 28 33
94 90 74 79 81 59 63 62 69 63 59 56 55 52 55 52 52 46 68 72 40 29 26 25 27 34 38 38 75 86 78 68 58 60 59 54 49 46 38 30 28 32 33
100 95 98 91 85 74 71 57 68 67 62 63 60 54 52 48 45 46 44 49 56 33 31 27 26 28 40 40 41 50 53 57 59 56 50 45 44 42 34 32 37 36 36
98 100 100 94 87 81 80 62 74 94 87 73 61 54 52 46 42 46 43 47 56 39 31 31 28 27 29 36 48 53 54 50 44 38 36 34 34 30 32 39 41 40 41
100 100 100 100 97 87 94 75 72 96 100 100 98 71 50 48 46 46 45 46 49 42 32 30 30 28 27 27 29 31 33 32 30 30 30 32 34 38 42 42 42 47 51
100 100 100 100 100 96 94 91 79 84 100 100 98 96 80 60 55 56 53 53 51 49 41 33 30 27 28 29 29 28 28 28 30 31 33 38 41 46 48 51 62 68 70
82 94 91 100 100 100 100 100 88 77 77 100 100 99 85 100 92 74 72 71 67 60 54 45 39 33 29 28 29 30 29 32 34 36 39 46 55 59 68 76 75 73 63
84 94 100 95 100 100 100 100 100 80 68 68 89 98 99 100 100 100 91 91 86 80 72 63 54 48 44 37 33 33 35 40 45 50 56 65 75 76 85 78 72 68 68
77 99 91 100 100 92 100 100 100 98 81 70 68 78 99 100 100 100 100 100 98 99 90 82 84 73 67 65 60 66 65 64 66 65 66 62 70 74 71 66 65 74 72
91 89 99 87 91 85 97 100 100 100 100 78 80 76 85 100 100 100 100 98 100 100 100 93 90 85 78 72 67 65 73 77 75 77 76 70 76 68 60 64 78 78 72
100 97 100 100 100 100 100 100 100 100 100 100 98 100 88 85 91 97 100 100 100 100 100 100 100 100 93 99 88 81 74 80 77 72 71 67 70 61 69 71 59 71 72
100 93 100 100 93 74 85 91 98 100 100 100 100 90 100 98 100 100 100 100 100 100 100 100 99 87 91 99 100 97 94 82 82 75 79 76 81 82 81 74 84 74 78
100 100 100 100 100 93 90 97 84 95 98 100 100 94 95 90 97 100 100 100 100 100 100 100 85 81 84 94 100 100 100 100 96 85 95 95 89 81 75 78 82 91 90
100 100 100 100 100 84 86 100 98 99 100 100 100 95 81 89 90 100 100 100 100 100 100 98 88 92 100 100 100 100 100 100 100 89 86 83 69 76 76 88 81 86 93
100 100 100 99 100 83 83 96 100 100 100 98 89 76 88 84 93 100 100 100 100 100 100 100 100 100 100 98 100 100 100 100 95 81 77 81 70 79 85 76 86 100 100
100 100 100 100 100 100 80 80 100 100 100 100 100 100 100 98 100 100 100 100 100 100 100 100 100 100 100 100 100 94 100 100 85 87 73 74 82 86 81 94 93 100 100
100 100 100 100 100 100 100 100 100 100 100 100 100 98 100 100 95 91 95 92 100 100 100 100 97 98 93 94 100 100 93 85 81 91 90 96 88 90 97 100 100 100 100
100 100 98 100 100 100 94 98 100 100 100 100 100 100 100 99 100 100 100 100 100 100 100 100 100 100 95 90 82 72 88 100 100 100 100 100 100 100 91 94 95 99 100
100 100 100 100 100 100 100 97 100 100 100 100 100 100 100 100 100 100 100 100 98 98 76 99 98 100 98 100 100 97 99 100 98 100 100 96 78 94 100 100 100 100 100
100 100 100 100 100 100 100 100 100 100 100 100 100 100 100 100 100 100 87 86 64 67 79 86 84 82 92 100 100 100 100 100 100 100 100 100 100 100 100 100 100 100 100

GFSSE_250_rhum_069.txt.gz
RH
55 55 43 40 47 44 41 50 57 56 43 26 28 34 36 46 46 48 43 39 40 40 36 34 36 36 37 47 62 75 74 71 69 67 70 72 67 58 55 46 40 31 26
62 59 61 62 70 51 48 53 64 58 50 39 31 37 51 55 56 50 44 43 45 38 37 40 37 40 45 54 63 75 79 76 69 72 76 73 70 64 58 48 40 37 32
75 70 68 82 74 54 56 59 59 61 57 42 35 47 59 57 51 45 44 38 37 41 43 42 41 45 49 59 62 70 79 82 82 80 77 70 64 61 55 47 41 39 30
71 66 73 68 70 65 64 58 63 65 62 44 36 39 55 53 43 39 44 48 48 45 36 33 32 38 41 55 62 72 83 83 84 80 73 70 61 57 55 50 42 36 29
77 63 71 71 69 67 67 68 72 76 66 52 39 38 43 42 38 40 45 47 52 59 35 28 28 30 29 30 36 58 86 84 85 86 76 74 62 59 59 50 39 30 27
83 70 64 66 72 68 67 73 75 79 73 61 46 40 42 38 40 42 48 47 47 68 48 27 25 25 26 28 34 37 44 76 89 88 79 64 57 57 51 41 30 28 24
94 80 78 72 71 75 75 77 74 73 73 62 54 44 38 40 44 44 45 48 44 43 52 38 26 25 25 26 30 36 33 45 69 66 55 55 54 45 35 29 28 29 36
100 98 89 93 83 81 87 82 79 76 67 64 55 50 46 47 48 44 42 42 41 43 38 35 30 27 27 26 25 27 33 37 40 44 47 42 37 31 28 29 33 37 42
99 100 93 97 100 83 89 81 82 80 77 64 59 56 56 50 47 46 46 43 40 36 36 36 32 26 26 28 26 25 28 29 33 32 31 30 28 29 31 35 41 48 58
97 94 93 90 100 100 94 94 97 83 89 77 65 65 70 64 57 46 43 41 39 36 34 35 32 31 25 23 23 23 25 26 28 28 28 28 29 32 36 46 49 62 56
100 100 100 100 94 94 100 100 98 86 92 91 80 73 72 92 90 74 67 53 48 47 42 42 42 40 36 33 31 29 28 27 27 28 30 33 38 44 50 55 55 58 51
100 100 100 100 100 100 100 100 100 96 92 96 92 85 74 86 93 91 88 72 74 64 64 63 62 55 52 48 46 41 38 35 33 35 42 50 58 55 59 61 62 69 52
100 95 64 75 98 100 100 100 100 100 98 97 96 94 91 72 74 91 97 98 100 100 92 88 82 75 73 67 64 59 57 57 56 69 67 70 76 68 68 76 74 60 54
99 99 100 100 100 100 100 100 100 100 100 100 100 93 82 76 71 68 84 100 100 100 99 97 97 90 82 83 81 76 74 75 74 79 82 85 79 78 79 85 75 66 61
100 92 86 85 100 100 100 100 100 100 100 100 100 100 100 92 77 73 71 94 100 97 100 93 90 100 100 96 97 94 97 94 92 100 87 82 89 87 88 81 80 78 79
99 100 95 78 98 92 80 100 100 100 100 90 93 100 100 100 98 86 86 80 92 95 96 100 100 100 100 100 100 100 94 97 96 100 98 97 99 98 92 94 88 86 72
93 100 100 100 77 100 80 100 97 94 100 100 100 100 100 100 100 100 100 100 97 91 92 90 100 100 100 100 100 99 76 90 98 100 100 100 100 91 90 86 84 78 68
100 100 100 100 100 96 79 100 100 100 90 80 89 99 100 92 100 97 100 100 90 94 100 100 100 100 100 100 100 100 86 74 94 100 100 97 98 100 96 83 80 76 75
100 100 100 100 100 81 83 100 100 100 81 43 50 88 100 100 100 100 100 96 85 79 80 95 100 100 100 100 99 86 97 100 100 100 100 100 100 100 99 90 80 82 78
100 100 100 100 100 68 100 100 100 98 96 79 52 92 96 96 100 100 100 100 98 86 84 100 100 100 100 100 100 100 100 100 100 100 91 94 95 89 80 81 78 81 89
100 100 100 100 100 100 100 100 100 100 94 72 97 100 100 100 100 100 100 100 100 93 100 100 100 100 100 100 100 100 100 100 89 85 74 83 86 80 90 99 93 100 100
100 100 100 99 95 100 100 100 100 89 98 92 72 84 100 100 100 100 100 100 100 100 100 100 89 80 78 79 84 100 96 91 96 98 93 91 95 100 100 100 100 100 98
100 100 100 100 94 94 100 95 100 98 78 92 98 100 100 100 100 98 100 97 100 100 100 97 88 100 100 89 100 87 92 100 100 100 100 96 95 87 99 100 100 91 99
100 99 100 100 100 100 100 100 100 100 100 100 98 100 99 81 95 100 100 99 100 89 75 80 71 61 56 50 45 43 82 100 95 100 97 99 100 100 100 100 100 100 100
100 100 100 100 100 100 100 100 100 100 100 100 100 100 100 100 100 100 100 100 95 64 72 60 59 53 56 72 70 69 66 70 94 84 100 100 100 100 100 100 100 100 93
100 100 100 100 100 100 100 88 99 100 100 100 100 100 100 100 100 100 100 100 85 82 78 72 74 58 69 63 78 92 83 85 100 97 100 100 100 100 100 100 100 97 100

GFSSE_250_rhum_072.txt.gz
RH
65 50 57 62 57 43 40 44 40 37 47 50 42 33 25 25 26 32 39 45 44 38 34 28 27 27 31 32 34 40 51 55 66 62 64 67 69 66 60 58 55 49 45
75 64 59 63 58 56 41 44 50 45 51 59 53 47 37 26 32 50 49 45 39 39 34 32 30 33 32 32 35 41 46 50 59 68 68 72 71 70 65 59 58 52 36
73 78 68 68 66 66 60 66 65 53 58 57 55 55 43 32 37 50 48 37 36 39 36 37 34 30 27 28 30 31 35 42 55 65 70 67 67 68 60 53 55 42 24
75 78 77 73 75 67 65 74 60 57 66 57 59 60 45 34 33 44 44 34 36 43 42 45 38 28 26 26 26 26 30 33 34 48 58 71 71 62 49 50 40 25 25
81 77 75 78 78 71 65 69 63 63 64 63 67 66 56 43 34 41 40 36 37 41 43 39 37 27 23 24 23 23 25 29 29 32 54 55 50 45 46 37 27 25 32
84 90 79 74 80 79 75 70 68 67 70 74 76 72 69 53 43 40 37 37 38 38 41 33 29 29 28 24 23 22 21 23 27 29 34 39 41 42 35 28 26 33 41
85 98 92 87 83 82 74 71 69 73 74 80 80 76 67 61 47 41 39 40 40 41 37 34 30 28 25 26 24 24 25 23 24 26 29 32 32 31 28 28 30 39 41
88 100 98 97 87 82 72 80 76 76 80 84 80 73 67 61 57 46 49 48 42 40 37 32 30 32 26 23 25 22 21 22 22 24 24 26 27 28 29 33 39 41 45
80 97 98 95 100 93 87 86 85 90 86 89 84 80 74 73 59 54 52 58 51 43 36 35 34 34 30 27 27 28 27 28 27 28 27 26 28 30 35 44 50 46 48
72 73 86 96 100 96 100 100 100 92 90 87 79 85 85 82 68 75 63 59 58 55 51 51 44 40 41 41 42 43 44 45 42 38 36 35 35 48 53 60 61 58 59
100 90 89 100 100 100 100 100 99 99 90 84 82 88 83 84 83 70 68 70 69 62 69 65 69 64 60 68 64 62 61 56 55 54 55 58 61 64 65 65 65 69 70
100 100 100 100 100 100 100 100 100 100 99 96 93 96 90 97 88 82 79 71 66 66 73 88 100 100 97 88 78 77 75 73 74 72 75 75 68 72 68 69 80 75 70
78 96 100 100 100 100 100 100 100 92 100 100 100 100 100 96 96 88 83 79 76 64 75 84 96 100 100 100 83 93 92 84 79 82 78 92 85 72 83 90 90 98 92
100 97 100 100 100 100 100 100 100 100 100 100 100 100 100 100 100 94 88 79 79 74 66 65 82 93 92 93 100 100 100 100 100 100 90 82 73 72 100 100 100 91 92
91 99 98 100 100 100 100 100 100 100 100 100 100 100 90 83 90 99 100 100 91 81 77 78 80 88 86 84 85 86 99 100 100 100 93 72 62 77 100 100 89 93 100
100 97 89 100 84 100 100 100 100 100 100 100 100 95 90 88 75 79 91 89 90 99 99 87 96 100 98 99 100 100 100 100 100 100 79 64 82 100 100 100 100 100 74
100 100 82 88 100 100 100 100 91 75 62 71 78 88 96 100 96 86 97 99 100 98 97 93 100 97 100 92 96 100 100 100 100 84 82 88 100 100 100 100 94 81 74
99 100 100 100 100 100 100 100 94 89 91 96 92 71 50 60 71 82 99 91 87 91 98 96 99 100 90 82 84 92 100 100 100 100 100 100 100 99 100 84 76 78 89
100 100 100 100 100 100 100 100 100 100 100 100 85 60 59 44 54 69 82 98 99 93 93 99 93 96 86 88 87 100 99 94 96 89 81 80 78 82 91 84 90 93 100
100 100 100 100 100 83 100 100 100 100 97 100 96 71 47 45 46 53 73 82 97 97 98 82 93 92 95 90 97 98 56 51 62 55 70 74 79 100 98 100 97 100 97
100 100 100 100 100 100 100 100 96 100 100 100 100 100 84 95 100 90 81 77 93 100 100 100 85 87 78 84 89 63 45 44 46 49 58 60 59 66 100 69 91 100 81
100 100 100 100 100 100 100 100 100 100 99 100 100 100 94 100 98 100 85 92 99 100 100 100 99 89 73 62 52 42 38 45 52 58 56 51 63 71 93 97 82 78 93
100 100 100 100 100 100 100 100 100 100 100 100 98 84 95 100 92 82 88 98 100 97 100 99 98 68 69 62 52 48 47 69 59 56 57 45 50 58 51 65 87 96 98
100 100 100 100 100 100 100 100 100 100 100 100 100 100 100 100 100 84 80 93 91 92 88 84 94 74 65 53 56 74 83 67 63 64 61 83 72 98 100 89 78 100 100
98 100 88 100 100 100 100 100 100 99 99 100 100 100 100 100 100 97 82 88 82 100 98 91 95 93 97 92 84 60 79 69 87 82 100 100 100 100 100 100 100 100 100
100 100 100 100 100 100 100 96 100 100 100 100 100 100 100 100 100 92 100 89 85 80 100 99 100 99 90 88 86 77 74 82 100 97 100 100 100 100 96 100 98 94 91

GFSSE_250_rhum_075.txt.gz
RH
78 66 67 58 47 49 56 53 41 43 49 39 40 46 42 36 27 24 24 31 44 45 40 36 29 24 29 31 28 24 25 31 38 46 49 60 56 58 55 47 41 41 31
81 82 70 72 54 49 58 57 54 43 41 47 43 51 54 46 43 32 25 44 49 39 40 39 32 30 30 27 20 23 23 27 32 29 39 48 49 53 55 48 39 33 25
80 83 82 73 73 57 58 62 61 59 53 61 47 55 57 53 50 37 28 44 43 38 39 42 38 32 26 24 21 21 20 20 24 24 24 27 40 43 39 35 31 26 26
76 85 89 76 76 72 62 66 65 60 68 66 52 60 64 61 57 43 33 37 42 39 41 42 40 34 28 23 20 20 21 21 21 23 23 21 26 29 32 29 27 26 32
65 72 81 85 74 77 70 68 69 63 57 60 58 63 67 64 58 55 42 37 40 38 41 42 46 38 29 22 21 21 21 21 21 21 21 22 24 25 25 26 27 29 33
64 80 82 84 78 76 80 76 78 79 74 64 62 64 70 66 58 57 54 40 38 36 42 43 40 39 31 27 22 22 23 21 21 21 21 22 23 24 25 27 29 32 39
67 76 84 91 80 85 82 77 78 79 76 74 68 71 74 73 68 66 56 51 47 42 45 50 45 40 34 32 30 21 21 23 24 25 25 26 27 28 29 28 34 42 50
65 69 83 88 86 89 94 82 80 82 81 86 76 66 76 79 74 71 68 56 58 55 50 49 42 36 36 34 33 32 30 31 36 40 39 38 37 37 39 39 48 46 52
78 69 77 85 93 88 92 99 91 88 90 89 96 89 86 83 81 76 76 76 54 63 57 49 40 42 45 41 42 42 45 47 55 54 53 52 50 51 52 54 54 58 64
100 73 61 80 90 90 83 100 99 92 91 96 86 92 100 93 80 77 74 77 72 52 58 54 45 35 54 79 79 68 73 71 64 67 62 62 58 56 52 53 54 59 79
100 100 100 91 90 98 94 94 99 100 100 100 99 95 100 100 93 76 83 86 88 68 58 63 58 56 51 88 100 100 99 80 82 92 79 66 67 68 70 62 57 49 92
100 100 100 100 100 100 100 93 95 96 99 100 91 86 92 97 95 89 90 88 99 80 70 65 68 57 57 68 89 91 98 98 96 100 96 95 97 93 76 58 47 55 95
100 100 100 100 100 100 100 100 100 100 100 97 100 100 97 95 99 100 99 90 93 96 82 76 69 68 63 62 69 79 80 77 82 84 99 100 100 100 64 48 57 72 100
100 100 100 100 99 100 100 100 100 100 99 100 99 93 100 100 100 100 86 90 80 89 86 84 76 79 72 74 81 88 79 86 92 100 100 100 96 75 63 55 71 82 100
100 100 100 100 100 100 100 100 100 100 95 78 85 100 100 100 100 98 77 78 66 66 74 86 79 70 89 98 82 96 86 89 87 80 88 100 78 62 56 60 71 97 100
100 95 100 100 100 100 100 100 100 98 100 100 100 100 100 97 98 84 76 65 63 59 61 70 75 85 92 93 95 100 91 89 75 70 84 70 62 56 62 66 72 88 96
100 100 97 100 100 100 100 87 86 100 89 100 100 100 93 100 99 82 59 51 54 56 68 82 99 99 97 84 89 87 84 78 79 76 65 60 52 54 59 52 62 75 79
100 97 100 100 100 100 100 98 68 100 76 82 98 100 100 94 76 75 70 60 64 64 53 75 89 82 88 79 83 65 59 64 63 61 47 63 57 51 53 59 52 59 44
100 99 100 100 100 100 100 100 100 100 88 100 100 100 100 96 68 72 62 73 56 52 86 91 89 84 84 72 62 62 60 56 50 40 47 50 49 48 59 62 49 44 48
100 100 100 99 100 70 100 100 100 94 100 100 100 100 100 96 90 78 54 54 52 50 78 70 68 82 72 70 56 50 48 58 53 43 43 52 52 52 75 65 47 50 47
100 100 100 100 100 100 97 100 100 100 100 99 100 90 75 58 58 51 48 46 40 43 46 53 80 79 81 63 80 84 69 49 44 68 67 59 53 56 78 62 51 50 76
100 100 100 100 100 100 100 100 100 100 100 100 100 100 100 97 100 100 93 81 81 57 54 83 88 91 75 68 89 91 71 59 57 66 63 56 50 62 56 58 54 100 73
100 100 100 100 100 100 100 100 100 100 100 100 100 100 100 100 100 100 100 100 100 100 76 51 54 74 67 61 68 61 47 60 53 52 59 63 67 55 62 60 61 96 89
100 100 100 100 100 100 100 100 100 100 100 100 100 100 100 100 100 100 100 100 90 72 68 57 63 48 47 54 43 56 56 63 64 74 70 57 61 56 88 100 98 74 86
100 88 100 99 100 100 100 100 100 100 100 100 100 100 100 100 100 100 100 100 100 100 78 85 99 64 63 57 61 71 65 72 60 63 64 66 79 100 100 88 80 83 94
100 100 100 100 100 100 100 100 100 100 100 100 100 100 83 98 100 100 100 100 100 91 100 100 100 100 92 90 100 68 72 70 68 76 98 100 100 100 100 75 71 82 86

GFSSE_250_rhum_078.txt.gz
RH
60 70 78 68 62 52 51 48 51 52 41 44 47 43 37 44 48 44 39 28 26 37 50 42 43 39 32 30 27 23 21 19 24 27 24 22 26 31 36 33 28 27 26
68 66 76 81 72 63 63 53 47 54 50 42 38 46 47 44 50 49 48 41 29 50 49 41 46 45 40 34 24 21 21 19 20 23 24 23 23 27 30 27 27 24 25
82 76 74 80 81 72 69 69 51 55 60 56 51 51 59 50 53 54 56 45 31 43 42 41 46 48 41 34 25 22 20 19 20 20 20 20 21 22 22 24 24 25 26
83 84 82 77 80 82 76 73 71 57 61 61 60 64 58 56 59 51 53 51 42 38 40 41 42 45 40 37 28 22 20 19 20 19 19 20 21 22 23 23 24 26 30
80 86 79 78 83 84 86 73 75 68 62 62 59 64 56 56 62 57 52 50 49 46 41 41 42 43 41 37 31 30 24 21 20 20 20 20 21 23 26 27 28 28 35
74 89 76 88 73 83 86 85 76 75 72 70 69 69 66 61 64 66 65 56 53 54 47 43 47 45 37 35 31 28 25 22 22 24 28 31 31 32 33 36 40 43 41
78 73 74 75 76 75 87 85 89 84 83 81 80 76 71 71 70 72 67 64 61 58 56 47 45 41 37 29 34 35 30 27 27 34 43 46 46 47 45 45 42 44 49
77 88 91 78 76 78 78 90 93 82 83 80 80 78 82 75 73 68 69 66 67 67 57 54 45 44 41 30 30 32 38 37 42 48 54 51 49 51 55 49 46 39 38
91 84 87 95 86 87 74 91 93 92 81 84 84 89 91 80 78 84 87 91 76 75 72 63 52 48 43 43 34 51 70 65 61 74 62 70 66 53 51 53 47 51 49
78 88 87 88 93 79 67 74 91 96 88 91 92 88 92 94 89 87 94 97 88 71 66 64 64 50 48 45 49 63 99 100 100 98 71 80 81 73 66 76 65 55 42
64 86 96 100 100 98 70 74 84 100 97 83 83 74 75 91 94 85 88 100 98 76 81 80 76 63 57 55 54 54 80 77 72 82 85 75 69 100 99 97 90 51 51
100 87 95 100 100 100 87 80 80 92 98 86 88 100 100 100 100 100 94 86 90 82 71 73 78 78 76 68 59 56 59 67 77 76 71 69 91 92 95 64 53 49 50
99 79 97 98 100 100 100 99 88 100 100 100 100 100 86 96 94 97 89 89 98 100 100 99 94 94 82 73 66 75 67 66 72 72 68 89 80 78 69 50 52 51 55
99 100 94 100 100 100 100 100 100 100 100 100 100 90 100 100 98 100 100 91 94 100 98 90 74 62 78 76 76 66 62 80 80 80 59 82 75 70 61 60 56 57 56
100 83 100 100 100 99 100 100 100 100 100 100 100 100 100 88 76 95 100 100 100 98 84 74 72 62 60 69 71 67 52 68 80 84 58 62 69 56 54 56 68 71 62
100 99 100 100 100 100 100 100 100 98 100 100 100 100 100 93 89 99 100 99 91 87 74 76 66 55 62 58 59 52 60 70 70 61 60 56 51 53 56 66 72 76 62
100 98 100 97 100 100 100 100 100 100 100 100 100 100 100 100 100 100 95 82 82 75 79 78 68 62 62 61 51 76 86 81 71 70 64 49 37 41 68 74 59 64 63
100 100 99 100 100 100 100 100 100 100 100 100 100 100 99 76 96 100 89 83 91 87 92 77 72 70 61 50 80 87 93 86 76 65 53 39 42 53 57 56 72 58 54
100 100 100 100 100 100 100 100 100 100 100 100 100 100 96 79 86 95 84 78 97 100 94 82 73 52 45 59 57 81 80 78 69 60 46 39 44 60 58 56 63 67 61
100 100 100 100 100 100 100 100 100 100 100 100 100 100 93 71 92 100 100 100 100 86 74 66 49 56 51 47 65 71 58 57 64 58 48 43 57 59 56 58 64 71 68
70 100 100 100 100 100 85 91 96 100 100 100 100 100 90 100 100 100 100 96 92 81 78 72 69 50 48 42 38 29 31 41 61 42 31 39 61 50 49 45 56 50 58
100 100 100 100 100 100 100 86 100 100 100 100 100 100 100 90 100 100 100 88 81 88 84 70 48 36 48 76 62 42 38 30 32 35 31 34 38 50 48 50 48 66 50
100 100 100 100 100 100 100 85 100 100 96 100 100 100 100 100 100 100 100 100 92 81 64 74 66 88 69 50 46 50 39 41 35 30 46 40 44 57 57 54 58 54 94
100 100 100 100 100 100 100 100 100 100 100 100 100 100 100 100 100 100 100 100 95 100 100 100 100 100 100 98 70 69 34 32 28 57 57 72 56 79 66 77 60 78 82
100 100 100 90 100 100 100 100 100 100 100 100 100 100 100 100 100 100 100 100 100 100 100 100 100 100 100 94 60 72 69 99 73 64 54 89 78 87 64 90 83 73 90
100 100 100 100 100 100 100 83 100 100 100 100 100 100 100 100 100 100 100 100 99 92 96 100 100 96 93 89 94 99 97 88 88 67 92 82 100 96 72 100 89 100 74

GFSSE_250_rhum_081.txt.gz
RH
89 82 97 77 60 57 55 55 45 48 48 51 44 47 41 41 39 41 46 46 44 37 31 51 51 43 45 40 37 28 21 20 21 21 20 22 22 22 23 21 20 21 22
72 73 80 87 72 75 76 66 59 52 48 50 52 38 37 39 46 46 48 45 46 44 36 58 52 42 46 43 41 28 21 19 18 18 19 19 19 19 20 20 22 23 24
60 65 76 85 77 67 79 81 70 64 57 51 54 55 54 47 54 48 56 54 52 48 38 42 43 43 45 47 40 31 24 21 20 19 18 18 19 19 22 23 23 24 27
65 65 58 84 84 74 73 80 81 73 70 67 54 57 58 58 67 52 57 59 57 51 44 38 41 40 43 46 40 31 25 21 20 20 20 20 21 21 22 25 29 33 36
67 62 62 76 94 82 78 80 83 80 72 74 64 59 60 60 61 58 63 56 54 56 50 47 43 38 37 40 34 27 25 25 21 20 23 26 34 39 40 39 38 40 34
72 66 62 68 88 96 87 87 83 89 79 72 69 65 65 70 64 60 62 66 61 57 57 54 50 46 40 38 37 31 27 28 25 23 27 34 43 47 46 48 50 46 44
76 78 74 65 71 91 96 91 83 84 92 82 76 75 71 77 75 71 65 63 63 60 66 61 60 51 43 42 44 34 34 32 31 35 40 48 56 61 59 46 42 46 50
70 88 78 64 67 74 80 85 90 77 94 92 93 84 88 80 77 76 75 72 66 78 82 75 68 61 50 44 44 42 36 41 60 58 45 57 71 68 65 58 53 58 64
62 68 82 93 65 73 78 75 74 73 70 89 95 80 78 73 81 86 85 79 80 85 90 84 70 65 57 48 41 38 45 62 98 96 86 89 90 77 85 95 99 100 86
67 70 82 81 81 67 80 88 77 67 79 79 86 100 88 81 82 89 97 93 96 91 81 72 76 79 70 70 51 47 48 48 64 84 72 70 75 77 74 70 60 48 66
49 64 86 96 96 85 70 68 80 80 89 88 76 97 99 93 91 73 87 94 93 87 91 98 75 71 80 72 67 60 63 61 56 73 69 62 70 65 64 63 66 66 67
14 25 65 91 95 94 87 90 84 84 87 88 73 77 93 93 88 76 81 94 100 100 98 82 78 79 61 71 68 88 72 62 53 49 48 50 50 63 65 57 68 69 59
12 11 32 76 97 100 100 100 100 99 83 84 80 76 80 91 77 100 96 76 75 86 74 72 100 100 100 100 98 78 67 64 56 51 50 50 37 49 57 59 65 66 52
14 20 20 52 94 83 100 100 100 100 100 100 84 79 93 100 100 98 95 92 100 100 100 100 81 96 100 96 80 65 52 61 56 53 46 44 46 49 60 57 39 34 56
26 17 29 43 100 79 88 100 100 100 100 100 100 100 100 100 100 100 100 100 95 94 99 96 71 68 77 89 82 59 51 53 55 49 56 55 62 64 63 55 41 28 38
18 54 79 99 89 99 100 89 93 100 94 100 100 100 100 100 100 100 100 100 100 99 100 76 56 62 75 84 79 70 56 56 58 47 57 72 79 74 63 56 40 29 30
24 98 100 91 100 100 94 87 92 95 100 100 100 100 100 99 92 100 100 96 100 100 100 69 59 57 63 83 83 66 58 64 39 38 53 79 68 77 69 51 38 28 43
27 76 100 100 100 100 100 95 100 100 100 100 100 100 100 100 100 100 100 100 100 100 95 75 80 90 85 90 84 78 72 52 40 39 51 72 79 56 52 58 47 29 26
82 100 100 100 100 100 95 94 100 100 100 100 100 100 100 100 100 100 100 100 98 100 89 84 80 82 96 100 98 77 61 55 43 42 53 69 59 38 38 38 40 36 28
100 100 100 100 98 100 94 100 98 100 100 100 100 80 100 100 100 100 100 100 92 100 98 88 88 99 100 100 89 70 76 66 54 42 35 28 26 24 25 25 22 23 35
100 100 100 100 100 100 100 100 100 100 100 100 100 100 100 100 100 100 100 84 85 94 100 100 100 100 100 87 85 67 62 65 52 52 36 52 24 30 39 37 30 33 40
67 95 100 100 100 100 100 100 100 100 100 100 100 100 100 100 100 100 100 100 100 100 100 100 100 100 100 87 82 61 51 50 54 41 30 24 30 31 43 33 31 38 61
87 100 100 100 100 100 100 100 100 100 100 100 100 100 100 100 100 100 100 98 100 100 100 100 100 100 92 88 80 65 53 40 50 63 62 43 45 44 36 39 51 63 45
100 100 100 100 100 100 100 100 100 100 100 100 97 99 100 100 100 100 100 92 100 100 100 100 100 100 100 92 73 82 85 84 80 71 47 48 69 60 49 58 81 67 66
100 100 100 100 100 100 100 100 100 100 100 100 100 100 100 100 100 100 100 100 100 100 100 100 100 100 100 100 100 100 100 100 97 83 93 78 75 54 58 67 70 92 84
100 100 100 100 100 100 100 100 100 100 100 100 100 100 100 97 100 100 100 100 100 100 100 100 100 100 100 100 100 100 100 100 100 96 81 60 54 74 65 85 99 99 78

GFSSE_250_rhum_084.txt.gz
RH
64 65 77 76 76 94 85 50 52 46 39 45 48 48 47 43 41 40 42 45 43 40 40 38 36 51 48 42 43 36 27 20 20 19 18 16 16 18 18 20 20 22 23
66 62 56 74 72 80 87 68 57 57 57 51 49 50 49 41 37 40 43 45 46 48 46 43 33 45 45 40 40 39 30 20 18 19 19 18 18 18 19 22 24 24 26
75 77 71 67 79 73 76 85 76 76 72 63 55 51 52 49 44 40 52 49 45 46 48 45 34 40 41 40 38 36 28 22 19 18 19 19 19 21 22 26 29 32 35
76 78 85 64 55 76 73 75 76 68 80 77 68 61 58 56 56 55 60 53 58 52 50 50 44 40 41 39 38 39 34 26 23 23 20 21 24 29 40 42 42 43 45
72 61 78 82 52 63 71 72 76 71 68 79 77 72 66 59 58 61 60 55 54 53 55 55 54 51 47 44 38 39 35 32 31 29 25 23 28 37 45 48 42 38 39
36 59 58 62 66 62 73 73 70 76 72 71 72 70 72 65 64 66 65 58 60 61 56 61 59 53 55 48 41 38 42 34 36 38 34 31 33 45 54 52 42 40 36
36 31 24 47 71 60 68 72 73 76 74 75 82 70 67 68 64 73 72 70 71 68 64 62 76 67 57 51 47 46 44 42 35 40 63 58 41 44 60 58 54 51 60
27 21 13 26 72 66 67 66 68 71 71 68 73 79 67 87 77 73 77 74 74 77 72 71 80 75 67 58 54 51 50 46 56 67 84 85 82 74 71 86 72 72 83
52 23 33 68 77 80 73 65 62 69 70 71 65 68 70 97 96 84 81 77 82 80 77 80 84 73 72 70 70 61 54 51 61 71 89 88 86 66 54 68 67 67 71
24 43 31 72 100 76 70 88 81 72 76 68 58 56 63 72 89 94 82 87 84 98 94 86 84 79 89 90 72 73 73 63 55 50 48 52 61 54 45 57 69 67 71
20 40 100 99 72 100 73 70 92 99 96 91 60 54 60 62 75 93 100 90 82 76 81 80 72 78 76 74 73 68 71 66 64 60 50 49 39 41 43 49 60 55 62
17 68 100 100 96 91 98 81 84 92 96 99 93 70 60 62 74 80 90 98 100 84 82 94 100 100 97 79 68 88 100 99 68 58 53 51 46 44 46 49 54 68 59
24 74 69 97 60 75 74 82 82 78 93 84 95 87 73 77 80 84 83 93 95 100 100 100 99 76 81 69 92 97 90 87 78 57 44 54 61 47 36 64 70 65 62
18 80 96 57 46 72 59 86 83 79 96 81 83 81 84 97 93 83 74 81 100 95 94 100 100 98 95 100 94 72 66 97 73 66 50 54 58 41 47 70 79 72 65
17 18 67 82 100 82 75 99 80 87 97 94 88 87 100 100 92 89 87 85 100 100 100 100 100 85 76 74 62 63 65 68 73 75 54 59 53 36 58 65 72 71 66
18 60 100 100 99 89 98 100 100 100 98 99 100 100 100 100 100 100 100 100 100 100 100 90 98 95 100 95 65 59 56 66 79 85 67 58 54 38 37 57 76 77 44
17 26 23 60 42 92 100 100 100 96 100 100 87 90 84 92 100 100 100 100 100 98 77 100 100 100 100 84 73 74 64 72 92 84 69 65 51 43 44 58 63 55 39
13 17 33 69 67 100 61 100 100 98 100 97 75 86 84 88 94 100 100 100 100 99 100 91 100 100 100 68 68 66 76 91 100 100 98 77 60 58 55 45 37 32 24
14 17 22 100 100 76 75 100 100 100 100 100 100 98 87 85 100 100 100 100 100 100 100 100 100 100 99 92 69 85 77 92 100 100 92 75 67 63 51 43 39 40 29
15 18 26 86 100 100 50 68 100 93 100 100 100 100 100 100 100 100 100 100 100 100 100 100 100 98 99 66 64 81 98 100 100 100 96 84 78 72 55 45 31 30 30
17 21 34 100 100 100 100 100 100 100 100 100 100 100 100 100 100 100 100 100 100 100 100 100 100 100 100 86 94 98 100 100 100 100 98 88 83 68 55 41 36 25 27
17 27 100 100 100 100 100 100 100 100 100 100 100 100 100 100 100 100 100 99 100 100 100 100 94 95 100 97 100 100 100 100 100 100 97 86 69 63 46 31 24 27 33
48 75 100 100 100 100 100 100 100 100 100 100 100 100 100 100 100 100 100 100 100 100 100 100 100 100 100 100 100 100 100 100 100 100 100 89 69 49 37 29 28 43 43
26 73 100 100 100 100 100 100 100 100 100 100 100 100 100 100 100 100 100 100 100 100 100 100 100 100 98 100 100 100 100 99 100 99 84 62 46 45 33 36 39 40 81
29 54 100 100 100 100 100 100 100 100 100 100 100 100 100 100 100 100 100 100 100 100 100 99 91 85 95 86 100 100 100 100 97 76 75 61 67 61 66 61 55 74 83
100 85 71 88 84 90 100 100 100 100 100 100 100 100 100 100 99 94 100 98 100 100 100 100 100 100 99 94 94 100 100 100 100 100 88 91 82 76 67 62 52 72 68

GFSSE_250_rhum_087.txt.gz
RH
78 66 75 72 88 99 68 81 81 53 40 36 32 42 48 49 48 40 39 39 39 40 36 37 39 38 36 41 40 38 35 28 21 19 19 18 17 18 18 20 23 24 26
74 44 62 65 70 82 93 72 85 64 52 52 48 46 51 51 46 46 40 39 43 44 39 40 44 41 34 42 40 37 37 34 26 19 18 18 18 18 19 20 24 32 35
63 54 42 52 51 67 62 69 82 91 63 58 59 59 53 51 52 41 41 40 46 45 49 48 48 45 35 39 40 36 38 36 28 26 22 19 19 22 25 31 32 34 34
65 83 62 49 48 53 58 57 73 76 80 79 78 72 62 56 57 56 56 57 59 50 47 50 51 52 46 40 40 38 37 36 32 31 31 25 21 24 29 37 38 42 38
29 55 74 58 59 50 52 59 80 76 74 70 70 78 73 69 61 60 59 62 59 50 52 53 55 57 58 51 45 41 39 37 34 31 32 31 31 28 31 38 45 49 49
31 34 39 31 38 55 61 62 61 65 76 76 64 61 76 76 75 72 60 62 58 59 59 60 55 58 69 62 55 49 45 41 38 33 31 37 42 44 41 44 51 63 75
33 43 37 36 22 29 59 72 64 55 66 72 72 67 59 73 76 74 59 63 65 66 71 68 61 54 65 63 61 58 60 55 45 35 39 52 58 70 67 66 51 72 89
46 70 66 75 35 29 42 60 75 61 54 65 72 75 62 63 82 78 68 65 70 71 74 75 78 69 64 71 65 63 63 67 62 54 50 64 80 80 76 71 67 73 75
51 88 82 41 41 48 45 47 74 72 65 62 70 71 76 66 89 77 82 88 83 85 79 76 79 80 86 76 69 70 72 70 64 63 58 50 46 41 44 51 52 54 55
21 84 100 88 42 45 45 72 58 77 74 62 71 68 72 72 78 84 83 95 96 95 92 81 85 91 75 80 73 77 71 75 61 61 56 57 54 47 44 49 39 49 53
16 18 36 56 66 26 27 37 63 88 85 71 68 62 57 72 82 73 73 80 92 100 96 98 85 77 88 82 85 97 94 94 60 96 100 77 54 50 46 53 40 37 51
11 11 15 32 77 24 20 55 49 60 94 80 67 65 60 74 82 71 67 71 80 100 100 100 100 100 99 98 100 100 100 98 88 89 71 73 77 63 55 60 53 37 54
9 10 12 22 57 27 21 39 39 50 53 70 80 78 73 78 94 98 73 67 77 96 95 94 100 100 100 100 100 100 81 88 86 73 52 72 65 73 62 51 44 36 43
9 8 12 22 33 63 96 85 72 60 70 75 73 84 95 84 100 100 100 86 76 83 100 96 100 100 100 100 100 100 93 49 67 61 53 55 61 65 64 55 49 36 38
11 7 12 34 91 84 97 82 89 71 82 100 95 88 90 100 100 100 96 88 80 96 100 100 98 99 100 100 100 100 100 94 64 64 76 65 64 76 69 61 54 43 44
8 9 9 66 100 93 88 98 100 100 100 100 94 85 94 100 100 100 100 93 95 96 100 100 100 100 100 100 100 96 100 97 96 88 81 76 73 89 76 68 60 56 52
10 10 10 55 100 100 100 100 100 100 100 92 59 88 100 100 100 100 100 100 100 100 100 100 100 100 100 100 94 100 96 100 71 72 75 82 86 100 84 84 74 67 58
9 10 10 22 97 100 100 100 100 100 100 90 100 87 86 100 95 100 100 100 100 100 100 100 100 100 100 100 100 98 92 71 91 67 67 76 90 100 84 89 86 74 70
9 10 10 18 34 95 100 100 100 100 100 100 100 100 100 100 100 98 90 79 96 94 100 100 100 100 100 100 100 100 100 100 73 55 69 96 100 92 96 94 93 88 80
9 9 11 17 24 40 100 100 100 100 100 100 100 100 100 100 100 100 99 99 100 100 100 100 100 100 100 100 100 100 100 100 55 64 81 80 100 97 93 100 97 87 92
8 9 15 20 22 77 100 100 100 100 100 100 100 99 100 100 100 100 100 100 100 100 100 100 100 100 100 100 100 100 100 100 76 71 77 70 91 100 100 94 100 94 91
11 12 15 19 22 25 53 96 100 100 100 100 100 100 100 84 100 100 100 100 100 100 100 100 100 100 100 92 100 80 88 85 88 81 84 100 93 89 100 96 95 80 71
15 13 15 20 22 41 95 73 98 100 100 100 100 100 100 93 99 100 100 100 100 100 100 100 100 100 100 100 100 100 97 100 100 98 100 100 98 100 96 81 81 71 50
15 12 15 19 21 27 100 100 100 100 100 100 100 100 100 100 100 100 100 100 100 100 100 100 100 100 100 100 100 100 100 100 84 64 73 85 77 75 59 64 66 58 45
11 12 14 16 19 39 90 99 100 100 100 100 100 100 100 100 100 100 100 100 100 100 100 100 100 100 91 100 84 62 71 99 94 80 93 96 96 71 90 75 58 43 58
10 11 14 16 35 72 45 70 96 87 100 100 100 100 100 100 100 100 100 100 100 100 100 98 100 100 100 100 100 100 100 100 96 97 86 69 75 76 76 55 67 96 83

GFSSE_250_rhum_090.txt.gz
RH
49 54 48 62 58 73 98 100 71 51 51 36 34 32 32 38 44 46 44 35 33 37 38 40 40 42 42 37 39 42 37 34 28 22 18 18 18 17 18 18 19 22 31
59 75 59 54 58 48 49 80 93 62 60 54 36 36 34 46 47 49 47 44 40 38 39 41 44 48 47 39 35 42 37 33 31 24 21 21 19 19 18 22 28 34 35
47 47 65 50 60 66 55 48 77 73 71 66 50 47 49 48 52 53 50 43 40 37 43 45 44 46 48 47 42 39 39 35 32 29 29 28 24 22 22 26 34 37 39
27 56 63 54 49 49 57 54 56 61 64 72 71 55 58 61 56 58 54 51 55 54 51 50 49 49 50 54 51 50 44 39 36 34 28 30 32 30 27 28 34 40 49
18 25 32 41 47 68 50 52 54 57 54 52 72 78 70 74 69 64 64 59 60 61 62 54 52 52 53 56 52 47 50 46 43 37 37 30 30 39 48 46 46 56 65
26 21 20 24 28 53 65 52 53 51 50 47 60 72 85 80 77 74 69 68 63 65 60 58 58 60 58 58 55 52 49 51 52 55 45 38 34 41 53 55 58 72 76
25 23 20 22 51 45 39 70 78 76 55 53 52 71 69 75 70 75 78 82 72 63 62 64 68 65 66 65 66 58 53 52 58 59 54 46 42 42 50 72 81 82 81
31 36 50 39 46 51 63 42 59 63 68 54 58 66 73 70 67 69 77 81 75 64 67 72 68 69 70 70 72 68 57 58 57 59 56 50 48 47 42 44 48 57 69
31 28 48 52 78 38 69 71 59 34 45 64 59 57 55 70 68 75 66 73 84 71 72 75 72 75 78 70 74 81 60 62 64 81 74 55 55 77 58 51 53 48 47
38 44 33 71 47 57 67 57 64 27 23 47 61 63 58 56 69 86 70 64 72 85 94 99 96 88 81 82 85 79 72 76 87 100 84 72 56 74 68 63 56 52 55
54 40 31 82 82 74 57 72 58 39 28 31 59 65 73 52 70 88 83 67 69 78 99 99 100 100 98 86 78 82 88 80 96 100 85 65 65 63 61 58 60 54 54
53 44 14 17 27 84 82 71 64 38 39 41 40 58 71 80 66 81 94 84 74 72 86 91 100 100 100 100 97 95 96 98 100 96 90 62 54 74 54 59 56 64 53
32 43 21 15 11 80 68 63 65 40 22 33 37 50 75 86 79 89 96 94 90 83 76 83 87 100 100 100 100 100 96 99 100 100 84 74 53 62 58 66 62 58 58
48 43 20 12 14 43 49 23 32 25 23 34 40 45 69 97 93 98 100 100 97 95 90 83 80 84 99 100 100 100 98 100 100 100 90 84 96 83 87 92 79 73 68
32 28 19 15 16 15 13 16 23 34 22 24 26 33 63 100 100 94 98 94 99 100 99 98 88 89 98 100 100 100 100 100 100 100 93 62 83 83 83 83 86 86 71
30 27 23 24 21 15 10 15 19 32 25 25 40 51 76 100 100 100 98 96 100 100 100 100 100 100 99 100 100 100 100 100 100 100 100 81 63 54 79 86 76 99 88
25 18 22 22 21 21 15 10 24 34 23 29 46 73 88 100 100 100 100 100 100 100 100 100 100 100 100 100 100 100 95 95 100 100 100 83 62 65 97 80 80 98 83
19 20 20 20 21 26 20 12 23 30 46 44 91 100 100 100 100 100 100 100 100 100 100 100 100 100 100 100 100 100 100 100 90 100 100 92 70 80 87 72 90 92 90
20 21 17 17 18 26 26 18 16 36 100 100 100 100 100 100 100 100 100 100 100 100 100 100 100 100 100 100 100 100 98 100 100 100 96 89 83 52 60 73 76 77 71
17 21 22 23 20 18 28 17 19 36 100 100 82 100 100 100 100 100 100 100 100 100 100 100 100 100 100 100 100 100 100 100 100 96 93 75 54 48 60 74 74 84 77
16 17 18 20 14 16 24 17 16 91 100 100 100 100 100 100 100 100 100 100 100 100 100 100 100 100 100 100 100 100 100 98 100 100 100 87 73 70 73 79 69 64 64
14 14 17 16 18 20 22 16 17 58 100 100 99 100 100 100 94 100 100 99 100 100 100 100 100 100 100 100 100 100 100 100 96 92 100 85 65 85 100 95 83 69 72
12 11 12 14 18 17 18 14 20 33 100 100 100 100 100 100 100 100 100 100 100 100 100 100 100 100 100 100 100 100 100 100 100 99 100 100 87 72 95 68 60 56 64
8 10 14 14 13 15 15 19 27 29 42 100 100 100 100 100 100 100 100 100 100 100 100 100 100 100 100 100 100 100 100 100 100 99 85 68 70 63 68 52 59 57 65
9 12 13 14 13 18 16 20 31 32 37 45 100 100 100 100 100 100 100 90 99 100 91 100 100 100 100 100 100 100 94 95 100 100 100 74 100 71 41 80 100 100 100
13 15 16 15 17 23 24 24 26 40 79 100 100 100 100 100 100 100 100 96 79 91 92 92 100 92 98 98 100 100 86 84 94 97 100 86 57 79 84 88 98 77 56

GFSSE_250_rhum_093.txt.gz
RH
49 48 42 50 47 50 48 44 59 74 61 47 57 44 33 31 38 38 43 41 38 35 33 36 37 36 33 33 35 32 40 38 33 29 22 19 20 19 20 21 21 24 35
33 39 41 39 54 55 52 54 47 64 61 52 52 62 40 33 33 39 46 48 46 41 40 39 40 39 36 38 41 40 38 39 38 33 30 23 23 23 22 21 24 32 36
16 16 18 30 38 55 64 62 61 61 64 60 49 66 53 42 36 46 50 52 49 45 40 40 44 44 44 44 48 45 40 42 40 38 32 31 27 25 26 26 28 31 36
17 20 20 18 22 36 82 75 61 63 56 57 62 51 74 52 47 47 52 55 53 50 45 47 48 49 47 48 52 47 44 46 42 39 35 32 34 28 26 30 40 47 56
18 21 22 17 13 17 38 84 79 64 69 63 72 64 59 78 60 58 57 58 58 56 60 56 56 54 53 53 52 49 51 48 47 44 39 36 37 34 34 32 39 46 68
27 25 21 20 16 13 20 58 89 75 59 65 62 66 63 60 75 67 72 67 66 66 63 60 58 55 54 56 55 52 47 51 47 48 47 49 49 47 44 42 57 73 88
35 29 25 26 22 19 19 30 56 73 84 66 60 56 57 50 64 78 81 80 74 72 72 70 60 57 58 59 55 55 50 48 50 52 50 50 53 50 48 53 52 46 48
68 32 32 30 26 31 36 39 31 36 59 80 60 54 54 46 47 79 85 82 83 81 85 75 65 62 59 58 59 64 58 60 56 58 64 80 79 62 57 66 75 61 62
67 84 78 51 26 21 39 71 85 73 55 86 89 68 62 65 49 56 85 80 78 87 86 80 72 70 72 66 65 69 76 78 81 69 72 80 84 65 60 54 61 69 61
43 75 80 86 77 35 43 46 63 66 82 76 55 59 78 91 62 51 85 84 84 77 81 85 80 79 87 85 77 75 75 70 64 68 81 97 100 78 74 66 69 54 60
53 52 30 43 53 47 44 38 39 57 60 64 80 53 46 55 71 59 59 67 89 81 81 85 94 95 100 100 100 86 80 78 72 84 94 100 100 86 68 66 68 61 66
56 57 61 28 24 22 27 54 66 54 51 40 50 70 70 41 50 71 64 53 58 85 88 86 88 94 100 100 100 100 98 96 93 87 89 100 100 83 72 63 80 74 76
34 41 45 41 30 22 32 77 64 52 37 28 37 50 68 41 31 61 88 83 65 62 83 88 90 91 97 97 100 100 100 100 100 98 80 92 100 100 66 53 56 82 84
24 31 36 33 30 22 21 44 39 43 41 37 34 43 45 43 26 31 68 99 97 72 70 88 90 95 96 92 97 97 99 100 98 90 87 100 100 98 76 72 56 55 63
28 28 28 30 33 31 28 28 26 21 34 56 72 63 44 45 40 40 44 72 100 98 74 76 86 79 95 100 100 100 97 99 99 100 100 100 100 100 100 95 67 51 54
32 32 26 20 22 28 26 23 33 29 25 46 68 39 29 35 30 38 53 58 92 100 80 95 93 81 82 100 100 100 100 100 100 100 100 86 96 100 99 100 86 77 67
36 33 23 20 18 22 30 31 38 34 20 22 52 32 25 26 22 27 71 79 82 100 100 96 100 100 80 91 100 100 100 100 100 100 100 100 95 100 91 81 52 56 66
32 31 25 21 18 26 35 32 40 32 26 18 16 19 32 23 23 22 50 72 80 99 87 100 100 100 85 88 96 100 100 100 100 99 99 100 100 100 100 97 75 62 49
20 20 24 20 20 27 28 32 36 36 28 18 16 20 41 23 30 28 33 58 78 97 100 100 100 100 100 100 100 100 100 100 100 100 100 100 98 87 88 81 76 65 51
13 18 20 16 18 21 23 29 33 32 24 29 18 18 34 27 38 42 40 81 100 95 100 100 100 100 100 100 100 100 100 100 100 100 100 100 100 99 82 98 88 74 52
12 14 10 10 16 20 19 23 28 29 28 29 26 26 35 33 30 53 60 85 100 100 100 100 100 100 100 100 100 100 100 100 100 100 100 100 100 100 100 100 79 60 54
9 10 9 11 14 16 19 23 23 24 25 26 27 30 33 30 52 84 66 96 100 100 100 100 100 100 100 100 100 100 100 100 100 100 100 100 100 100 100 100 78 55 87
7 8 10 13 14 17 19 19 21 20 22 24 24 32 41 35 48 97 100 100 100 100 100 100 100 100 100 100 97 100 100 100 100 100 100 100 100 100 95 99 73 70 58
6 8 10 12 14 17 17 18 18 20 20 23 20 42 42 83 99 100 100 100 100 100 100 100 100 100 100 100 100 100 100 100 100 100 100 100 100 91 100 90 59 53 92
6 9 11 13 14 15 20 25 23 19 19 14 24 38 76 100 100 100 100 100 99 100 100 94 100 100 96 100 100 100 100 100 98 96 88 97 100 80 81 82 95 100 92
5 6 8 13 17 18 18 18 15 12 20 23 25 36 94 100 100 100 100 100 100 100 100 100 100 100 100 100 100 100 100 100 100 91 83 92 87 100 88 73 98 92 75

GFSSE_250_rhum_096.txt.gz
RH
46 46 47 44 52 58 67 64 56 57 55 61 63 50 60 46 37 34 37 37 42 43 44 35 32 35 35 37 34 34 33 32 34 36 33 28 22 20 19 19 19 22 30
33 40 38 34 42 55 57 58 60 50 61 72 84 65 54 59 48 35 37 36 42 49 49 47 39 36 37 41 41 40 38 39 35 33 34 30 29 26 29 25 24 26 30
18 19 18 24 29 36 51 59 66 65 55 61 82 78 61 58 60 47 38 38 49 51 52 50 44 38 40 45 46 45 41 44 44 39 35 34 33 32 29 30 34 36 42
22 19 17 15 15 22 31 39 59 74 66 59 66 92 79 62 64 58 49 43 51 56 56 54 50 49 45 52 50 49 47 49 46 45 43 40 36 34 37 36 38 44 57
26 27 23 18 15 15 16 15 28 63 79 71 63 72 78 76 69 67 58 54 52 55 60 60 59 59 59 55 57 53 52 50 52 50 47 48 44 42 46 46 40 43 54
39 33 26 20 17 17 14 14 18 28 48 94 89 63 67 64 75 67 74 61 65 63 65 64 63 63 62 61 57 53 52 48 49 49 52 57 61 72 62 57 55 55 50
41 42 36 28 22 21 20 19 15 16 20 44 75 96 71 68 63 69 69 82 73 78 76 72 75 72 68 64 61 57 54 52 50 53 57 59 67 76 73 67 66 61 58
46 45 46 96 76 41 33 26 22 15 15 22 42 91 100 82 60 65 58 62 80 79 90 86 79 78 78 72 66 62 59 59 60 61 65 62 60 72 74 74 58 60 61
28 59 70 93 100 71 67 57 42 35 30 18 25 51 84 88 94 83 63 62 53 82 91 93 89 91 92 80 72 69 69 67 69 67 63 61 69 79 99 71 65 59 56
27 23 35 74 94 95 87 76 62 38 30 38 40 39 38 54 77 90 73 61 54 51 87 91 95 98 97 90 80 79 82 78 72 71 69 63 74 92 100 100 83 62 57
34 31 25 28 61 80 55 55 67 39 32 41 57 71 69 51 45 81 98 70 69 69 57 78 84 94 97 96 92 89 91 94 88 84 78 68 79 86 100 100 99 76 74
35 32 33 30 22 36 41 62 50 39 66 52 35 45 60 68 75 79 76 86 77 91 81 62 73 80 85 93 99 99 100 100 100 100 100 95 95 81 77 100 100 70 72
39 37 32 33 31 26 26 24 22 30 39 48 50 40 46 52 55 55 65 61 65 94 94 69 73 73 82 85 95 100 100 100 100 100 100 100 100 79 77 100 100 86 77
74 56 48 40 40 38 33 32 30 24 22 35 58 50 47 57 44 41 42 62 81 74 70 74 71 68 66 79 81 91 97 99 100 100 100 100 96 82 86 100 100 99 94
64 65 67 54 53 50 30 27 32 25 24 25 82 77 67 50 46 52 46 43 68 80 50 58 73 76 84 71 73 82 93 100 100 100 100 96 100 100 99 100 100 100 100
36 64 53 57 56 60 45 40 31 24 26 27 32 28 26 30 26 46 98 74 47 54 54 34 61 75 89 96 82 82 94 95 100 100 100 100 98 100 100 98 96 100 100
30 43 58 58 50 52 48 34 36 32 32 26 24 25 20 24 32 99 100 92 69 47 43 49 34 51 78 98 100 92 100 100 94 91 100 100 100 99 100 93 100 100 100
18 25 36 40 51 45 38 36 33 34 32 31 29 21 28 32 27 28 99 57 42 31 22 42 49 58 60 84 95 100 100 100 100 91 89 100 100 100 100 99 94 95 100
12 16 25 28 28 32 26 25 31 31 32 28 22 20 27 30 25 23 30 39 44 31 26 21 62 99 92 75 92 88 96 100 100 100 98 100 100 100 100 100 100 100 98
10 12 15 23 23 22 17 17 25 31 26 29 23 19 24 27 24 28 34 41 44 34 28 41 100 100 99 84 84 100 100 100 100 100 100 100 100 100 100 100 100 100 100
8 10 12 16 18 17 10 13 18 26 24 25 27 22 20 17 22 24 33 53 67 36 27 37 81 100 100 95 100 97 100 100 100 100 100 100 100 100 99 95 100 100 100
5 7 10 12 14 11 10 12 14 20 25 25 28 24 24 24 24 28 25 38 55 52 30 44 56 89 69 100 82 100 100 100 100 100 100 100 100 100 100 100 99 100 86
4 5 7 9 11 11 12 14 13 19 26 27 32 32 30 27 24 27 26 26 41 53 52 46 82 100 100 100 100 100 100 100 100 100 100 100 98 100 100 99 86 100 99
3 4 4 6 7 9 12 14 16 21 26 28 27 26 23 26 32 32 22 30 36 39 56 69 98 100 100 100 100 100 100 100 100 100 100 100 100 100 100 100 91 91 81
3 3 3 4 5 5 7 12 17 22 26 24 23 22 22 24 29 32 26 41 32 47 75 100 95 100 100 100 100 100 100 100 100 100 100 100 97 100 100 100 100 89 98
3 3 4 4 6 6 7 9 13 18 22 23 26 22 19 24 34 27 36 34 38 46 81 100 100 100 100 100 100 100 100 100 100 100 100 100 100 100 100 100 100 100 94

GFSSE_250_rhum_099.txt.gz
RH
41 50 65 62 67 72 72 66 68 62 60 62 55 53 59 60 56 49 43 37 37 38 41 42 43 44 40 37 35 37 35 34 33 34 33 32 29 27 25 25 24 25 27
39 38 44 44 41 52 71 79 82 84 68 70 65 63 65 69 62 64 53 42 38 39 40 46 49 49 47 42 40 40 42 37 39 40 40 37 33 30 26 25 26 29 35
25 24 20 19 18 26 52 69 75 80 74 68 60 59 71 87 76 67 74 54 43 42 43 51 51 51 48 49 51 47 48 44 43 41 42 42 39 36 35 30 27 30 40
22 22 20 18 19 19 23 34 62 66 71 69 65 60 59 70 80 65 66 77 54 46 44 56 57 58 54 53 59 57 52 49 48 48 49 48 51 50 50 49 44 41 44
28 27 24 19 18 23 22 20 18 36 54 62 69 66 68 59 69 84 62 66 86 59 50 52 59 63 65 63 60 61 57 54 50 48 52 54 58 62 72 66 59 60 64
42 32 29 24 20 28 32 21 18 16 19 32 43 56 75 68 59 85 85 70 72 83 65 55 57 64 67 67 69 66 60 56 55 51 54 57 58 60 68 65 74 69 59
43 46 34 39 32 29 30 40 28 22 27 25 19 27 62 87 80 74 81 73 76 73 84 70 58 64 67 69 70 71 70 60 56 56 59 61 68 62 62 70 71 61 59
28 40 93 79 64 42 42 80 44 26 26 33 33 30 40 54 71 89 85 91 79 88 79 78 75 66 69 70 78 80 76 70 65 61 65 64 66 68 72 87 87 72 73
26 23 52 93 100 52 87 100 97 76 47 44 40 34 28 34 63 74 87 94 98 74 77 81 80 77 77 72 71 78 83 77 69 75 75 77 77 68 70 78 100 99 94
38 29 22 40 82 89 84 98 100 85 82 86 69 37 32 40 24 46 74 100 90 92 88 76 79 88 92 87 76 86 85 78 77 76 85 91 82 82 81 77 90 100 100
81 54 37 28 24 38 53 64 89 86 69 83 88 62 42 34 37 29 45 77 92 85 84 80 83 72 72 95 92 91 93 85 80 79 84 88 95 97 93 90 84 70 100
94 86 73 35 32 32 28 30 35 65 94 84 67 68 54 48 37 34 51 52 49 69 85 85 73 70 68 64 80 89 97 90 82 76 80 88 94 100 100 98 90 76 100
66 94 93 62 53 46 63 34 29 54 59 62 68 57 65 56 64 55 55 49 65 82 59 52 87 75 65 76 80 74 85 89 93 88 82 88 91 100 100 100 90 79 100
62 58 74 76 53 41 48 46 37 32 29 26 36 41 33 38 41 52 78 66 61 67 67 69 75 78 80 80 86 87 73 85 84 95 88 86 82 95 99 100 91 83 99
74 76 71 70 71 50 40 56 54 57 52 36 37 30 27 26 30 44 77 97 95 81 70 60 64 60 78 79 80 91 81 76 84 93 95 96 88 72 74 84 90 89 100
46 49 71 60 59 74 71 47 55 68 50 44 58 43 33 31 25 50 81 73 47 42 44 51 62 76 72 80 80 79 70 76 71 70 85 100 100 100 97 78 78 85 100
45 40 52 60 51 50 72 75 43 56 44 37 42 48 40 30 27 36 42 32 34 46 44 77 100 92 77 84 81 89 72 59 75 83 83 81 94 100 100 100 99 89 100
29 34 29 42 45 40 34 41 38 47 48 46 43 47 53 35 29 30 23 22 23 30 41 63 100 99 73 51 40 65 76 71 70 84 92 86 100 100 100 100 100 100 100
9 15 17 18 21 26 28 33 45 40 41 35 40 36 38 36 31 31 27 23 20 20 32 45 85 66 52 46 41 33 53 76 72 79 99 100 100 99 100 100 100 100 100
4 6 9 10 11 13 16 24 26 33 28 20 24 36 29 34 36 34 32 29 25 27 30 44 43 37 42 37 47 42 58 100 100 100 97 100 100 100 100 100 100 100 100
2 3 5 7 8 10 12 14 18 16 14 13 26 35 31 29 32 38 37 38 32 30 35 39 47 42 38 40 43 36 45 99 100 100 100 100 100 100 100 100 99 100 100
2 2 3 5 7 10 11 11 12 12 11 14 21 25 25 31 29 31 39 36 34 36 35 39 49 41 38 32 34 43 55 92 100 100 100 100 100 100 100 100 100 100 100
2 2 2 3 5 6 7 8 9 10 11 13 17 21 25 28 26 23 29 30 32 31 45 48 47 40 35 38 31 38 75 100 100 100 100 100 100 100 100 100 100 99 90
2 2 2 2 3 3 4 6 8 10 12 12 14 18 24 29 23 19 23 29 32 28 41 48 40 42 49 32 42 44 77 100 100 100 100 100 100 100 100 100 100 100 98
2 2 2 2 2 3 3 4 6 8 11 15 15 20 26 31 27 24 21 28 32 27 26 34 31 44 60 41 36 64 100 100 100 100 100 100 100 100 100 100 100 100 100
2 3 2 2 2 3 3 4 5 6 9 13 14 15 19 28 25 21 24 28 27 26 26 28 31 41 56 46 39 69 100 100 100 100 100 100 100 100 100 100 100 100 100

GFSSE_250_rhum_102.txt.gz
RH
47 51 53 58 67 70 68 64 65 60 64 69 81 64 64 62 61 71 65 51 42 36 36 40 45 45 47 46 45 42 40 40 35 37 37 38 36 33 31 28 27 26 28
32 40 52 61 62 62 64 62 58 56 61 63 72 71 59 65 68 65 76 72 60 41 35 37 41 49 47 49 47 50 51 49 43 41 41 45 46 44 42 37 31 36 35
25 28 33 38 41 56 58 65 57 46 47 60 58 70 76 72 68 81 78 80 78 61 38 35 38 51 54 51 50 51 61 56 54 49 49 52 51 55 53 54 47 41 42
22 24 34 27 23 33 53 58 54 37 39 50 53 55 61 66 66 63 88 95 82 75 62 40 37 49 55 56 54 56 61 64 61 57 53 60 66 65 64 67 62 60 62
26 28 32 29 27 20 28 42 48 49 36 37 40 50 55 57 61 65 64 83 98 84 81 64 43 41 49 54 57 58 60 62 63 62 62 59 66 66 66 78 83 75 69
38 36 64 31 38 47 41 44 40 34 40 39 28 26 43 50 54 60 66 74 81 100 87 82 71 49 45 53 56 58 59 62 62 57 61 61 70 74 74 71 75 80 86
44 41 47 74 72 60 56 76 68 60 44 47 46 27 24 34 51 57 61 72 71 98 100 96 92 82 62 51 54 59 60 62 64 63 59 63 68 74 78 76 77 94 93
40 42 36 36 86 100 93 78 60 64 80 94 88 73 55 50 44 31 34 61 77 76 100 100 100 100 95 84 62 61 62 64 68 69 68 63 72 79 80 78 73 93 100
52 41 33 29 30 97 100 100 94 65 84 81 79 60 65 57 50 45 46 63 81 86 92 99 100 100 100 100 99 78 69 66 66 67 68 63 64 75 81 80 82 69 86
71 66 63 61 46 35 71 100 100 73 100 100 100 82 90 76 47 34 33 40 51 70 84 97 100 100 100 100 100 97 95 80 70 67 69 64 58 65 78 80 81 79 63
82 79 73 66 56 63 41 43 79 99 89 78 100 100 100 100 96 71 49 37 40 38 48 58 78 98 93 92 95 97 89 100 92 81 84 71 62 61 61 68 74 80 77
94 97 84 72 66 56 56 51 31 44 44 45 49 93 100 100 99 74 70 66 50 44 45 37 54 78 80 79 90 97 90 80 100 100 100 96 78 65 61 57 57 86 98
66 86 96 84 60 49 52 66 67 36 30 33 39 37 74 88 100 84 66 64 55 52 55 58 55 62 73 67 65 69 79 76 71 74 88 100 100 90 73 70 75 98 100
59 64 63 66 56 50 54 74 67 85 56 38 37 37 44 58 67 56 54 45 47 48 52 77 78 74 85 85 81 77 71 80 75 82 86 91 91 100 98 84 82 76 85
59 55 60 58 62 59 51 57 49 63 71 69 43 42 39 46 35 30 44 37 40 57 52 77 100 97 68 53 55 71 73 85 97 98 90 89 100 98 100 100 98 92 73
46 64 62 66 66 65 61 55 60 61 57 72 72 55 51 49 30 46 28 31 32 32 40 49 94 75 60 60 52 69 86 89 90 98 100 94 90 95 91 99 98 100 98
39 41 51 68 70 54 61 52 51 50 52 45 48 44 48 56 47 56 67 62 52 34 38 42 81 67 47 50 47 74 96 95 100 100 100 100 100 100 94 84 82 80 88
25 30 30 36 55 46 42 54 49 44 45 45 49 46 45 55 53 58 58 61 57 53 43 36 41 35 31 41 51 50 97 98 81 62 79 93 96 100 100 95 86 91 99
14 14 21 21 22 36 48 38 45 55 41 39 41 48 35 31 34 33 41 55 66 56 55 46 38 35 31 34 42 49 78 84 69 49 43 46 52 88 100 100 98 100 100
12 11 9 12 14 11 16 25 30 36 35 23 23 28 26 20 27 29 51 49 51 57 44 55 57 42 37 36 40 38 47 44 45 50 51 48 64 100 100 100 100 100 100
3 3 4 3 4 6 6 6 12 18 19 20 15 18 16 15 17 22 31 52 58 63 57 48 47 52 51 38 34 40 36 38 46 50 46 52 94 100 100 100 100 100 100
2 2 2 2 2 3 4 4 6 8 10 11 13 11 9 10 13 17 29 37 38 64 58 45 46 44 44 49 44 40 44 41 38 39 43 47 94 100 100 100 100 100 100
2 2 3 2 2 3 3 3 3 5 6 7 8 11 10 9 10 13 18 23 28 34 54 49 43 38 38 50 53 44 39 53 48 35 38 40 49 83 100 100 100 100 100
3 3 3 3 2 3 3 3 3 4 5 6 6 7 6 7 9 11 16 18 19 21 22 28 41 42 32 45 51 52 45 52 48 45 36 42 59 100 100 100 100 100 100
3 3 3 3 3 3 3 4 4 4 4 5 5 6 7 7 8 10 12 13 15 17 19 23 26 28 35 46 52 44 46 52 55 40 48 52 56 100 100 100 100 100 100
3 3 3 3 3 3 4 4 4 4 4 4 4 4 5 6 9 12 14 16 19 23 21 24 32 36 36 38 49 50 56 60 67 50 52 55 72 100 100 100 100 100 100

GFSSE_250_rhum_105.txt.gz
RH
32 53 63 61 64 69 72 60 64 65 66 72 76 89 83 88 74 69 65 66 77 66 50 37 33 34 34 42 48 46 42 43 44 43 39 44 44 40 36 35 27 29 33
36 44 51 55 58 65 68 71 62 61 63 70 88 75 68 67 72 59 73 78 72 83 74 54 39 34 34 38 46 49 49 47 49 48 49 45 50 54 52 48 44 44 48
23 22 23 23 31 42 48 56 58 56 56 59 68 70 74 69 71 67 64 77 93 90 88 78 62 40 34 34 42 49 51 54 52 52 53 56 56 58 58 59 58 56 58
21 21 20 27 28 26 34 37 44 44 50 52 53 56 51 56 73 73 72 74 73 84 100 98 81 63 42 37 38 45 50 52 55 54 53 53 58 62 63 71 80 74 65
25 25 28 26 49 58 76 65 54 40 54 60 56 55 48 42 63 74 74 72 72 68 69 98 100 89 66 47 41 41 47 50 52 54 55 52 57 58 63 60 69 80 73
31 24 29 42 67 78 68 77 85 88 66 55 47 45 53 43 36 44 61 74 70 68 72 76 99 100 100 75 57 48 45 48 54 54 56 56 52 58 62 64 74 70 70
33 30 31 34 42 57 83 100 97 96 96 90 83 81 75 66 50 42 33 48 68 69 64 68 75 96 100 100 91 70 56 52 53 57 57 57 58 51 55 58 65 74 72
47 47 38 37 38 46 41 50 100 100 100 100 81 80 89 90 96 69 42 37 49 65 78 72 76 77 100 100 100 100 92 68 63 63 62 58 57 60 54 57 61 65 64
50 54 57 54 45 44 48 34 73 100 100 100 90 100 100 92 79 67 62 58 58 46 39 48 71 77 90 100 100 100 100 100 95 74 70 70 68 61 61 55 54 58 59
58 58 59 60 61 62 47 60 61 60 100 100 100 86 100 100 100 96 78 63 62 53 45 42 48 74 82 92 100 94 92 100 100 100 99 81 77 74 70 65 56 55 58
64 62 65 68 66 69 72 67 73 89 71 64 100 100 99 88 100 100 100 98 64 54 50 49 54 62 70 75 91 99 100 98 92 99 100 100 100 87 82 80 74 62 56
72 74 73 73 78 79 76 65 64 68 70 79 54 57 88 67 58 86 100 100 96 77 65 62 51 52 58 79 93 84 86 100 99 88 91 90 98 100 100 100 90 80 71
76 75 71 72 74 77 84 89 82 65 52 55 75 78 58 43 45 48 53 83 75 93 70 64 52 49 44 58 75 70 65 79 100 100 98 98 93 82 84 100 100 100 95
70 63 61 59 56 51 45 52 59 80 70 66 34 59 83 75 54 49 46 42 55 76 68 59 68 62 63 56 48 95 93 86 92 100 100 100 100 98 86 75 79 97 100
100 84 70 68 72 66 70 58 50 44 45 52 44 42 50 61 95 82 72 50 50 56 50 54 56 63 44 47 46 74 91 76 67 68 74 90 94 91 96 95 91 85 94
70 86 91 82 70 68 63 59 57 60 59 48 46 45 44 58 51 96 60 72 64 54 62 66 65 52 49 44 36 39 70 58 48 43 39 60 66 85 100 100 100 100 93
51 57 61 69 85 78 67 56 59 44 41 51 52 55 56 50 39 73 77 50 58 80 56 66 66 75 75 54 54 48 63 78 56 41 38 52 74 92 96 98 100 100 100
30 31 40 40 41 47 46 43 42 43 38 41 45 41 47 46 48 37 52 55 55 68 83 85 78 91 94 85 78 74 51 49 44 35 35 51 71 86 82 73 88 100 100
18 17 17 19 21 22 29 35 34 32 35 37 30 32 37 46 37 43 43 51 53 52 46 52 72 87 74 65 87 88 66 52 46 43 37 44 60 65 57 49 45 57 58
13 12 12 12 12 15 15 14 21 25 28 25 24 20 21 22 23 19 28 41 43 47 65 61 57 67 66 76 64 61 67 61 56 59 45 37 44 48 58 54 44 53 58
7 6 7 8 7 8 10 10 9 12 13 12 12 14 15 13 11 13 14 24 30 35 47 59 49 52 55 76 76 57 67 62 60 57 54 52 50 43 51 52 45 42 63
6 6 6 5 4 4 4 5 5 5 7 9 10 9 8 10 11 12 11 15 19 23 38 54 63 43 47 53 46 65 50 56 59 58 56 56 47 45 43 52 48 51 52
4 3 3 3 3 3 3 3 3 3 4 4 4 5 6 7 8 10 11 13 16 23 28 34 47 45 43 52 43 35 49 70 54 68 56 52 43 45 42 48 52 53 55
4 3 3 3 3 3 4 3 3 3 3 3 3 4 4 5 5 7 9 12 10 11 14 19 21 21 25 30 36 42 36 46 63 65 77 53 51 46 45 42 50 52 58
3 3 3 3 3 3 3 3 3 3 3 3 4 4 4 5 6 5 5 5 6 6 9 13 19 22 22 22 29 35 38 43 43 43 62 60 53 52 46 45 52 53 54
3 3 3 3 3 3 3 3 3 3 4 4 4 4 5 6 6 5 4 4 5 6 8 10 16 17 20 21 28 30 30 36 36 46 56 65 65 57 57 51 46 56 61

GFSSE_250_rhum_108.txt.gz
RH
61 62 63 51 49 64 71 67 68 76 81 88 83 67 61 61 83 76 80 77 74 64 64 73 65 58 40 34 33 38 42 45 44 44 41 39 39 41 35 34 33 36 38
40 46 47 40 29 42 64 67 73 74 75 79 92 89 84 80 74 72 70 87 78 73 75 85 83 75 63 45 37 35 43 46 49 50 48 44 42 47 48 44 42 43 41
20 23 20 21 30 44 51 58 55 75 74 74 70 92 93 93 85 81 76 77 78 70 74 80 100 100 88 66 52 40 39 44 50 53 54 50 48 48 51 51 48 51 55
20 18 18 19 22 30 34 34 42 53 59 74 75 74 80 100 100 96 73 66 77 77 78 83 78 95 100 96 72 55 43 42 46 49 55 56 49 50 49 47 57 71 71
25 24 23 23 23 21 27 46 72 68 66 57 63 59 63 89 94 100 94 78 60 89 81 82 77 66 74 100 99 79 60 49 47 48 50 53 56 52 52 50 50 56 66
28 31 28 32 32 42 39 80 88 82 97 100 94 76 74 75 73 82 85 76 67 70 76 80 83 73 69 76 100 100 90 67 59 54 53 52 56 57 59 55 53 51 58
29 24 26 31 32 31 38 77 79 80 99 100 100 100 100 92 77 61 63 71 66 53 53 62 68 78 73 73 68 98 100 97 83 66 62 57 60 62 64 63 60 53 58
47 44 34 38 44 34 28 33 42 47 61 100 100 100 100 78 92 99 100 99 79 61 48 37 34 60 85 80 85 84 100 100 100 100 86 71 68 68 68 70 67 64 56
56 56 52 44 46 53 54 42 35 34 44 41 89 100 99 96 75 100 99 87 89 81 74 69 56 56 51 69 58 72 96 100 100 100 100 100 97 85 80 74 74 74 70
59 59 57 57 54 53 54 58 57 52 45 50 85 100 100 100 97 75 91 96 94 88 76 90 67 58 56 48 48 60 78 95 100 100 100 100 100 100 100 100 86 81 78
58 56 61 60 58 60 58 60 59 68 75 76 74 91 96 82 93 100 96 78 80 88 98 87 88 70 61 53 51 57 63 84 94 100 100 100 100 100 100 100 100 100 94
64 60 56 54 58 61 57 58 60 61 69 77 80 76 73 78 80 64 78 80 60 56 87 86 87 88 71 61 55 59 64 71 82 94 97 100 100 100 95 87 97 100 100
74 77 71 68 65 60 58 62 62 63 53 57 69 83 84 80 66 85 76 66 61 54 49 54 64 68 86 66 55 56 54 59 79 80 84 85 76 94 100 100 99 95 92
100 100 99 92 77 74 70 65 58 58 54 49 51 61 61 70 77 75 80 84 89 52 51 76 70 50 66 66 62 69 55 47 45 55 84 87 81 70 73 89 100 100 98
94 100 100 100 100 99 90 86 76 67 61 55 48 46 47 63 51 62 68 56 84 94 81 73 81 74 75 75 75 66 63 50 38 36 39 82 81 79 73 72 78 84 87
62 60 68 74 79 85 95 98 100 100 92 69 63 57 44 44 45 41 63 56 52 66 100 82 72 75 81 77 77 70 76 79 67 48 40 42 62 54 48 41 48 55 81
65 54 62 64 63 60 62 64 65 64 74 75 68 61 49 41 43 37 39 41 47 52 61 58 67 63 80 74 90 88 75 78 75 78 66 55 65 64 49 35 40 50 86
47 58 64 54 46 39 39 49 53 54 58 58 51 49 49 42 36 35 35 33 33 38 49 69 58 78 51 66 73 78 89 76 75 86 97 97 82 58 51 42 37 46 77
40 32 30 25 21 22 25 21 27 32 31 34 42 44 40 33 30 32 30 29 36 36 44 40 50 58 80 70 57 69 66 78 75 82 92 97 98 83 72 56 41 41 54
19 17 18 16 16 16 15 16 17 20 22 26 26 25 29 30 23 18 23 27 26 30 28 27 48 42 42 53 63 70 71 66 52 60 77 92 86 82 82 70 47 43 42
10 10 10 10 9 8 7 7 9 12 15 16 17 18 20 20 15 10 12 14 15 16 22 24 30 53 35 41 47 77 72 67 60 65 54 84 89 91 98 77 61 56 43
9 8 8 7 6 5 4 3 3 4 6 6 8 11 13 9 8 7 9 9 10 10 11 15 21 36 46 35 30 51 62 64 82 77 57 54 89 94 82 100 83 65 54
8 7 6 5 4 3 3 4 4 4 4 4 4 4 4 5 6 6 7 10 8 8 13 19 18 18 29 37 31 34 50 68 83 89 73 53 46 55 89 100 100 84 76
6 6 5 4 4 4 4 4 4 4 4 4 4 4 4 4 4 4 4 5 6 7 8 10 17 20 21 25 30 31 31 40 66 72 67 63 54 52 80 88 91 96 92
4 4 4 4 4 3 3 3 3 3 4 4 4 4 4 4 5 5 5 6 7 6 5 5 6 7 9 13 19 22 23 29 40 60 64 64 57 48 49 51 64 92 96
5 5 4 3 3 3 3 3 3 3 3 4 4 4 4 4 5 5 6 6 6 6 5 5 6 6 6 6 9 14 20 22 30 35 45 49 54 60 49 48 47 64 68

GFSSE_250_rhum_111.txt.gz
RH
37 40 46 78 86 81 80 70 68 78 86 83 80 84 85 81 74 68 71 79 85 98 98 84 72 62 55 60 59 45 36 38 45 50 51 47 45 40 42 43 41 34 30
22 29 34 48 57 68 74 71 65 62 81 86 85 87 86 92 87 86 92 90 88 82 89 93 82 89 87 78 76 66 54 41 43 46 53 54 52 50 44 45 47 49 51
19 22 24 26 32 44 47 48 36 47 73 92 88 99 99 100 100 99 98 95 89 89 79 85 80 78 88 97 100 87 70 58 45 47 47 54 56 57 54 48 47 52 56
18 19 18 19 19 28 22 23 29 43 56 82 95 97 100 100 100 97 100 100 100 100 90 71 81 82 78 80 82 100 98 82 63 49 49 50 54 56 57 53 51 50 53
19 20 22 22 21 28 41 36 27 29 37 46 62 81 84 83 97 94 87 94 100 100 100 98 67 79 94 89 80 78 100 100 97 72 56 56 53 54 56 60 56 52 51
22 21 22 26 23 28 45 62 61 40 51 89 100 100 100 100 99 96 87 83 99 100 100 100 98 83 82 83 93 86 82 100 100 100 85 62 63 61 58 60 64 63 57
38 37 28 24 28 25 26 44 46 77 99 100 100 100 98 100 100 99 92 82 70 63 72 90 96 75 74 71 65 77 90 78 88 100 100 99 72 68 68 65 66 65 68
45 43 38 37 31 26 26 31 31 52 85 82 88 96 97 100 100 96 82 99 100 100 94 88 76 73 71 63 50 47 74 98 80 89 100 100 100 98 83 79 76 75 74
51 51 49 39 35 41 44 37 34 46 41 47 49 50 70 86 100 100 100 95 96 98 88 90 86 75 67 61 56 56 54 59 79 78 81 100 100 100 100 100 99 97 92
54 54 53 47 46 43 41 43 44 43 45 47 54 49 45 60 81 77 83 95 98 95 86 84 85 90 98 74 51 54 60 63 68 59 73 96 100 100 100 100 100 100 100
56 58 61 61 56 53 50 47 43 42 42 47 54 66 67 67 82 83 93 81 70 81 88 81 75 97 96 96 82 63 58 56 56 58 66 70 98 100 100 92 90 98 100
57 61 63 66 68 66 61 60 58 55 52 46 46 49 56 66 76 82 80 77 75 72 71 62 64 52 82 81 82 82 61 56 50 54 64 68 76 91 98 100 100 100 98
66 63 64 70 72 75 73 70 69 65 68 66 55 47 52 57 61 65 70 80 78 76 80 70 66 65 52 52 60 58 75 70 58 57 52 55 61 64 68 65 60 66 74
94 76 75 81 84 88 87 82 83 85 84 78 73 69 58 52 52 58 66 70 79 86 76 76 76 70 76 52 61 62 65 64 60 54 64 52 44 43 44 71 80 78 74
84 96 100 100 100 99 95 100 100 100 100 100 90 84 80 76 65 52 47 50 58 57 52 68 82 81 68 71 74 71 68 93 82 65 61 48 46 47 39 42 69 68 62
55 58 61 68 66 60 58 58 67 86 91 91 100 97 98 85 81 78 73 63 56 51 56 60 52 62 66 63 69 64 63 65 93 87 81 75 58 54 55 48 45 59 61
82 79 72 66 57 60 55 49 52 53 52 54 68 76 69 74 82 79 76 72 67 65 62 54 56 49 49 65 59 50 49 54 57 73 77 91 81 81 59 67 69 56 64
60 70 70 64 66 60 68 62 49 51 52 48 46 43 45 43 45 44 49 49 44 45 47 59 59 64 55 48 54 50 51 40 46 54 60 65 81 99 89 77 66 77 62
69 69 70 65 53 44 46 47 47 40 40 36 31 33 32 33 33 28 36 38 30 29 31 34 38 35 51 58 50 55 69 43 38 43 52 60 55 79 91 100 88 80 88
38 47 57 59 52 34 22 22 24 21 25 26 21 23 24 22 19 20 20 19 17 19 21 30 41 35 41 47 42 39 46 62 54 43 54 46 49 53 79 100 67 69 82
14 13 13 13 10 10 10 10 10 10 10 12 12 11 14 12 12 16 15 12 9 9 15 19 20 22 22 26 26 40 42 42 50 53 81 87 61 56 59 89 92 84 63
11 11 10 10 8 8 8 6 5 5 5 5 5 5 6 6 7 8 8 6 7 7 9 9 12 15 14 15 17 19 25 34 39 46 60 88 82 68 67 76 88 98 94
10 10 9 8 7 6 5 5 5 5 5 4 4 4 4 5 6 6 5 4 4 5 7 10 9 8 11 17 15 11 13 19 37 37 39 50 92 81 85 63 81 99 100
9 7 6 6 6 6 6 5 5 4 4 4 4 4 5 4 5 5 6 6 5 5 5 6 6 9 10 13 14 12 10 13 18 22 32 33 40 57 80 62 60 63 97
7 7 6 6 5 4 4 3 3 3 3 3 3 4 4 4 4 4 4 5 5 5 5 6 6 7 6 7 8 8 8 10 15 19 26 37 38 41 47 48 50 59 54
7 6 5 5 5 5 4 4 3 3 3 3 3 3 3 4 4 4 4 4 4 5 6 6 6 6 6 5 6 7 6 7 9 9 12 24 30 37 37 34 37 49 50

GFSSE_250_rhum_114.txt.gz
RH
71 63 59 51 54 54 71 83 85 75 79 91 91 85 86 87 89 92 86 78 72 80 91 99 100 100 94 84 62 60 67 62 48 43 43 48 50 50 46 41 41 43 41
51 44 33 24 27 66 62 70 81 75 75 72 74 76 90 91 95 92 93 89 86 85 86 94 96 98 96 93 84 83 84 74 66 54 46 47 50 52 52 47 44 46 48
22 16 16 16 19 28 54 60 62 58 65 65 59 52 91 100 100 100 100 99 98 99 96 91 98 95 90 87 89 85 94 100 88 70 62 48 50 50 54 55 52 46 45
17 17 16 16 17 21 30 39 41 44 35 37 37 38 58 94 97 82 95 100 100 97 96 100 100 100 91 81 92 99 90 91 100 98 79 65 54 53 54 54 55 56 51
18 17 16 16 37 36 24 24 28 36 27 28 36 46 53 54 63 71 71 81 86 98 97 86 97 100 100 88 81 88 100 91 91 100 100 96 80 61 59 57 57 58 60
24 24 20 22 24 25 24 23 37 39 50 46 29 32 40 62 94 100 100 99 86 84 94 92 94 100 100 100 87 62 74 95 92 94 100 100 100 96 71 65 65 62 61
34 35 32 31 39 25 37 35 46 50 64 57 64 84 99 100 100 100 100 100 98 78 70 69 69 74 86 94 90 88 64 60 72 76 82 98 100 100 100 91 70 65 66
38 37 39 37 36 37 34 26 33 46 49 73 98 99 99 100 100 100 100 100 93 95 99 94 86 74 72 75 78 76 74 69 65 50 66 84 79 97 100 100 100 96 88
46 44 45 42 41 40 36 33 34 32 36 47 61 78 77 62 84 92 95 100 100 100 100 100 91 78 83 81 78 73 65 63 60 54 43 56 78 69 97 100 100 100 100
50 50 50 49 49 51 54 53 46 44 36 30 34 42 45 51 54 54 57 79 96 94 100 100 100 96 90 87 70 69 71 56 58 52 58 74 83 84 68 94 100 100 100
49 51 53 55 55 54 56 59 62 62 57 54 49 44 38 36 41 47 58 62 67 72 77 88 78 82 98 87 72 81 82 82 72 60 50 49 53 52 55 54 94 100 100
52 52 54 57 58 58 59 60 62 62 60 66 63 59 59 57 51 45 43 46 53 64 76 77 75 76 72 73 72 60 57 65 74 69 56 52 50 48 54 55 55 63 76
58 59 60 59 60 62 64 62 62 64 73 75 76 77 75 74 74 70 65 61 52 51 60 67 66 71 77 71 68 72 76 62 56 61 63 60 54 54 49 53 57 55 60
81 75 75 82 84 81 81 87 85 73 78 83 86 86 80 79 79 82 85 74 71 62 55 52 57 61 70 80 81 78 65 65 64 58 62 59 63 61 53 51 45 40 40
100 94 95 93 92 85 85 86 95 96 91 96 99 99 100 94 88 87 78 86 85 81 79 75 72 63 56 64 68 69 66 65 52 56 67 73 60 58 58 49 48 49 52
72 84 92 91 77 67 60 52 54 60 72 78 84 84 72 67 67 78 85 87 79 78 74 77 78 81 76 69 68 71 69 70 63 54 49 65 85 78 66 62 63 55 57
53 47 51 66 66 62 57 51 44 46 52 52 52 57 61 56 53 55 50 48 65 70 75 76 67 69 90 90 77 72 74 67 64 60 57 59 58 67 64 69 73 69 67
60 57 57 64 62 56 59 54 52 52 45 43 40 38 40 43 36 33 37 40 42 47 47 45 54 55 59 64 74 77 78 77 74 75 65 63 54 54 71 62 68 61 67
64 57 52 49 51 51 46 41 42 36 37 36 35 32 32 30 30 27 26 28 26 27 28 30 31 32 34 42 40 50 59 69 61 65 82 88 72 54 49 53 59 63 82
60 54 47 52 50 43 42 39 37 37 32 26 24 22 17 20 26 26 23 18 18 20 18 17 19 18 22 29 30 33 41 51 66 58 58 55 70 73 63 51 48 46 60
48 48 44 26 24 26 29 28 15 10 11 11 11 11 10 9 9 8 8 8 8 9 12 11 12 17 20 19 16 19 23 38 48 70 65 51 46 58 70 64 56 57 58
14 13 12 11 10 10 9 8 9 8 7 6 5 5 5 5 5 5 5 6 6 7 8 7 6 6 8 13 15 18 19 18 23 26 26 37 39 36 49 73 67 70 55
13 13 13 11 10 9 7 7 6 7 6 6 6 6 6 5 5 6 6 6 7 8 9 6 6 5 5 7 8 12 14 16 18 21 27 26 26 26 32 39 57 73 77
17 14 11 10 9 8 8 7 7 6 6 5 4 4 4 4 5 5 6 6 8 7 11 8 6 5 5 6 6 7 8 9 13 16 21 26 28 21 20 27 33 43 52
13 11 10 9 8 8 6 6 5 5 4 4 4 4 3 4 4 4 4 4 5 6 7 9 7 5 5 6 6 6 7 7 7 9 14 16 15 17 17 17 21 26 34
12 10 10 9 8 7 8 8 8 8 7 6 5 4 4 3 3 4 4 4 4 5 5 6 7 6 6 6 5 6 6 6 7 7 6 11 10 9 10 10 11 13 20

GFSSE_250_rhum_117.txt.gz
RH
56 61 72 89 78 72 87 75 63 52 71 74 82 81 97 86 80 78 73 70 72 75 74 69 83 99 96 100 94 87 65 59 66 64 57 47 46 46 45 47 42 38 36
62 74 74 69 57 52 52 42 58 71 65 72 78 77 64 76 93 94 82 74 72 68 72 72 79 84 96 92 91 90 94 76 78 89 70 61 54 48 48 46 48 46 41
69 63 49 39 24 19 18 17 21 44 73 76 79 67 74 72 58 52 85 97 94 96 95 95 100 100 100 100 100 91 79 95 81 84 82 88 68 60 52 51 50 52 53
56 23 18 17 20 18 18 20 22 25 28 44 59 55 46 43 48 40 52 76 85 79 92 100 100 97 94 100 100 98 90 67 87 93 90 84 88 85 71 57 55 54 52
17 17 18 18 16 33 24 41 31 28 38 34 35 39 28 27 34 36 52 62 64 79 86 80 75 78 88 89 100 100 100 98 89 78 89 92 94 83 79 81 65 62 60
18 20 21 21 20 42 33 25 22 27 34 46 46 63 55 36 30 30 32 44 76 85 93 92 90 76 65 74 79 98 100 100 97 90 74 79 92 100 100 96 95 74 65
26 28 26 29 32 33 44 34 33 28 38 48 55 65 76 68 78 80 88 96 99 92 87 79 79 82 81 77 71 75 84 96 94 93 86 62 65 79 88 100 100 100 100
33 34 35 39 40 40 41 41 42 38 37 36 48 51 86 100 100 100 100 100 100 100 89 77 80 75 72 72 78 72 72 72 73 70 66 68 55 49 68 82 97 99 99
38 40 40 40 42 41 44 43 41 42 37 34 39 39 55 73 79 87 90 100 100 100 100 100 99 85 95 74 68 76 70 66 66 60 59 56 55 53 44 48 78 94 100
46 45 45 44 43 43 44 44 46 50 55 55 49 45 38 33 41 52 48 55 63 76 83 90 94 100 94 99 91 79 75 74 75 65 66 63 55 49 51 48 42 58 65
48 48 48 50 49 48 49 51 51 51 52 54 56 59 59 59 55 50 49 46 36 40 48 59 65 76 80 77 96 95 89 82 73 72 76 77 67 61 47 49 52 48 41
49 48 50 52 52 53 55 53 54 57 56 55 55 52 49 50 55 69 69 63 62 62 58 53 51 46 50 61 74 75 76 69 71 66 66 57 62 73 64 54 51 47 44
53 62 63 60 63 65 64 63 65 66 71 70 70 73 78 72 65 72 64 67 72 70 70 70 69 73 62 54 47 55 63 67 67 66 60 67 64 61 60 63 58 61 50
77 74 76 84 85 83 87 86 78 72 71 82 93 79 80 84 78 73 76 82 80 70 77 80 80 77 79 74 74 74 60 55 63 58 56 51 54 63 62 70 67 60 60
100 100 97 97 99 98 97 97 92 87 87 77 77 84 85 87 90 92 85 87 95 90 94 86 78 81 83 86 77 74 76 74 72 76 76 64 63 46 49 55 71 78 80
90 92 91 94 99 100 99 99 89 78 82 78 74 73 66 62 55 49 57 70 81 90 97 90 77 77 80 68 59 76 71 71 76 77 78 77 83 80 71 56 52 52 78
72 65 66 78 86 87 92 86 75 63 53 46 40 49 54 50 47 43 42 47 47 42 49 56 56 53 58 63 60 60 73 76 87 80 75 89 89 87 85 73 76 62 57
50 53 54 54 59 63 63 61 59 57 53 45 43 38 33 33 34 34 33 35 36 37 35 38 45 45 44 50 60 59 58 58 62 77 74 77 89 95 89 89 91 85 69
63 66 64 54 53 66 64 53 50 47 45 38 34 31 31 28 29 30 27 25 21 22 26 26 26 28 34 32 32 39 40 48 49 45 48 57 74 72 91 96 86 84 84
87 77 71 71 68 62 61 59 53 46 38 36 34 30 28 25 21 21 19 18 16 14 16 14 14 19 22 23 21 21 27 26 31 38 43 44 48 54 52 49 72 87 81
56 54 52 51 53 48 44 43 41 35 28 19 16 14 13 9 7 7 7 7 7 6 6 8 8 9 9 10 10 7 8 12 15 22 27 34 34 40 43 45 44 49 72
18 18 19 22 25 21 16 14 13 12 10 7 7 7 7 7 7 6 6 6 6 6 7 7 7 8 8 6 7 7 6 9 11 17 20 21 25 23 28 40 43 54 55
18 16 14 14 13 12 11 9 8 8 8 8 7 7 6 6 6 6 6 6 6 6 7 8 8 6 9 10 9 5 8 10 10 12 14 14 16 17 15 15 24 37 43
19 18 16 16 14 10 10 10 9 8 8 8 7 6 5 5 4 4 4 4 5 5 6 6 8 8 8 10 8 6 6 5 7 10 12 12 13 13 14 14 14 15 19
30 27 20 18 16 14 13 12 11 9 8 7 7 6 7 6 5 5 5 5 4 4 5 5 5 6 7 8 10 11 8 4 6 5 9 12 12 12 14 13 13 12 10
28 23 17 14 13 13 12 12 15 16 17 16 13 12 10 8 7 6 5 5 5 6 6 6 5 5 5 6 8 8 8 7 5 5 6 9 14 14 13 10 10 10 10

GFSSE_250_rhum_120.txt.gz
RH
65 68 55 50 54 53 63 82 72 69 75 76 94 93 99 86 83 70 73 67 66 62 58 57 60 76 78 84 91 92 83 73 69 61 62 67 58 55 48 47 47 50 43
41 52 68 54 52 52 55 58 56 47 54 56 66 70 69 73 82 71 66 78 74 70 69 69 69 69 70 84 92 91 96 93 82 68 66 79 83 69 60 52 49 48 51
30 32 73 74 61 63 45 31 20 18 24 39 33 52 78 78 69 60 55 64 66 56 69 82 92 92 90 92 99 100 100 100 87 80 67 75 74 65 78 64 57 54 53
23 27 62 67 65 20 17 22 20 27 26 31 44 33 34 48 65 58 44 40 40 38 52 71 79 86 95 95 84 86 94 100 100 100 93 83 78 75 66 69 75 67 57
20 26 32 22 19 19 16 21 33 24 28 42 40 49 53 70 64 60 40 32 35 38 50 56 60 72 67 70 72 71 70 76 84 100 100 92 81 75 79 83 67 70 75
18 17 18 20 20 25 32 24 30 30 24 28 35 43 55 65 90 92 64 60 48 39 40 61 84 82 88 83 80 71 69 76 83 77 95 100 87 92 74 77 94 95 81
24 24 25 28 28 26 31 30 31 26 30 32 30 25 45 57 58 69 73 95 100 100 96 91 85 77 74 76 76 79 74 65 62 71 72 80 93 73 67 51 56 82 88
33 31 31 32 32 31 34 36 35 37 37 39 42 45 38 34 39 78 100 100 100 100 100 99 88 78 90 80 75 64 65 71 76 79 74 74 69 68 61 52 40 36 56
40 39 37 36 36 37 37 38 39 41 43 42 44 51 45 46 48 46 54 74 84 89 94 99 99 87 79 83 100 88 68 59 62 64 66 68 64 57 55 49 47 46 43
46 46 44 44 44 44 44 44 44 42 42 45 47 48 52 56 56 56 52 46 40 58 56 60 68 70 73 73 88 88 91 79 72 60 60 59 62 62 60 55 56 51 44
44 46 47 48 48 49 49 49 50 50 50 51 51 49 51 53 53 54 53 51 47 54 57 60 56 51 64 69 56 56 65 75 74 73 74 73 68 64 62 62 54 57 52
54 50 45 47 52 52 52 50 52 53 56 58 59 61 63 64 64 69 69 67 64 64 62 66 61 64 73 69 68 61 65 61 61 64 65 66 69 69 64 60 54 56 60
79 70 67 65 61 51 48 55 64 69 74 76 76 74 71 70 72 68 70 69 65 55 57 63 65 62 54 57 60 65 70 72 78 72 68 65 54 56 64 65 69 68 59
75 96 91 87 83 86 82 74 74 80 78 78 76 73 72 65 63 55 51 60 73 72 66 62 60 61 64 66 65 54 55 63 65 71 75 76 77 75 68 62 61 60 60
55 59 78 91 90 88 84 80 86 85 82 85 85 80 84 85 77 70 74 68 60 62 63 61 58 69 74 76 76 70 70 71 60 64 78 71 76 70 74 80 76 68 69
39 41 48 50 58 67 70 87 92 93 94 96 94 91 95 93 95 90 73 63 61 64 56 55 55 57 54 58 68 86 82 86 83 84 78 70 75 94 92 86 86 84 81
46 46 47 44 44 48 50 51 51 53 59 57 58 65 73 75 74 65 58 50 56 57 51 40 41 42 38 48 52 51 62 60 55 50 63 77 79 76 74 84 92 91 86
59 58 55 63 60 62 60 55 51 51 50 51 48 42 34 35 37 36 35 35 32 29 28 28 25 27 31 33 32 39 36 41 45 50 47 51 74 89 98 79 85 92 99
64 67 74 69 61 52 46 52 61 62 53 51 44 42 39 36 31 27 24 26 25 24 23 21 25 26 28 30 28 31 36 38 37 42 42 49 51 50 72 73 76 87 81
62 54 42 37 37 42 49 49 47 48 45 42 38 34 30 24 22 20 18 16 15 15 14 9 8 12 13 12 11 15 18 24 26 27 31 29 40 51 56 66 68 62 59
19 21 19 20 21 21 22 24 26 22 20 20 21 20 18 15 10 8 6 6 6 7 7 7 7 7 8 8 8 8 8 8 8 9 11 17 23 27 27 33 48 44 46
23 21 22 22 20 19 19 18 16 14 12 10 10 10 9 9 8 8 7 7 7 7 7 7 7 7 8 9 9 9 8 8 8 10 11 12 14 16 16 14 12 12 25
33 26 22 19 16 15 15 13 12 11 11 10 9 8 9 8 8 6 5 5 5 5 5 5 5 6 6 7 8 8 9 10 9 10 11 9 15 19 16 14 14 15 16
24 27 26 21 21 20 16 17 15 13 13 12 12 11 10 9 8 6 5 5 5 5 5 4 4 4 5 6 8 8 8 6 13 10 9 8 10 11 12 12 13 15 13
28 31 31 28 26 24 24 23 20 15 12 12 12 14 15 15 13 12 11 10 8 7 6 6 6 6 5 6 6 7 6 7 8 9 12 12 7 10 12 11 13 14 13
33 31 29 29 27 21 16 13 15 25 35 29 28 26 24 24 24 21 18 15 10 8 6 6 6 6 6 7 8 9 8 8 7 7 9 12 9 12 7 8 8 9 15